GFSNW_850_thetae_000.txt.gz
Theta_e
312 313 313 314 314 314 315 320 310 318 316 312 310 311 318 321 318 318 320 318 317 316 319 320 320 319 318 317 318 316 314 312 312 315 314 314 314 314 309 307 312 306 305 309
313 313 313 314 314 314 315 317 323 321 316 307 303 311 319 319 317 318 319 320 319 318 319 320 320 319 317 314 316 315 313 312 313 315 313 312 316 315 310 307 306 312 308 309
312 313 314 314 314 314 317 317 317 324 321 310 310 314 316 319 319 319 319 319 318 318 320 318 319 320 317 314 315 316 313 311 312 313 313 311 313 315 311 310 307 309 308 310
312 313 315 314 314 314 318 317 316 320 311 312 311 312 318 319 320 319 318 319 319 319 321 320 320 319 316 315 316 315 310 313 312 312 311 312 312 312 312 312 310 311 311 309
313 314 315 314 314 315 321 319 315 315 313 317 317 314 317 318 319 319 319 318 319 318 316 317 318 316 313 313 315 313 307 309 308 315 311 309 312 310 310 311 311 310 312 311
313 315 316 315 314 316 321 321 320 319 308 310 315 313 319 318 317 319 318 317 316 317 318 317 315 314 313 314 314 309 305 304 304 304 306 305 306 308 309 309 309 309 311 310
313 316 317 315 314 315 319 320 321 318 306 306 312 316 318 318 317 318 318 318 315 317 317 317 317 316 314 313 311 308 303 302 298 303 300 304 308 307 309 311 311 310 310 309
313 316 317 315 314 315 318 321 322 320 304 309 314 317 317 318 319 319 319 319 318 317 315 308 312 307 308 307 309 306 304 300 302 303 303 304 307 311 311 312 311 309 309 308
312 315 316 314 313 315 316 319 321 322 313 312 316 317 317 310 312 311 318 315 316 316 302 303 308 311 312 313 316 308 304 298 301 297 301 301 305 308 311 311 311 310 310 308
314 315 315 314 313 315 316 318 320 321 321 320 319 317 317 317 313 309 318 317 318 313 298 300 304 307 308 312 310 307 304 301 299 295 298 303 303 310 311 312 310 311 312 311
315 316 316 315 314 315 316 319 320 322 322 321 320 319 319 318 318 312 318 314 316 305 305 302 302 301 307 308 309 309 309 305 302 299 299 306 306 310 310 311 311 312 313 313
315 316 318 317 315 318 318 319 322 321 322 320 320 320 320 319 319 319 319 317 316 314 305 297 303 306 307 302 309 307 309 306 305 304 305 306 309 310 313 312 311 312 313 313
312 315 318 318 318 317 316 319 320 321 320 319 320 320 319 319 319 320 319 314 317 315 312 305 298 303 301 306 306 307 308 306 305 307 309 308 311 311 312 312 312 313 313 313
308 312 316 319 318 318 318 319 319 320 319 316 318 319 320 318 318 318 318 318 315 314 314 308 303 300 305 299 304 304 307 308 308 306 309 311 312 313 313 314 314 313 313 314
307 309 312 318 317 318 319 318 317 318 316 314 317 318 319 320 320 320 320 319 317 316 313 302 304 305 303 303 302 304 309 308 306 307 311 310 310 312 313 313 314 314 313 313
308 307 308 313 316 316 316 316 316 315 314 317 310 316 317 317 318 319 319 319 318 318 318 313 311 310 309 307 306 312 312 312 312 311 312 313 314 314 314 314 313 313 313 312
308 308 308 308 309 310 310 311 316 316 314 314 311 311 317 318 317 318 319 319 319 318 316 312 311 312 311 305 304 313 313 313 313 313 313 313 313 313 313 313 313 312 311 308
308 308 308 308 308 309 311 312 314 316 313 315 304 303 315 316 318 319 317 319 318 316 312 310 307 308 307 309 309 313 313 314 314 314 314 313 313 313 312 312 311 307 298 297
308 308 308 308 308 309 313 314 313 313 313 312 306 307 309 314 313 313 314 314 305 309 310 308 309 304 309 308 306 309 311 311 311 312 312 312 312 309 305 304 299 299 299 298
309 309 310 310 311 312 312 312 313 315 315 315 304 307 307 310 311 309 310 309 306 311 307 309 306 308 306 303 304 306 309 310 311 310 308 306 303 301 298 299 299 299 298 298
310 310 310 312 313 311 311 309 307 308 309 309 307 308 306 308 307 306 307 304 303 309 305 310 307 307 300 299 302 303 305 306 306 306 304 301 300 299 300 299 298 297 297 295
310 311 312 311 311 310 305 303 305 306 307 307 308 308 309 309 310 306 306 306 303 309 304 307 307 299 297 301 303 304 304 303 303 303 302 300 300 299 297 298 297 295 293 291
311 311 310 309 306 308 308 309 307 306 303 305 306 305 307 308 308 305 303 307 307 303 306 307 302 299 302 302 302 301 301 301 300 300 297 296 294 293 295 295 295 292 291 291
309 307 305 303 304 301 300 301 301 300 301 303 304 303 305 304 304 301 306 302 301 306 303 299 301 300 300 298 298 298 299 300 296 294 295 294 293 292 291 291 291 291 291 291
302 301 300 298 297 298 298 299 300 300 301 302 303 302 303 300 302 300 300 300 300 297 295 300 300 300 299 295 295 295 295 294 296 295 296 295 293 292 292 292 292 292 292 292
298 298 298 297 299 298 298 299 300 300 301 302 302 300 301 300 300 299 298 298 297 299 299 300 300 300 299 299 298 297 297 296 295 296 294 293 293 293 293 292 293 293 293 292
297 297 298 298 299 299 299 300 300 300 301 299 298 299 299 297 297 300 300 300 299 300 300 298 298 299 298 298 297 297 296 294 293 294 294 294 293 293 293 292 291 291 291 291

GFSNW_850_thetae_003.txt.gz
Theta_e
311 311 313 313 314 314 314 318 313 321 317 313 309 313 314 319 319 317 318 315 316 317 318 319 319 320 318 317 317 318 314 316 318 315 314 314 314 314 313 316 312 311 314 316
310 312 313 313 314 314 314 320 322 321 315 311 308 310 316 319 317 317 318 319 318 318 320 320 319 319 315 314 315 317 314 316 319 317 314 313 316 314 310 310 311 314 323 316
310 312 313 313 314 314 315 319 320 323 316 311 311 313 315 317 318 318 318 318 318 319 320 318 320 319 316 314 315 314 313 313 316 319 315 313 315 315 311 313 316 313 316 315
311 312 313 313 314 314 318 317 316 321 315 309 309 310 313 317 319 318 318 319 318 319 321 320 319 318 315 315 315 314 313 316 313 312 311 312 311 313 312 313 313 317 314 312
310 312 313 313 314 314 319 316 316 315 313 312 311 310 317 318 318 318 318 319 318 318 319 319 320 317 314 314 315 313 309 314 310 314 311 310 313 311 311 312 312 311 311 313
311 313 313 314 314 313 319 318 316 315 306 312 312 313 314 317 318 318 317 317 317 318 318 316 314 313 312 314 315 311 309 310 310 311 307 307 312 311 311 311 311 314 315 315
312 313 314 314 314 314 318 318 315 315 307 309 311 315 317 317 317 318 317 317 317 316 316 316 315 314 312 311 308 307 306 305 304 312 305 313 312 309 309 311 310 310 311 311
312 314 315 315 314 314 318 318 315 316 305 309 312 315 316 317 318 318 318 318 317 317 315 313 315 313 312 310 308 306 305 306 306 314 311 308 309 308 312 313 313 312 312 311
313 315 316 315 314 315 319 319 319 320 311 310 315 316 316 314 314 314 316 315 315 314 305 309 315 318 315 313 315 308 305 302 311 306 311 311 310 306 311 311 316 311 311 310
313 316 316 315 314 316 318 321 320 321 318 315 315 317 317 316 314 314 314 315 316 313 306 310 313 315 310 314 312 310 311 306 310 302 313 310 306 309 310 314 315 310 311 311
314 316 317 315 314 315 317 318 319 320 321 317 318 318 318 317 318 316 316 316 316 308 311 312 310 312 311 311 310 311 313 312 310 303 308 313 305 310 314 314 312 311 312 312
315 316 316 315 314 315 316 317 318 320 321 319 319 319 319 319 319 319 317 317 315 314 310 305 305 310 307 306 316 308 313 311 312 309 312 307 308 311 312 312 312 312 311 312
317 316 315 314 314 316 317 317 319 320 319 318 320 319 318 318 319 320 318 314 317 315 312 305 304 309 305 312 311 309 309 305 310 309 310 307 309 311 311 311 311 312 312 311
317 319 316 314 315 316 316 318 320 320 320 316 318 319 319 319 319 318 319 320 317 315 312 307 305 309 304 306 308 309 309 308 309 309 309 310 311 311 311 312 312 313 313 313
317 318 319 318 318 317 315 317 319 319 318 314 318 319 319 319 319 318 318 317 315 314 312 306 309 303 305 303 304 308 308 310 312 314 312 310 311 312 313 314 313 313 313 313
316 318 318 318 319 317 319 317 316 316 319 319 312 316 318 319 318 319 318 317 317 317 317 312 309 308 309 309 311 311 312 312 312 311 311 311 312 313 313 313 313 313 313 312
308 315 317 317 317 315 314 316 316 314 314 315 310 311 317 318 319 319 319 319 318 317 315 309 307 308 309 305 311 311 311 312 312 312 312 312 313 313 313 313 313 313 311 308
307 308 308 309 310 310 314 317 316 314 313 313 306 305 315 316 317 316 316 318 317 315 310 307 305 306 307 311 308 307 309 311 312 312 312 311 312 312 312 310 308 307 300 296
308 308 308 309 309 311 314 314 314 312 311 311 306 308 310 314 312 312 312 312 308 309 308 307 309 305 309 303 301 303 305 306 309 309 310 310 308 307 303 302 300 300 298 299
309 309 310 310 313 313 313 311 312 312 314 314 303 305 307 310 310 307 309 309 305 310 308 309 307 308 299 298 300 302 304 306 308 307 303 301 299 299 298 297 298 299 297 297
309 310 312 313 312 310 310 308 307 308 306 308 307 307 308 308 309 307 307 304 304 310 307 310 309 306 298 300 301 301 302 303 303 302 301 299 299 299 298 298 298 298 296 296
311 312 312 310 311 310 305 304 305 303 305 306 308 308 309 308 309 306 305 307 305 310 304 307 309 298 299 300 301 301 302 302 301 301 300 300 299 299 298 297 296 296 295 293
311 311 310 309 305 305 302 309 307 306 303 305 306 304 307 308 308 305 304 309 309 304 307 308 301 297 299 300 300 300 300 300 298 297 297 296 296 297 296 296 294 293 291 290
310 307 303 302 305 302 302 303 302 300 302 304 306 304 305 304 304 302 309 302 302 307 308 304 299 299 299 299 298 298 298 296 295 295 294 293 292 292 291 291 291 291 291 291
303 302 300 299 297 298 298 299 300 300 302 304 304 303 304 301 302 300 302 303 303 301 301 301 299 297 296 296 295 295 295 295 296 296 296 294 293 293 293 293 293 293 293 293
298 298 298 298 299 298 299 300 300 301 302 302 303 300 302 301 301 302 302 302 300 300 299 299 299 299 298 297 297 297 298 296 296 295 293 294 294 294 293 293 292 292 292 292
298 298 298 299 299 299 299 300 300 301 301 300 299 302 300 298 299 300 300 300 299 299 300 300 299 299 298 297 298 299 296 294 294 294 294 294 294 294 293 292 292 292 292 292

GFSNW_850_thetae_006.txt.gz
Theta_e
304 310 317 313 311 313 314 317 321 318 320 322 319 321 318 320 322 319 320 320 320 321 322 321 322 321 322 320 320 322 319 322 324 321 318 318 319 319 318 318 317 319 322 317
304 310 317 313 311 313 313 317 321 322 323 323 324 318 319 321 321 320 322 321 322 322 323 324 323 323 317 317 320 322 320 323 323 321 319 318 320 319 316 317 319 319 327 316
304 310 316 312 311 314 315 318 325 322 316 317 319 318 319 318 319 320 321 322 323 324 324 323 325 323 318 317 318 313 316 321 322 324 320 319 320 319 317 317 319 317 319 316
305 311 315 311 312 314 315 320 322 320 324 319 318 318 318 318 322 320 320 323 324 324 326 324 325 323 318 318 316 318 320 322 319 317 316 316 317 318 318 317 318 318 316 316
306 313 314 311 313 313 315 320 321 318 319 316 317 315 317 317 321 322 322 323 323 324 326 324 325 323 321 322 320 321 317 322 318 319 316 316 317 317 318 318 318 317 317 317
305 314 311 311 313 314 316 318 317 318 313 317 318 316 317 317 322 321 320 323 324 324 323 321 320 318 318 319 321 321 320 318 317 319 314 315 319 317 317 317 317 318 318 318
307 313 310 312 313 314 317 318 317 318 320 319 317 316 316 322 322 324 321 322 324 319 316 317 317 317 316 315 314 314 314 315 315 320 312 327 315 313 314 316 316 316 316 316
313 310 310 312 313 314 316 318 316 316 319 318 317 316 316 319 320 323 322 320 319 317 318 323 322 323 322 318 314 313 313 316 316 325 317 316 313 311 313 315 315 316 315 315
309 310 312 313 314 314 317 318 316 315 319 319 316 316 318 323 324 323 318 316 316 314 319 324 326 325 321 320 320 314 311 312 318 315 330 330 315 311 314 314 316 314 315 316
310 311 313 314 314 314 318 318 317 314 316 316 317 318 319 321 323 325 318 316 317 313 321 332 328 324 317 320 319 318 319 317 322 318 325 317 313 312 313 315 315 315 315 316
311 312 314 314 314 315 319 319 319 320 322 318 316 317 319 319 322 326 319 320 319 319 326 330 324 327 319 318 316 318 319 321 321 314 323 323 310 313 318 316 316 315 315 315
312 314 315 315 314 316 318 319 319 318 322 321 317 316 317 319 321 322 319 323 321 322 324 321 319 318 313 319 323 313 319 318 319 317 318 313 311 315 315 313 314 314 314 314
314 316 316 315 314 317 318 320 320 319 319 319 320 320 318 318 319 320 321 318 319 317 318 317 319 320 318 320 321 318 315 311 316 315 315 313 312 312 312 312 313 313 313 313
315 316 316 314 313 316 317 319 317 317 320 319 320 318 318 318 319 319 319 320 318 316 314 317 314 322 313 319 317 319 316 313 316 315 314 314 313 313 313 313 314 314 314 314
316 316 315 314 314 315 318 317 317 319 319 320 320 318 318 319 319 318 318 318 317 316 316 315 323 312 314 310 313 318 313 316 317 318 314 315 314 313 313 313 314 314 314 314
317 314 314 314 314 317 317 317 317 319 318 319 324 317 316 316 316 315 316 315 315 315 319 316 312 309 316 316 320 316 313 312 312 314 312 312 313 313 313 314 312 311 310 307
319 318 315 314 316 317 316 317 317 317 317 317 320 319 317 316 317 317 317 317 317 319 316 313 315 313 314 311 321 313 310 310 312 312 313 315 312 311 309 309 307 305 302 300
316 317 317 317 317 315 316 316 315 314 313 314 318 316 318 317 316 314 316 317 317 313 310 308 311 309 312 318 312 307 307 308 311 307 309 310 304 305 303 303 302 301 299 298
311 312 313 314 315 315 316 314 312 311 311 316 316 320 320 313 310 310 311 312 313 309 311 311 313 310 315 305 303 304 304 304 305 303 303 302 303 300 300 300 299 298 298 298
309 310 310 311 314 314 312 311 311 311 312 313 307 307 312 311 309 308 311 310 311 315 312 308 313 310 300 299 300 301 302 303 307 307 303 300 299 299 298 299 298 298 298 296
310 311 313 313 311 310 310 309 312 312 313 308 306 308 311 308 313 311 307 309 310 313 314 313 313 309 301 300 300 302 303 304 303 302 301 300 300 299 299 299 298 296 296 296
311 312 311 310 310 310 308 308 308 311 312 306 309 307 308 308 309 310 308 311 308 313 308 312 313 302 299 300 301 302 301 301 300 300 299 299 298 298 297 297 296 295 293 291
311 311 309 309 306 309 315 310 309 309 304 305 306 306 307 308 308 306 311 315 313 307 311 311 305 299 299 300 300 300 298 299 298 298 296 295 294 294 293 292 291 291 292 292
310 307 308 307 309 306 303 306 305 300 302 305 306 304 307 305 307 305 316 304 304 309 311 309 300 299 299 299 299 299 298 295 295 294 294 293 292 292 292 292 293 293 293 293
303 302 304 302 297 298 299 299 300 301 302 305 306 305 305 304 306 303 304 307 309 308 308 303 299 299 299 299 297 297 296 296 295 296 295 293 293 293 293 292 292 292 292 292
299 298 300 298 300 299 299 300 300 301 302 303 304 302 305 303 305 307 308 309 308 305 301 299 298 297 298 296 295 297 297 295 296 295 293 294 294 294 293 293 292 292 291 290
298 298 298 299 299 299 299 299 300 300 301 301 301 307 304 302 305 305 304 305 303 299 298 298 298 298 298 297 298 298 297 295 294 294 294 294 294 293 292 292 291 289 287 286

GFSNW_850_thetae_009.txt.gz
Theta_e
302 302 304 307 312 315 311 317 320 322 316 321 323 326 322 319 322 322 320 321 319 320 321 321 320 320 321 322 322 320 320 322 326 323 322 321 322 322 322 322 321 322 324 320
301 303 304 306 311 315 312 319 319 323 321 326 330 323 320 319 322 322 321 320 320 320 321 320 320 320 322 322 323 321 323 322 324 323 322 321 320 321 320 319 321 319 326 319
301 303 304 306 310 314 315 318 324 322 321 322 323 322 321 320 321 322 321 320 321 323 323 323 323 323 322 321 322 317 319 321 322 324 322 322 322 319 320 319 321 320 320 318
301 303 305 307 310 313 315 318 321 321 327 326 324 322 320 319 321 322 322 323 322 322 322 324 324 325 322 321 319 318 323 323 322 322 321 319 319 320 320 319 319 321 319 316
302 303 305 307 310 311 314 319 320 320 323 321 322 319 320 320 321 323 324 323 321 322 323 323 323 325 325 324 323 324 322 324 322 323 321 320 320 319 318 319 319 318 317 317
301 302 303 307 312 311 315 320 320 321 324 325 322 322 319 320 322 324 323 322 324 323 325 325 324 324 324 324 325 325 324 325 322 320 319 320 322 320 319 318 318 318 319 319
301 302 304 307 313 312 316 320 320 321 325 325 321 319 318 319 321 324 323 323 324 324 321 321 321 320 320 319 320 322 323 322 321 321 317 324 318 317 316 318 318 318 318 317
302 302 303 309 313 312 317 321 321 321 328 320 319 318 317 318 322 325 324 324 324 321 322 324 324 324 324 320 317 317 319 321 321 327 319 317 316 314 315 316 316 317 317 316
302 302 303 311 311 314 317 323 320 319 323 322 317 317 316 323 325 326 322 321 321 320 326 327 324 325 322 324 323 317 315 318 320 318 326 326 319 316 316 316 316 315 315 315
304 304 305 312 311 314 318 324 318 318 317 317 317 318 318 317 322 326 323 321 320 320 328 331 326 324 321 322 321 321 321 322 324 321 325 321 316 315 315 316 318 316 315 315
304 307 311 310 312 315 316 324 317 317 317 319 317 316 317 317 319 329 324 323 323 324 328 331 326 330 324 322 321 322 321 323 325 322 322 324 313 315 318 319 316 315 315 315
311 310 310 312 313 315 318 323 316 318 318 324 320 321 319 319 320 323 322 323 324 324 327 328 329 324 320 325 324 319 322 321 322 319 320 316 314 315 315 315 315 315 314 314
309 311 312 313 314 315 319 324 319 323 324 322 321 321 318 319 318 324 324 325 325 324 326 326 328 325 324 324 325 323 319 316 318 317 316 315 315 314 314 314 314 315 315 315
310 312 313 313 314 315 320 324 320 320 322 323 323 320 320 317 318 320 324 325 322 322 323 325 319 325 320 326 323 321 319 317 317 317 316 314 315 315 315 315 315 316 316 316
312 313 314 314 315 316 320 320 318 319 320 322 323 320 318 318 318 320 319 321 320 321 322 319 326 319 320 318 319 320 317 316 319 318 316 317 316 316 316 316 316 316 315 314
314 315 315 315 315 316 320 319 318 318 319 323 325 320 318 319 320 320 321 322 322 322 323 323 319 316 320 321 320 317 316 316 315 316 316 315 316 315 312 310 309 307 306 306
316 316 316 315 314 316 320 318 318 316 319 319 323 324 318 318 320 319 321 321 322 322 321 322 320 318 318 318 320 316 313 312 314 313 315 317 311 310 307 306 305 304 303 302
315 316 316 315 315 317 316 316 317 317 318 320 322 322 322 318 320 321 318 321 321 318 316 315 319 315 319 322 315 311 310 311 312 309 311 309 306 305 304 304 303 302 299 299
315 315 315 316 316 316 315 314 316 317 316 321 321 321 323 316 313 314 316 319 320 314 314 316 318 313 319 312 310 309 308 309 310 307 306 305 303 302 301 300 299 299 298 298
315 316 316 316 315 314 314 313 314 317 317 314 312 315 318 317 312 312 314 312 316 318 314 313 316 316 306 305 305 306 307 308 309 307 305 304 303 301 299 299 298 298 299 299
311 311 312 313 315 314 311 313 317 316 317 310 310 312 316 312 315 310 310 313 314 317 317 315 316 313 306 304 304 304 304 305 304 304 303 301 300 300 298 299 299 298 296 295
312 312 311 310 310 311 313 311 311 314 314 307 310 309 310 309 313 312 311 312 311 316 312 316 314 306 302 301 301 303 303 302 301 301 300 300 299 299 297 296 293 292 291 291
311 311 309 311 308 314 312 313 312 310 306 305 308 309 309 309 310 309 312 312 317 311 315 314 309 302 299 300 300 301 301 301 300 299 297 295 294 293 292 292 292 292 293 293
310 308 309 310 310 306 305 306 305 301 303 306 307 305 309 307 309 308 314 306 310 313 314 312 304 300 300 300 300 300 299 297 296 295 294 293 292 293 293 293 292 292 292 292
304 304 306 303 298 298 299 299 300 301 303 305 308 308 310 307 309 306 308 308 313 312 311 304 300 299 299 300 301 299 296 295 297 296 294 293 293 293 293 292 292 292 292 291
299 299 301 299 301 300 299 300 299 301 303 305 306 306 309 307 308 310 312 313 313 307 302 299 299 299 300 299 297 298 297 296 297 295 293 294 294 294 293 292 292 291 290 288
299 299 298 299 299 298 297 299 299 301 302 302 303 309 306 304 308 308 307 308 304 299 298 299 299 299 298 297 297 296 296 296 295 293 294 294 294 293 292 290 289 287 286 285

GFSNW_850_thetae_012.txt.gz
Theta_e
302 302 302 302 306 310 313 314 316 319 316 318 316 324 323 321 322 320 321 320 319 319 321 320 319 322 323 321 321 321 320 321 329 322 321 321 321 323 320 331 324 330 330 323
300 302 301 302 306 309 313 314 318 319 317 318 323 321 323 322 322 322 322 320 321 320 321 321 320 320 324 324 322 321 321 322 327 323 323 322 321 319 321 322 326 327 331 324
299 302 302 302 305 309 314 315 320 323 320 317 321 324 322 322 321 321 321 321 321 320 320 321 321 321 323 322 323 319 323 322 321 327 323 323 324 320 319 321 329 325 322 319
299 301 302 303 304 308 313 317 321 322 322 323 323 325 323 322 321 321 321 321 319 322 322 322 322 323 324 323 321 321 322 322 321 320 321 322 322 321 320 319 321 321 322 319
300 301 302 303 304 307 311 317 320 321 322 321 324 324 325 322 320 322 322 323 321 322 323 322 323 323 326 324 323 323 323 326 325 326 322 322 322 321 320 319 319 319 319 319
301 301 302 303 305 307 311 315 320 322 322 323 326 327 324 322 322 322 322 322 322 323 325 325 326 325 325 325 326 326 327 330 327 326 320 321 321 323 320 321 319 319 319 320
301 301 301 303 305 307 312 315 320 322 325 324 325 325 322 321 322 324 323 323 325 325 323 323 323 322 323 324 324 325 327 327 327 328 318 323 318 318 318 318 319 319 318 318
300 300 301 304 306 307 312 315 318 321 324 325 323 325 324 320 320 324 323 326 326 323 324 326 325 328 323 321 320 321 323 326 327 327 323 319 317 316 316 316 317 317 317 317
300 300 302 303 304 306 311 316 318 321 325 327 321 322 321 323 328 328 324 324 323 324 331 332 325 328 323 324 322 317 317 323 328 323 328 326 321 317 317 317 319 316 315 316
300 301 301 302 304 307 310 314 317 323 323 322 320 321 321 319 327 328 324 323 323 324 331 327 333 330 322 326 326 321 323 325 323 324 326 325 318 316 315 318 322 317 316 316
301 301 301 302 304 307 309 315 320 322 321 320 320 318 317 319 325 330 325 325 325 330 330 330 333 330 329 326 321 322 323 327 324 327 323 322 315 315 319 322 317 315 315 315
301 302 301 304 305 309 311 312 318 320 324 323 321 320 319 318 319 325 324 325 325 327 330 329 333 322 319 324 327 321 325 324 328 323 324 318 315 315 315 315 315 315 315 315
302 302 304 305 307 311 312 317 323 325 324 323 318 322 320 318 319 325 326 325 325 325 326 331 332 321 327 322 330 324 321 319 323 321 316 316 315 315 315 315 315 316 316 316
303 305 306 310 311 312 312 313 322 324 321 322 324 321 321 318 318 322 325 327 325 326 327 329 319 324 324 329 328 330 322 318 318 318 317 316 315 317 316 316 316 317 317 317
308 309 311 311 312 312 314 318 322 324 319 324 324 322 320 318 317 319 322 325 324 325 324 316 330 323 325 323 325 326 319 318 324 324 318 318 317 317 316 316 314 312 312 309
310 310 311 311 312 312 314 317 319 321 323 323 326 321 321 321 321 323 323 324 323 324 326 324 321 319 323 324 325 317 318 317 317 318 317 317 316 312 310 310 309 308 307 306
310 311 312 313 313 314 319 318 319 319 319 320 323 321 320 322 323 323 323 323 324 324 324 325 321 319 321 317 325 317 314 314 314 313 316 314 312 309 309 306 304 305 304 302
312 312 313 313 314 316 317 316 317 318 319 319 322 318 320 320 323 322 322 324 322 320 319 320 323 318 322 325 316 314 312 313 312 311 310 309 308 307 304 303 303 301 300 299
313 314 315 314 315 317 316 316 317 317 317 317 320 318 321 319 316 317 320 322 323 317 316 322 320 315 321 317 314 312 311 313 311 309 308 307 305 303 302 300 300 300 299 299
315 315 316 316 316 315 314 312 314 314 313 312 316 316 319 317 312 313 315 314 320 318 316 315 320 317 310 308 309 309 309 311 309 307 305 305 303 301 300 300 299 299 299 299
316 315 314 313 313 314 314 313 316 313 314 313 312 313 317 315 316 312 312 316 316 317 317 317 315 314 309 307 307 306 307 307 307 305 304 302 300 300 299 299 298 297 294 292
315 314 312 312 312 312 311 312 312 315 315 307 310 312 312 312 315 312 312 312 314 317 312 316 315 310 306 304 304 305 304 304 302 301 300 300 299 299 298 295 292 292 292 292
313 312 310 312 308 312 313 312 313 311 305 306 308 308 310 310 312 310 311 312 313 312 312 313 311 305 303 303 304 303 302 302 301 298 297 296 295 293 292 292 293 293 292 292
310 308 307 308 308 305 304 304 304 301 303 307 307 307 309 308 306 308 313 306 310 313 314 313 304 302 301 301 302 302 300 298 296 295 293 292 292 293 292 292 292 292 291 291
303 304 305 303 298 299 299 299 300 301 304 306 309 309 309 307 307 307 307 309 313 311 312 306 301 300 300 301 301 299 297 296 296 294 293 293 293 293 292 292 292 291 290 289
299 298 301 300 301 300 299 299 300 302 304 306 307 308 309 306 308 311 311 313 313 307 302 299 300 300 300 301 299 297 296 298 297 294 293 294 294 293 292 291 290 290 289 287
299 298 298 299 298 297 297 298 300 302 303 303 305 308 305 304 308 307 305 306 303 299 299 299 300 300 299 298 298 297 297 297 295 294 294 294 293 292 290 288 288 286 286 285

GFSNW_850_thetae_015.txt.gz
Theta_e
296 299 302 302 303 303 308 313 314 314 311 315 316 316 320 321 322 322 322 320 319 318 320 319 317 319 323 322 320 321 320 322 320 323 320 319 318 320 319 315 317 317 315 318
295 300 301 303 303 303 308 314 314 314 312 313 315 315 319 321 322 322 321 321 320 320 320 321 318 323 322 322 321 320 321 318 316 318 321 321 320 318 318 321 316 318 313 316
295 300 301 303 303 303 309 314 316 317 316 315 314 315 317 321 322 322 322 321 321 320 320 319 320 323 323 322 320 319 322 321 317 317 319 321 321 320 318 318 314 315 315 318
299 299 301 303 303 303 309 314 314 318 320 318 317 316 318 321 323 322 321 320 320 320 319 320 320 324 322 323 320 321 319 319 320 320 322 321 321 321 320 317 318 316 316 318
298 299 300 302 302 303 308 314 315 319 318 318 318 317 320 321 321 322 321 322 319 318 320 321 321 324 324 322 321 320 320 321 322 322 321 320 320 319 319 319 319 317 316 316
297 297 299 301 302 304 308 310 315 318 319 318 318 317 321 321 321 321 320 321 321 320 323 323 324 325 324 323 321 320 320 316 315 320 315 315 313 316 318 318 318 318 315 314
296 297 298 301 302 304 307 309 315 319 319 319 318 319 322 321 321 323 321 321 320 324 323 322 322 320 323 323 324 323 318 318 312 314 312 310 315 317 315 317 316 314 314 314
296 297 298 302 303 305 305 310 313 319 313 319 318 320 321 323 322 321 324 326 324 323 322 319 319 314 313 320 320 322 321 313 316 312 314 315 315 315 317 315 315 314 313 313
298 299 300 302 303 304 304 310 315 317 320 320 319 320 322 322 319 323 324 325 323 324 320 313 319 318 318 319 318 317 316 313 310 312 314 310 314 315 316 315 313 315 315 314
299 300 301 302 302 304 305 306 309 311 322 321 320 320 322 323 324 321 324 323 324 326 310 316 313 316 320 320 318 314 311 310 311 308 308 312 317 315 315 311 313 316 316 315
300 301 302 301 301 303 305 306 309 314 320 321 322 320 321 321 324 319 323 321 321 317 317 315 314 314 314 316 320 316 314 314 311 314 314 316 315 314 311 315 315 315 314 314
300 301 301 301 302 304 304 306 310 312 312 321 323 321 321 321 324 324 322 320 323 324 318 316 312 312 311 314 314 319 317 317 314 315 313 315 314 315 316 315 314 315 315 316
300 300 301 301 303 304 305 307 309 311 315 317 322 322 321 323 323 322 323 325 323 325 324 318 314 315 307 315 313 319 319 318 314 313 315 315 314 314 315 315 316 317 317 317
301 301 301 302 304 305 306 306 308 313 316 315 322 322 319 325 325 322 323 324 325 325 322 317 311 315 321 311 315 313 317 315 316 315 315 317 317 317 317 317 317 315 316 314
300 301 302 301 304 307 306 305 308 312 314 318 322 321 320 319 323 324 325 325 325 325 316 306 313 317 315 311 310 310 317 315 310 308 317 315 314 314 316 315 312 309 311 309
302 302 302 304 305 305 306 309 312 310 309 320 315 320 321 318 318 318 321 324 324 324 322 319 320 320 316 309 308 316 316 317 318 317 317 314 311 311 311 311 308 307 308 307
302 302 304 305 308 309 312 316 318 320 320 321 313 311 321 321 322 322 323 323 325 324 324 323 317 318 318 305 310 314 315 314 314 315 313 310 310 306 308 308 307 306 304 302
305 305 307 310 311 312 311 315 318 319 319 319 310 313 317 322 322 321 323 323 321 320 318 321 314 318 317 311 313 313 313 312 311 312 314 309 306 306 305 304 302 301 300 299
308 310 310 310 309 312 313 315 316 316 316 313 312 313 316 320 316 319 321 322 309 316 305 310 312 303 313 314 311 311 313 312 309 308 307 306 305 303 301 300 299 299 299 299
312 312 314 315 315 314 314 314 314 313 313 312 307 314 313 315 312 312 311 314 307 307 306 315 309 304 309 310 310 310 311 309 308 306 303 303 301 300 300 299 299 299 298 298
315 315 314 314 314 313 312 312 311 312 306 311 311 313 311 315 310 309 311 307 306 311 309 307 304 306 307 308 308 308 308 308 307 306 304 303 301 299 299 298 298 297 294 292
315 314 312 313 312 310 307 306 306 308 309 307 308 311 312 313 313 306 310 307 305 311 309 310 311 306 306 306 306 305 306 305 304 304 301 300 299 299 298 296 293 292 292 292
314 314 310 310 306 308 306 308 307 307 304 306 308 306 310 310 311 308 308 314 310 309 309 310 305 304 305 305 304 303 302 301 300 300 299 299 298 296 293 292 292 292 292 291
309 306 304 305 306 302 302 302 302 301 303 307 307 307 306 308 305 304 309 305 306 311 310 309 303 303 304 303 302 302 299 299 299 298 296 293 292 292 292 292 292 291 291 290
303 302 303 301 298 299 299 299 301 301 304 307 308 307 307 303 305 304 305 307 309 308 307 303 302 302 303 301 300 298 297 296 294 292 293 293 293 292 291 291 291 290 289 288
299 298 300 300 301 300 299 300 301 303 304 306 307 304 306 305 305 308 308 309 307 303 299 300 301 301 301 300 297 297 297 296 293 293 293 293 293 292 291 290 289 288 287 287
298 298 298 298 298 297 298 299 301 302 302 302 302 305 303 301 306 304 302 302 300 298 298 300 300 301 300 299 298 297 298 297 294 293 293 293 293 290 289 288 286 286 285 284

GFSNW_850_thetae_018.txt.gz
Theta_e
298 299 299 296 299 301 303 307 312 312 312 312 313 317 317 315 318 320 322 321 320 316 316 317 317 317 318 321 319 319 319 319 317 321 319 318 319 317 315 314 316 314 313 317
298 298 299 296 299 301 303 308 311 313 314 313 311 314 316 315 317 320 321 320 319 319 318 318 318 319 321 321 320 319 318 318 315 318 318 319 318 316 317 316 311 316 313 315
298 298 298 296 299 301 304 309 311 312 313 313 310 313 316 316 315 318 320 322 320 319 318 319 320 323 322 321 320 320 319 316 315 316 317 318 320 320 317 317 313 314 314 316
297 297 297 296 298 301 304 309 312 312 312 313 312 312 314 315 315 319 320 320 321 319 318 319 319 322 321 321 318 319 317 318 317 317 320 320 319 320 319 316 315 315 315 315
296 295 296 296 298 302 304 309 314 313 314 312 312 312 313 314 314 317 319 321 320 317 317 317 320 322 320 320 320 318 317 317 320 319 317 318 319 318 317 317 318 316 315 315
295 294 295 296 300 302 304 306 312 315 313 314 314 315 313 313 313 316 316 319 320 318 317 319 320 322 321 320 319 318 317 314 313 317 313 314 314 314 316 317 316 317 315 314
294 294 294 296 299 302 304 306 310 315 315 316 316 315 314 314 315 315 319 318 318 320 322 322 322 321 320 322 321 320 315 314 309 312 310 313 316 314 315 314 313 312 312 311
294 294 297 299 300 301 304 306 309 314 308 316 317 316 316 315 316 318 317 320 320 322 321 316 316 312 314 319 319 320 320 311 313 311 312 314 315 314 312 313 314 313 311 311
295 297 299 299 299 300 304 307 308 311 313 316 317 316 316 317 318 318 323 322 323 322 313 310 316 314 315 317 317 314 313 311 312 311 312 311 312 314 315 312 313 314 313 313
296 297 298 298 299 300 302 304 305 307 313 318 318 316 316 315 319 319 322 323 323 323 308 310 311 315 316 316 315 312 309 308 308 303 306 309 311 314 313 309 309 314 314 314
296 296 297 297 298 301 303 303 304 306 311 316 319 317 316 318 320 318 321 321 320 311 314 314 311 309 313 314 316 314 312 311 307 312 309 312 314 313 311 310 314 314 314 314
296 296 297 298 299 302 303 305 305 306 308 312 316 320 318 318 320 322 322 321 321 321 316 311 309 310 307 311 315 316 314 312 311 312 311 313 313 315 315 315 314 314 315 316
297 297 298 299 302 302 303 304 305 305 307 311 316 321 322 319 320 322 321 320 322 321 321 312 312 312 305 310 309 314 316 316 313 313 314 315 313 315 314 314 315 316 316 316
300 299 300 302 302 302 303 305 307 309 312 312 317 321 323 323 321 323 322 320 320 325 321 310 306 310 312 306 312 310 314 314 314 312 315 316 316 315 316 315 315 314 314 314
300 301 301 301 301 301 302 303 305 309 310 312 313 319 322 324 324 323 322 321 321 322 314 305 308 309 312 303 306 308 314 313 310 310 314 313 314 312 313 314 312 311 312 308
300 300 300 301 302 303 303 303 306 306 308 311 311 317 321 324 322 321 323 325 323 321 319 310 318 319 313 306 306 314 316 316 315 316 315 314 311 310 310 312 308 308 308 306
300 301 301 302 302 304 305 307 312 309 307 310 312 312 320 323 323 323 323 323 324 321 320 317 314 316 313 301 309 313 314 316 316 316 314 308 309 306 307 308 306 306 304 302
300 301 302 303 304 306 307 310 314 313 311 312 311 312 315 320 320 320 323 321 320 318 317 318 308 316 308 309 312 312 313 313 312 312 313 312 307 306 305 304 303 301 299 299
301 302 304 305 307 308 308 312 310 311 314 311 309 313 315 316 315 318 319 318 310 313 306 308 310 306 309 312 311 310 310 312 306 309 309 306 306 303 301 301 300 300 298 298
302 304 307 309 309 308 307 307 313 312 313 312 307 312 312 314 311 308 308 310 306 306 305 312 306 301 308 310 312 311 310 309 308 305 303 303 301 300 299 299 299 299 298 298
306 311 312 310 311 307 312 310 309 310 305 308 310 311 311 314 309 307 309 306 304 305 305 306 308 305 305 307 310 309 309 308 308 308 305 304 304 301 300 299 298 298 296 294
312 312 309 310 311 308 306 304 305 306 308 306 307 310 313 313 312 308 307 307 304 312 306 304 305 304 305 306 307 306 306 306 306 305 303 302 300 300 299 298 297 294 292 291
311 311 310 308 304 306 304 307 306 306 302 305 308 306 310 310 311 305 305 309 309 304 306 308 303 305 304 304 305 304 305 305 304 302 301 300 299 298 297 293 292 292 291 291
308 304 303 304 304 301 301 302 302 301 302 306 308 306 305 307 305 303 311 305 305 309 308 307 303 304 303 302 302 303 302 302 300 300 299 299 297 294 292 292 291 291 290 288
301 301 301 300 298 299 299 300 300 302 305 307 306 305 306 303 305 303 305 307 309 307 307 302 302 303 302 300 301 301 300 299 299 298 296 294 292 292 292 292 291 290 289 288
299 298 301 299 300 299 298 299 300 301 306 306 305 303 304 304 305 306 306 307 306 303 299 300 302 301 300 300 299 298 297 295 295 293 292 292 292 291 291 290 289 288 287 287
297 297 297 298 298 298 298 299 300 302 302 302 299 303 303 301 303 302 300 301 299 298 299 300 300 299 298 298 297 297 296 295 293 293 292 292 291 290 289 289 287 287 286 286

GFSNW_850_thetae_021.txt.gz
Theta_e
298 302 302 301 299 300 302 304 308 309 308 314 313 314 315 314 315 316 320 321 321 318 315 315 315 315 315 316 316 316 316 315 314 317 317 317 317 317 314 313 315 312 312 315
298 302 301 301 299 301 302 304 308 309 309 315 314 312 314 315 314 316 317 320 319 317 315 315 315 315 316 318 315 316 317 316 315 317 317 317 319 316 316 314 310 315 313 314
298 301 300 300 299 299 302 304 309 310 311 312 312 313 314 315 315 315 316 319 320 320 317 317 317 319 321 320 318 317 316 314 315 317 317 317 319 318 316 315 313 313 312 314
298 299 300 299 299 298 301 305 308 310 311 312 311 312 312 315 316 315 314 315 319 320 318 318 318 321 320 320 317 317 317 317 314 314 315 318 318 318 315 315 314 314 315 314
298 298 298 298 298 297 301 304 310 310 310 311 311 312 312 314 315 315 315 314 318 316 319 316 317 320 319 319 319 317 315 315 316 318 316 316 318 316 315 316 316 314 314 313
298 297 297 297 297 298 300 303 308 311 310 310 311 311 312 312 314 314 314 316 318 318 317 318 316 319 319 318 317 315 315 312 312 315 313 314 313 313 315 315 315 315 315 313
297 298 298 298 298 297 299 303 306 311 310 311 311 311 311 312 313 313 313 312 314 318 320 319 320 319 319 320 319 315 312 311 308 310 310 313 314 314 313 313 312 311 311 311
296 297 298 297 297 296 298 304 305 310 309 310 312 311 311 312 311 312 312 314 313 315 320 315 317 311 316 317 315 319 314 309 310 313 312 313 315 312 312 313 314 312 311 311
297 297 297 296 296 296 297 301 304 307 311 312 313 312 312 313 312 311 313 313 314 318 311 309 315 316 317 317 317 312 310 308 313 308 314 314 313 312 313 311 312 312 311 311
296 296 295 295 296 296 297 302 305 306 308 313 314 314 313 313 312 312 315 321 320 320 306 307 311 312 315 315 315 312 310 307 311 304 308 309 309 312 312 312 311 313 313 313
295 295 294 294 294 297 298 300 305 306 306 308 313 316 316 314 314 314 315 321 318 308 314 312 309 309 312 311 313 312 314 312 308 305 306 313 311 312 310 309 312 314 314 314
295 295 294 295 297 297 300 301 304 305 307 307 310 314 315 315 315 315 319 318 319 318 315 311 307 308 304 311 314 314 313 312 312 311 311 310 313 312 313 315 315 314 314 314
296 298 298 298 299 299 300 301 303 304 304 305 310 317 317 318 316 314 320 319 321 320 319 312 309 312 305 311 309 313 314 313 312 311 313 313 313 315 314 314 314 314 314 315
296 296 297 297 298 298 299 302 304 304 306 309 314 318 319 321 319 317 316 321 322 321 320 311 306 311 309 305 311 309 312 313 312 311 314 314 314 314 314 313 314 315 315 314
296 296 296 297 298 299 300 300 304 307 305 310 312 315 319 322 320 317 319 321 321 319 313 307 312 308 311 300 305 305 312 312 310 310 314 312 313 313 313 314 314 314 314 310
296 296 297 298 300 301 302 303 303 303 307 307 309 313 317 321 322 318 319 321 321 320 315 309 315 317 313 309 307 312 315 315 316 313 315 314 313 311 311 312 311 310 309 308
298 298 299 301 302 301 302 303 305 303 305 307 309 309 318 320 322 322 322 321 321 320 318 311 312 314 311 299 309 313 315 316 315 315 314 308 309 308 308 309 307 306 305 303
301 300 300 302 301 302 303 307 311 309 306 308 308 309 313 318 318 318 319 320 317 316 316 315 305 311 304 309 310 311 312 313 311 311 313 312 309 307 305 305 304 303 301 300
301 301 301 302 302 303 304 306 308 310 310 309 306 309 314 316 312 315 315 317 310 312 308 308 314 307 311 309 310 309 310 312 307 308 309 307 307 304 302 302 301 301 298 298
302 302 303 304 304 304 304 308 307 309 310 312 306 311 311 314 310 308 307 308 306 311 307 309 307 307 306 308 310 310 310 310 309 305 301 302 301 301 300 300 300 300 298 297
302 304 307 307 306 307 306 302 306 308 305 307 308 309 310 314 310 308 307 307 302 307 308 308 308 307 304 307 309 310 310 310 310 310 308 306 306 302 300 299 299 298 297 296
307 309 307 305 306 304 303 303 304 305 307 305 306 309 311 311 312 306 306 307 303 309 305 304 310 303 304 305 307 307 307 307 307 307 305 304 303 302 300 298 297 297 295 292
310 309 306 304 301 305 306 308 306 306 302 304 307 305 309 310 310 303 303 305 303 304 302 306 302 304 303 303 304 304 304 305 305 304 303 302 301 299 299 297 296 293 291 291
307 305 302 303 302 301 301 302 302 300 302 305 307 304 304 306 304 303 310 304 305 307 307 305 303 302 302 302 304 305 303 303 303 301 300 299 298 297 296 293 292 291 290 289
301 300 301 300 299 299 299 300 300 301 304 307 306 305 305 303 304 303 305 308 308 306 302 302 302 301 301 301 301 303 301 300 300 299 298 297 296 293 292 291 291 290 289 288
299 297 299 298 299 299 298 299 300 302 304 305 305 302 304 304 304 306 304 307 305 302 299 299 301 301 301 301 300 300 300 299 298 298 296 294 292 292 291 290 289 288 287 287
297 297 296 297 298 298 297 298 299 302 303 302 296 302 302 301 301 301 299 298 297 297 298 299 299 300 300 299 299 298 298 296 295 294 292 292 292 291 290 288 286 286 286 285

GFSNW_850_thetae_024.txt.gz
Theta_e
303 301 299 297 300 302 301 304 303 305 307 312 312 312 313 313 315 315 318 318 321 321 314 314 314 314 314 314 313 314 315 313 312 316 316 316 315 315 313 314 315 311 310 313
302 302 300 297 299 302 301 303 305 306 309 310 312 311 312 313 314 314 317 318 319 317 316 315 314 313 314 314 313 314 315 313 312 313 314 316 317 315 314 311 309 314 312 314
302 302 300 298 298 301 301 303 304 308 308 308 309 311 312 313 314 314 315 316 318 319 318 314 314 314 319 316 314 315 315 313 312 314 313 314 317 315 314 314 312 313 312 314
303 302 300 298 300 301 301 302 304 308 308 308 309 310 311 312 314 314 314 314 317 318 320 317 318 319 319 317 317 315 314 314 313 312 314 316 316 317 314 314 314 315 315 312
303 301 300 300 300 300 301 302 305 308 307 307 309 311 311 312 313 315 315 314 315 316 318 316 317 319 318 318 315 315 313 315 313 317 316 316 317 315 314 313 314 313 312 312
303 301 300 300 300 299 301 301 304 308 307 308 308 310 311 312 312 313 314 313 313 315 315 315 315 316 316 316 316 314 312 311 312 316 312 314 313 313 314 314 313 314 314 312
302 300 300 301 300 299 300 300 303 307 306 309 308 308 310 312 312 313 313 314 313 314 315 318 317 316 317 317 316 313 309 310 307 309 309 313 314 312 313 312 311 311 311 310
301 300 299 300 299 299 299 300 302 306 306 308 310 309 309 310 311 312 313 313 313 313 317 316 318 312 316 315 313 314 311 308 310 312 312 312 315 312 312 312 312 309 309 310
301 300 299 299 299 299 298 299 301 304 308 308 309 310 309 309 309 310 311 311 311 312 313 310 317 319 317 316 316 311 310 307 311 307 312 313 312 313 311 310 311 309 311 310
300 300 299 299 298 298 298 299 302 303 304 309 310 310 310 309 309 309 310 311 314 314 304 310 311 315 315 316 317 314 310 306 310 303 308 311 310 311 311 312 312 311 313 313
300 299 298 298 298 298 297 298 299 302 304 305 309 311 311 310 310 309 311 313 313 308 312 312 311 308 311 311 313 314 316 313 308 305 307 317 310 311 311 310 310 312 314 314
299 298 298 298 298 298 298 297 297 303 303 307 308 311 312 310 311 311 313 313 315 315 314 309 306 310 303 310 313 312 316 313 312 312 313 311 311 311 312 312 312 312 315 313
297 297 297 297 297 298 297 296 298 299 304 304 305 308 314 314 313 312 312 314 318 318 318 310 309 310 305 313 310 312 311 309 310 311 311 309 313 313 313 313 313 313 314 314
297 297 297 296 296 296 296 296 298 302 305 305 308 312 315 317 316 315 314 316 315 320 317 310 306 309 309 308 311 309 310 311 311 309 313 313 313 313 313 313 313 314 313 313
295 296 295 294 294 296 297 298 300 302 305 306 307 308 313 318 319 318 316 314 317 319 313 305 309 307 309 303 307 304 310 311 311 312 313 313 312 314 313 313 313 313 313 311
296 296 295 296 297 298 299 300 302 303 303 304 306 311 313 315 319 319 319 316 316 317 315 309 313 315 314 311 311 312 315 314 316 313 315 314 313 313 312 312 312 312 313 311
297 297 298 299 298 298 300 301 303 304 304 304 305 306 313 316 318 319 318 319 319 319 316 311 311 312 312 307 315 313 315 314 314 315 314 309 310 310 310 311 310 309 308 306
296 296 297 298 298 300 303 303 303 304 303 303 306 309 310 314 315 314 318 318 318 315 313 311 307 309 304 308 309 311 312 312 311 311 313 314 311 308 308 308 307 306 304 303
296 297 298 299 301 302 302 302 305 306 304 304 306 309 309 312 311 312 314 316 308 312 307 306 310 307 312 310 309 309 307 310 309 309 311 309 309 306 305 305 304 305 302 302
299 298 300 301 301 301 302 307 303 306 309 310 305 309 310 312 311 309 307 308 308 312 307 309 307 308 308 309 310 311 309 309 308 306 301 302 301 304 303 304 303 304 301 299
301 303 305 302 303 303 303 303 303 305 305 307 308 308 309 312 309 308 307 305 303 311 309 312 310 309 305 307 308 310 312 309 309 311 309 306 307 304 302 300 301 300 298 297
304 305 304 305 304 303 303 303 302 305 307 304 306 309 310 311 311 308 305 306 304 312 304 309 311 304 302 305 306 307 308 307 308 308 307 305 304 303 302 300 299 298 297 296
307 306 306 305 300 304 304 308 306 306 301 303 306 306 308 309 309 303 306 308 309 304 308 308 303 302 301 303 304 304 305 305 305 304 304 304 302 301 300 297 295 295 293 292
304 302 301 302 302 301 300 301 302 300 301 302 305 304 303 305 304 302 310 304 305 307 306 305 303 301 301 301 302 303 303 303 303 302 301 301 300 298 297 296 294 294 292 290
299 300 301 300 299 298 298 299 300 301 302 304 304 304 305 303 305 303 306 309 307 305 304 301 300 300 301 300 301 301 301 301 300 300 299 297 296 295 293 293 292 291 290 288
297 296 298 298 299 298 297 297 299 301 303 304 304 303 305 304 303 303 301 305 302 300 298 297 299 299 299 298 298 298 299 299 298 297 296 295 295 294 292 291 289 288 287 287
297 296 293 295 295 295 294 294 295 301 302 301 300 300 298 299 299 298 296 297 297 296 296 296 297 298 297 298 298 298 297 297 296 295 294 293 292 291 290 288 286 286 285 286

GFSNW_850_thetae_027.txt.gz
Theta_e
303 303 303 303 300 298 300 301 302 302 302 306 309 310 311 312 313 315 316 318 321 321 315 314 315 316 316 313 313 316 316 317 318 319 316 316 317 318 317 323 319 316 317 318
303 303 303 302 300 298 302 301 302 303 302 306 309 310 311 311 313 314 316 317 319 318 317 315 315 314 313 312 314 317 316 316 318 317 316 316 319 316 315 314 315 318 324 321
302 303 303 302 300 299 301 302 303 305 304 306 308 309 311 312 312 313 314 316 317 318 318 315 314 315 315 313 313 314 315 315 318 318 318 316 318 317 315 318 320 320 319 319
302 303 303 301 300 299 301 301 304 306 306 306 308 308 309 311 312 313 313 315 315 319 318 316 316 316 318 316 315 314 317 317 314 314 313 315 317 317 316 317 318 321 320 316
300 304 304 301 300 299 300 301 304 305 306 305 306 308 310 311 312 312 314 314 315 315 319 318 317 318 318 318 316 316 314 317 314 315 314 315 317 317 316 316 314 315 315 315
298 302 302 301 300 299 300 301 303 305 306 307 307 306 309 311 311 312 312 313 313 315 315 316 315 315 315 317 318 316 316 315 316 318 313 315 318 316 316 316 315 317 318 318
298 300 302 301 300 299 300 301 302 305 307 308 306 306 308 309 311 312 311 313 314 313 312 314 316 315 316 315 315 314 313 314 313 317 313 321 318 313 315 317 315 314 313 313
299 299 301 301 300 298 300 301 302 304 306 307 308 307 306 309 310 312 312 313 313 313 312 316 316 316 317 315 313 315 312 313 313 319 318 316 314 314 315 316 317 313 314 312
299 299 301 300 300 299 299 301 302 304 306 306 307 307 307 308 311 311 311 312 313 312 311 312 319 321 319 319 317 312 310 310 319 312 319 321 318 314 311 312 317 312 311 312
300 302 302 300 299 300 300 300 302 303 304 305 307 309 308 308 309 311 310 311 312 311 309 313 314 319 317 320 320 318 315 313 317 312 320 317 314 311 311 318 320 312 311 312
300 302 301 300 300 300 300 300 300 302 303 304 305 308 309 308 309 309 309 311 311 310 312 314 315 314 316 316 316 317 320 319 319 313 318 322 311 309 316 317 311 312 311 312
302 301 301 302 300 300 299 299 300 300 302 303 305 306 309 308 308 308 309 309 310 310 313 311 310 313 311 314 319 311 320 318 320 319 322 316 310 314 313 313 312 311 312 312
301 300 300 301 300 300 299 298 298 299 300 300 304 305 310 310 309 309 311 311 313 312 312 312 313 314 311 316 314 314 312 310 317 316 315 313 312 312 312 312 312 312 313 314
300 300 300 300 299 299 299 298 298 298 301 304 305 307 309 311 311 310 309 312 312 317 316 311 310 315 311 313 315 315 313 312 313 313 312 313 313 313 313 313 312 312 313 314
300 300 300 299 299 298 298 297 297 297 301 304 306 305 308 311 314 313 311 310 314 314 314 308 313 308 311 306 309 312 311 313 315 317 314 315 314 315 313 313 313 312 313 312
299 298 298 298 298 299 297 296 296 297 298 301 304 307 310 315 316 315 315 313 312 315 315 310 311 313 313 314 315 313 314 314 314 314 314 313 313 313 313 313 313 312 312 312
297 297 297 297 297 297 297 299 300 297 300 303 304 306 310 314 317 317 317 316 315 314 314 312 313 313 312 309 316 314 314 314 314 314 313 311 311 311 311 312 312 311 310 309
296 295 295 295 295 296 299 303 301 301 300 304 304 305 308 313 314 313 316 316 316 315 314 310 311 309 305 313 311 313 313 314 313 312 313 312 312 311 310 310 310 309 308 306
296 295 295 296 298 298 300 303 302 303 303 302 302 307 310 312 311 311 310 313 311 311 309 309 311 309 314 312 310 310 309 310 310 310 309 311 310 309 307 307 306 308 303 302
298 298 298 299 299 302 303 303 304 305 304 305 305 308 310 311 308 308 308 308 309 314 311 309 310 313 308 308 309 310 310 310 310 308 303 302 303 303 302 302 303 305 302 301
298 299 301 300 301 302 302 302 302 302 303 306 307 308 309 311 309 308 306 305 305 314 313 313 312 313 305 306 308 308 308 309 310 309 309 307 304 304 303 301 301 301 300 299
301 302 302 302 302 303 302 303 301 301 307 304 306 308 310 310 311 306 305 307 304 314 305 312 313 305 301 303 306 306 306 307 309 309 314 308 304 302 303 301 300 299 298 297
303 303 304 304 300 304 304 305 306 305 301 303 306 305 308 308 308 303 304 308 309 303 309 310 305 302 300 301 302 304 306 303 305 306 305 303 301 300 301 299 297 297 296 294
303 301 301 301 302 300 299 301 301 299 300 302 304 303 304 305 304 302 310 304 305 308 308 306 302 299 299 300 300 302 300 301 302 300 300 299 298 297 297 297 295 295 293 292
299 299 301 300 299 298 298 298 299 299 301 303 304 304 305 303 304 302 305 308 306 303 302 299 297 298 299 298 299 299 298 297 298 298 298 297 297 296 295 294 294 293 292 291
296 293 294 295 296 294 293 293 295 298 302 303 303 303 303 302 300 300 299 302 299 297 297 295 296 296 296 296 296 296 297 297 296 296 295 295 294 294 292 292 291 291 290 287
295 293 290 290 291 291 291 291 292 299 301 300 298 294 295 296 295 293 292 293 292 289 293 293 293 293 293 294 294 294 295 295 294 294 294 293 292 292 291 289 287 286 285 284

GFSNW_850_thetae_030.txt.gz
Theta_e
305 304 304 303 303 303 301 300 303 303 303 304 306 309 311 310 311 315 318 319 319 320 318 318 317 317 317 317 319 319 319 319 320 319 320 321 321 321 322 323 322 322 324 321
304 303 304 304 303 303 301 301 302 303 303 306 307 308 310 310 311 313 318 319 320 322 321 320 318 317 317 316 318 319 319 319 320 319 319 320 321 321 322 322 321 321 326 321
301 304 304 304 303 302 301 301 303 304 303 304 307 308 307 310 310 312 315 318 319 321 322 320 319 317 316 315 318 317 318 319 319 320 318 319 321 320 321 321 323 321 321 319
298 302 304 304 303 302 300 301 304 304 305 307 307 310 310 310 310 311 313 316 318 320 321 320 319 317 320 316 315 317 320 319 319 318 318 318 318 318 319 320 320 320 320 320
298 298 304 302 303 301 300 301 305 305 306 305 305 308 309 310 309 309 313 315 317 318 320 318 320 319 318 321 319 319 319 319 320 320 318 318 318 318 318 318 318 318 320 320
299 298 299 304 302 300 300 301 303 305 306 307 307 309 309 309 310 310 310 311 313 315 316 315 317 316 316 318 321 320 320 320 320 319 319 319 320 319 319 319 319 319 321 321
300 299 298 304 302 300 300 301 303 305 308 308 307 306 308 308 310 310 310 311 315 314 313 314 314 314 318 319 320 320 321 321 322 321 319 328 320 319 320 319 319 320 320 320
300 299 298 300 301 300 300 301 304 305 309 308 306 306 307 307 308 309 310 314 313 312 314 314 312 314 319 320 321 320 320 321 322 327 322 320 319 317 319 321 321 321 320 320
300 300 298 301 301 301 301 301 303 305 307 308 307 307 306 309 310 312 310 311 313 313 316 317 317 315 313 320 321 316 317 318 325 320 323 327 321 320 318 319 321 320 319 319
301 299 298 301 301 300 301 301 301 304 305 306 306 308 308 306 309 312 312 313 313 313 316 320 319 318 314 315 323 321 319 320 324 323 325 322 321 318 316 321 322 321 319 318
301 299 299 300 301 300 300 301 301 304 304 305 305 307 307 307 308 313 311 313 313 314 315 317 319 321 320 318 318 322 322 324 324 323 327 326 317 315 321 322 320 319 318 318
300 299 300 302 300 299 300 300 301 302 304 305 303 304 307 308 307 309 312 311 311 312 314 316 317 321 318 319 322 317 322 323 324 323 323 322 316 320 318 319 319 317 317 316
299 300 300 301 299 300 299 300 301 302 303 303 303 303 306 308 308 309 311 311 311 311 312 317 320 324 320 323 320 320 318 316 321 321 321 320 318 318 316 315 316 315 316 316
300 300 301 300 300 299 300 300 301 302 302 303 303 302 304 306 308 308 310 310 311 314 312 315 319 321 317 322 322 320 319 316 320 321 321 316 317 317 317 315 313 313 315 314
301 302 300 300 299 299 299 299 299 301 302 304 303 302 303 306 309 310 310 311 313 316 317 317 317 317 317 316 316 321 316 319 321 324 321 320 321 319 317 315 314 313 314 312
301 301 300 301 300 299 299 298 298 298 298 302 304 305 306 309 309 310 311 310 312 314 315 317 316 315 316 321 320 316 316 317 318 319 316 317 316 314 316 314 314 312 312 312
301 300 300 299 299 300 299 299 299 299 298 302 305 306 308 310 311 313 312 312 311 312 314 316 317 317 315 319 321 317 317 317 316 314 314 314 312 314 313 312 311 310 310 309
300 299 299 299 299 298 298 299 298 297 299 301 306 306 307 312 313 313 314 314 314 313 314 315 317 315 314 320 318 318 315 314 314 314 313 313 312 311 310 310 308 307 306 305
299 298 298 298 298 298 299 301 301 297 300 304 303 309 311 311 310 311 311 314 313 312 316 317 317 319 320 318 314 316 315 313 314 310 310 310 308 307 305 305 305 305 303 302
296 296 297 298 297 297 299 299 300 301 301 304 307 309 312 313 309 309 309 308 310 314 316 313 317 319 313 309 309 310 309 309 310 308 306 305 306 304 303 303 302 302 300 299
296 299 300 300 298 302 302 302 303 303 305 306 306 308 310 311 313 312 308 309 308 320 318 318 318 319 311 305 306 309 309 307 307 308 309 308 309 305 303 301 301 299 298 297
300 301 300 301 303 303 303 303 301 303 307 307 308 308 308 308 310 310 308 311 310 316 308 316 317 305 302 301 303 304 305 305 306 306 305 305 303 301 302 302 301 297 296 294
302 302 303 304 301 305 305 307 306 307 303 303 306 308 310 308 308 307 309 313 313 305 310 308 303 299 299 299 300 301 302 303 304 305 305 303 302 300 299 297 295 296 294 294
302 302 303 303 304 302 303 303 304 300 300 301 304 304 305 305 304 303 311 305 306 312 310 304 300 297 296 296 297 298 296 296 296 296 297 296 298 295 295 296 296 295 294 293
297 297 299 300 297 295 295 295 298 298 299 301 304 304 304 303 305 302 305 309 305 302 300 298 295 294 294 294 293 293 293 293 293 293 294 294 294 294 293 294 294 293 292 292
293 290 292 292 295 293 291 291 294 296 300 301 302 303 304 302 302 301 299 301 298 296 293 292 293 292 292 291 291 291 292 292 292 293 293 293 293 293 292 292 291 291 290 290
293 292 288 288 289 289 289 289 290 295 298 300 299 298 297 298 297 295 293 293 292 290 288 289 290 290 290 290 290 290 291 291 291 292 292 291 290 291 290 289 287 287 286 286

GFSNW_850_thetae_033.txt.gz
Theta_e
304 304 305 305 304 304 303 303 304 303 303 306 305 307 310 309 312 310 313 316 318 317 318 321 318 319 320 318 319 319 320 321 323 322 321 320 322 322 323 326 325 326 327 325
304 304 305 305 305 304 303 302 303 303 304 307 307 308 307 308 309 313 312 314 318 320 319 319 321 319 318 318 319 320 321 321 323 322 321 321 321 323 324 323 324 325 330 323
303 303 303 304 305 304 303 302 304 304 305 306 308 308 308 308 306 310 312 312 315 317 320 320 320 320 320 318 318 318 320 320 320 324 321 320 321 321 322 323 328 325 325 322
299 302 301 302 304 305 303 300 304 305 306 307 309 309 308 308 308 307 310 312 315 317 316 318 319 320 320 319 317 319 321 322 321 320 320 319 319 320 320 322 322 324 323 322
300 299 298 299 304 305 303 300 304 305 307 306 308 308 308 308 308 309 311 313 314 317 319 319 321 320 320 319 319 319 321 322 320 319 319 318 318 319 319 320 321 321 321 321
299 300 299 297 304 304 302 300 303 305 307 307 309 310 308 307 309 309 310 311 314 315 314 318 318 317 317 319 320 320 320 323 322 322 319 319 322 319 319 319 319 320 321 320
300 300 300 299 299 302 301 300 303 307 308 308 309 308 308 308 308 309 309 310 313 314 315 315 314 314 314 316 318 319 322 322 324 324 325 326 321 320 320 320 320 320 319 319
300 300 300 300 298 304 301 301 304 306 310 309 308 307 308 307 306 309 310 309 310 311 314 315 314 315 314 314 313 317 321 324 325 327 323 320 319 320 321 320 320 320 320 320
300 300 301 300 298 301 301 302 303 306 309 309 307 308 307 309 310 310 310 310 313 314 316 315 313 312 311 314 317 318 320 324 326 325 324 325 321 321 320 320 323 320 321 321
301 300 300 300 299 299 301 302 303 305 306 307 307 308 308 306 309 311 310 313 315 314 318 320 315 315 312 314 320 321 322 323 327 327 325 322 320 321 321 324 323 321 321 321
301 300 301 299 299 301 301 302 304 305 306 306 307 308 307 306 308 313 310 313 314 316 317 315 313 318 316 316 314 320 323 324 326 326 327 328 321 321 321 322 320 322 322 320
301 301 300 299 299 300 300 303 304 305 306 306 307 307 308 308 307 309 311 312 313 313 314 316 314 321 323 317 319 317 319 323 324 323 324 322 321 320 320 320 321 323 321 319
300 300 300 300 300 299 301 303 303 304 304 306 306 306 307 307 309 310 312 312 312 312 312 313 318 320 321 320 321 319 320 318 322 323 323 322 322 321 321 321 321 321 320 319
300 299 299 301 300 300 302 303 303 303 304 306 306 305 305 306 308 310 311 312 311 312 312 315 319 319 314 320 319 320 318 320 320 321 320 321 321 321 321 321 320 319 318 319
299 300 302 300 299 300 301 302 302 303 304 306 304 305 304 305 307 309 311 312 313 312 315 318 318 315 315 319 320 321 317 318 322 324 320 322 322 321 321 321 319 318 317 318
301 302 301 300 299 300 301 300 302 302 304 304 307 305 305 304 306 307 311 311 313 312 313 317 315 311 313 321 319 313 314 317 318 320 319 320 320 319 318 320 319 318 317 317
301 300 300 300 300 300 301 302 302 302 302 303 304 306 307 306 307 308 310 311 311 313 314 316 316 315 316 320 321 317 316 314 315 318 318 317 317 318 316 317 318 316 316 316
300 299 299 299 300 300 301 299 301 301 302 301 302 304 304 308 309 310 310 311 310 312 313 313 317 316 318 319 315 314 314 316 317 318 316 315 314 314 313 314 314 313 314 314
299 299 299 300 300 300 301 300 300 302 302 302 304 306 308 307 309 311 311 312 313 311 315 315 315 319 319 317 317 316 315 316 315 315 312 312 312 312 311 310 310 311 311 310
300 299 300 300 300 299 299 300 301 301 302 303 306 305 306 311 308 308 308 311 312 314 315 313 317 318 312 308 310 311 311 311 311 312 314 312 311 310 309 308 308 308 307 306
300 301 301 300 299 300 302 302 303 303 304 305 306 305 307 309 311 310 308 307 311 316 315 317 317 315 303 301 303 306 308 309 310 309 309 310 311 309 307 306 305 304 304 302
301 301 300 298 298 299 305 304 304 305 306 308 309 309 309 307 310 313 311 309 309 317 310 317 311 301 298 297 298 298 300 303 305 306 306 306 305 305 304 303 301 301 300 299
302 302 302 304 302 305 309 306 305 306 306 305 306 310 310 309 308 310 312 318 313 306 308 305 302 298 296 295 295 295 296 298 299 299 298 299 299 300 300 298 296 296 295 294
301 303 303 305 306 301 299 300 302 299 300 302 304 307 307 304 305 302 311 305 307 311 309 304 298 296 294 293 292 292 292 293 293 293 293 293 293 292 292 292 292 292 291 290
296 296 298 298 296 295 294 295 298 297 298 301 304 304 302 303 305 303 308 310 305 302 300 297 295 293 292 291 291 290 290 290 290 290 290 289 289 289 289 290 291 291 291 291
292 289 292 290 294 294 292 293 295 294 297 300 302 303 306 303 303 301 301 301 298 296 294 291 292 290 290 290 289 289 288 288 288 289 289 290 290 290 289 290 290 290 289 288
292 291 287 288 288 289 290 290 293 293 296 301 301 300 299 301 299 296 295 294 293 291 290 288 287 288 288 288 288 288 288 288 288 288 288 287 288 288 288 286 286 286 286 286

GFSNW_850_thetae_036.txt.gz
Theta_e
302 303 303 304 304 305 304 304 304 304 303 305 305 308 307 308 309 308 310 311 312 312 315 318 322 320 320 319 320 319 320 321 322 321 321 321 321 322 322 325 326 327 332 326
302 302 303 303 304 305 305 304 303 304 304 305 306 306 309 307 308 309 310 312 313 314 317 321 321 322 321 319 321 319 320 320 322 323 322 322 321 321 322 324 326 328 332 326
300 302 305 304 304 305 305 303 304 305 305 305 307 308 310 309 306 308 308 310 312 313 316 318 321 320 320 320 320 319 321 321 321 323 322 323 323 321 321 325 328 327 327 325
300 300 302 304 304 305 305 302 302 305 306 306 308 308 308 308 308 307 308 311 312 313 314 316 318 318 319 320 320 319 322 322 321 321 321 321 321 321 320 321 326 327 326 326
299 300 300 304 306 305 306 299 304 305 306 306 307 308 310 308 309 309 308 310 310 312 313 317 318 320 320 322 321 320 322 322 321 321 321 320 320 320 321 320 320 321 322 323
299 299 299 300 303 305 306 301 302 305 306 308 307 308 310 310 310 309 308 309 311 313 313 315 316 318 317 316 321 322 322 323 322 324 322 320 320 320 320 320 321 321 321 323
299 299 299 299 300 302 304 300 303 305 308 309 308 308 309 309 309 310 309 309 310 311 314 316 316 314 315 316 316 317 320 323 322 324 322 323 320 320 319 319 320 320 320 320
302 301 300 300 300 299 301 300 303 305 308 309 308 307 309 308 308 310 310 309 309 309 314 316 317 316 315 315 314 314 315 320 325 325 324 321 319 320 320 321 321 320 320 321
300 301 300 301 300 299 299 299 302 305 307 309 307 308 308 309 309 310 310 308 308 310 313 316 316 316 314 314 312 312 314 320 325 325 325 325 322 321 320 320 322 321 321 321
300 300 300 301 300 300 300 299 301 305 307 307 307 308 308 307 309 311 311 310 310 310 312 312 316 315 311 314 316 316 313 319 325 324 325 324 321 320 319 322 323 322 321 321
301 300 300 300 300 300 301 300 301 304 306 308 307 308 308 308 308 311 310 311 311 316 314 315 315 318 315 312 313 320 318 321 325 325 324 324 322 320 321 323 322 321 321 322
300 300 300 300 300 301 300 301 302 304 305 307 307 307 308 309 308 309 310 311 312 312 314 316 316 322 321 318 318 316 318 317 323 321 324 323 319 320 321 321 322 321 322 322
300 300 300 300 301 300 300 303 303 303 305 306 307 307 308 308 309 308 311 311 312 313 310 316 318 318 321 322 318 317 317 315 317 316 320 321 322 322 321 321 322 321 321 322
300 301 300 300 300 299 301 303 303 304 305 306 306 306 307 308 308 310 310 311 311 310 313 316 318 319 316 319 317 317 316 317 318 318 316 314 317 318 321 322 321 322 321 320
300 300 300 299 300 301 303 303 303 304 304 306 307 307 306 306 307 309 310 309 312 312 312 317 317 316 318 320 318 318 315 316 318 319 318 320 320 319 320 321 320 322 320 319
301 300 300 300 301 302 303 301 302 303 303 306 308 306 306 305 306 307 309 310 312 312 313 314 313 313 314 321 318 315 313 313 314 317 318 319 318 319 320 319 319 320 320 319
300 300 300 300 300 302 303 304 303 303 303 305 306 307 306 306 306 307 308 310 312 313 313 314 315 315 314 317 317 316 314 315 315 316 317 318 316 318 318 317 317 318 318 318
301 300 300 301 301 301 301 302 303 303 304 304 305 305 305 307 307 308 309 310 311 312 313 314 316 316 316 318 315 315 315 315 314 316 317 317 316 316 315 314 315 316 316 316
300 300 300 300 301 301 302 301 302 302 303 304 303 305 305 304 309 309 310 310 313 311 315 314 315 317 315 308 307 310 312 313 313 313 314 314 314 314 313 312 312 313 315 315
300 300 301 301 301 299 301 300 302 303 303 304 304 304 304 303 305 310 312 310 312 312 314 312 314 312 301 299 300 303 303 307 311 311 312 311 312 314 312 310 310 311 312 311
301 302 300 300 300 302 302 303 303 303 304 304 303 303 304 301 305 308 308 308 311 314 315 314 315 308 299 297 296 297 299 302 305 307 308 308 309 311 309 307 307 307 308 307
301 300 300 300 300 300 303 304 304 305 306 306 307 306 303 300 306 307 306 309 308 314 314 313 304 299 297 295 294 293 295 297 301 303 304 304 305 304 305 303 303 303 302 301
302 303 301 300 301 305 305 304 304 307 301 303 306 304 305 306 306 307 309 308 310 304 307 303 299 296 295 294 292 291 292 293 295 295 297 298 298 299 299 297 296 297 297 296
301 302 302 303 301 299 298 298 300 299 298 298 301 306 304 303 303 303 308 304 304 309 306 299 296 293 292 291 290 290 289 289 290 290 290 291 292 291 291 291 291 292 290 290
295 296 297 296 295 295 294 295 298 296 296 298 302 303 303 304 304 303 307 307 301 299 297 294 292 291 290 289 289 288 288 287 287 287 288 288 288 288 287 288 289 289 288 288
290 289 293 291 294 293 293 293 295 294 296 300 301 303 304 303 302 300 300 299 297 294 292 290 290 289 288 288 287 287 287 286 286 286 286 287 287 287 286 287 287 287 287 286
292 291 289 290 290 291 293 293 293 295 297 301 300 299 300 300 298 295 294 293 292 289 289 287 287 287 286 286 286 286 286 286 285 286 286 285 286 286 286 285 284 285 285 284

GFSNW_850_thetae_039.txt.gz
Theta_e
300 300 301 301 303 304 304 305 305 303 303 304 304 305 306 307 307 307 309 309 309 309 310 311 312 320 320 319 317 318 317 318 318 318 320 319 318 319 319 323 324 324 323 322
300 300 300 301 302 303 305 305 304 304 303 305 304 305 306 306 307 307 308 309 308 309 310 310 320 321 319 319 318 320 317 318 318 319 318 318 319 319 320 320 320 322 321 323
299 300 301 301 302 303 304 304 303 304 304 304 303 304 306 306 306 308 307 308 308 309 310 311 317 319 318 318 318 319 319 318 317 318 318 319 320 320 319 319 320 321 320 322
300 300 301 302 303 303 304 303 301 304 305 304 304 304 305 306 307 307 307 307 307 308 308 309 313 317 318 318 317 319 321 320 317 317 318 320 321 321 320 320 321 323 323 323
300 301 302 301 301 303 304 300 301 304 305 305 305 306 305 305 307 306 308 306 307 308 308 308 310 317 319 319 318 318 320 320 318 319 318 319 319 320 320 319 319 323 322 322
300 300 300 300 300 300 304 305 303 304 305 306 306 305 306 306 306 307 307 307 306 307 308 310 316 316 317 318 316 313 318 318 319 318 318 318 318 319 319 319 319 319 321 321
298 298 299 300 300 300 301 304 302 304 306 306 306 306 305 306 307 307 308 307 307 307 307 312 315 315 316 317 317 315 313 314 318 316 319 321 318 318 318 317 318 318 317 318
299 299 299 299 299 300 300 300 301 304 305 306 306 305 306 305 307 307 308 308 309 309 308 314 313 310 314 314 315 317 314 312 316 319 320 320 320 318 317 317 317 318 317 317
301 300 300 301 300 299 299 301 301 302 304 306 306 306 305 306 306 306 307 308 308 308 307 310 311 313 315 315 314 315 313 310 313 318 321 321 319 318 318 319 317 318 318 317
301 301 301 301 301 300 299 301 301 301 300 304 306 306 306 306 307 307 306 307 308 309 304 308 310 312 313 314 313 313 310 310 312 314 317 317 319 318 319 319 317 319 319 320
301 300 300 301 300 301 300 301 301 301 301 305 306 306 307 306 307 307 307 308 309 307 306 309 308 309 313 313 314 313 313 314 316 317 318 320 316 319 319 316 318 319 319 319
301 301 300 300 300 301 300 301 300 300 302 305 306 306 307 307 307 307 307 308 309 309 308 308 309 306 308 310 311 315 315 313 315 319 317 316 314 316 318 318 320 321 319 319
300 300 300 300 300 300 300 300 300 299 301 303 306 307 306 308 307 308 309 309 310 310 310 309 310 308 306 306 311 315 315 315 315 313 313 315 314 315 316 320 320 320 321 321
301 301 301 300 301 300 300 300 300 300 303 303 303 306 307 308 308 308 308 309 309 310 309 308 308 308 311 307 311 311 315 315 316 315 314 314 315 315 314 315 318 318 320 321
300 300 300 300 300 300 301 300 301 303 305 305 307 306 306 307 306 307 309 310 309 311 310 308 310 310 311 311 311 311 312 314 314 314 315 316 317 316 315 318 318 317 319 320
300 300 300 300 301 301 301 302 300 303 304 306 305 306 307 306 308 309 309 309 309 311 309 307 311 313 313 307 311 313 314 313 314 314 316 316 314 317 318 318 318 318 318 319
301 300 300 300 300 300 302 302 303 303 304 305 301 302 306 306 306 307 308 308 309 309 310 311 310 311 312 303 308 311 310 314 315 315 316 316 317 316 316 316 316 316 317 318
299 299 300 301 302 302 303 303 302 303 304 304 299 300 303 306 307 306 308 308 308 309 307 311 311 311 311 307 306 305 305 308 311 312 313 314 314 314 314 313 313 314 315 316
301 301 301 301 301 302 302 303 303 303 303 301 299 303 302 304 307 307 308 308 305 309 307 309 311 307 304 302 300 301 301 303 305 309 310 312 313 313 312 311 311 312 313 314
301 301 301 300 301 301 302 302 302 302 302 304 299 303 302 303 302 302 302 308 305 305 307 311 307 302 298 296 296 296 296 300 302 305 303 307 309 309 309 308 308 310 309 309
301 300 301 300 301 302 302 302 301 302 300 304 303 303 303 302 302 306 307 301 301 305 307 307 305 299 296 294 294 293 294 296 298 299 300 302 304 305 306 305 305 306 305 306
302 300 300 300 301 301 300 299 301 300 302 302 302 303 303 302 301 305 305 307 304 307 304 303 299 295 294 292 291 290 291 292 294 295 297 298 300 300 301 301 300 299 299 297
303 302 300 301 300 302 298 302 302 303 299 299 302 303 300 301 301 304 303 308 308 303 303 298 294 292 291 290 289 289 289 289 291 291 292 293 293 294 294 293 292 293 293 292
299 300 295 298 296 296 295 296 297 297 297 297 298 300 301 300 302 302 307 302 302 303 299 294 292 290 289 289 288 287 286 287 287 287 288 288 289 288 288 289 289 290 289 288
292 293 294 293 294 293 293 293 296 295 295 296 300 301 300 302 302 301 304 301 297 295 292 291 289 288 287 287 286 286 285 285 285 286 286 286 286 286 286 286 286 287 286 286
289 289 288 290 288 288 293 292 294 294 295 299 299 301 301 299 297 296 296 295 293 290 289 288 287 286 286 286 285 285 285 285 285 285 285 285 286 285 285 286 286 285 285 285
291 289 289 290 290 291 292 291 291 295 297 298 298 295 295 297 295 293 292 289 288 287 285 285 286 285 285 285 285 284 284 284 284 284 284 284 284 284 284 283 283 283 283 282

GFSNW_850_thetae_042.txt.gz
Theta_e
298 298 299 299 300 301 303 304 304 304 303 303 303 304 305 306 306 306 306 308 309 307 308 309 310 314 315 318 318 319 317 314 316 316 316 316 316 318 318 319 323 320 318 321
298 298 299 299 300 300 302 303 302 303 303 303 303 303 304 305 306 306 307 308 308 308 308 310 310 313 319 318 319 319 319 319 316 317 316 316 316 317 318 319 319 321 321 321
298 298 299 299 299 300 301 302 303 303 303 303 303 303 303 304 305 305 305 307 307 307 307 307 309 312 317 317 318 318 319 321 320 318 317 316 318 318 317 318 317 318 319 320
298 298 298 299 299 300 300 302 300 304 305 304 304 304 304 304 304 305 306 307 306 307 307 307 307 310 317 318 317 318 320 321 319 320 319 316 317 318 318 318 318 319 318 320
298 298 299 299 299 300 300 300 302 303 304 304 304 304 304 304 304 305 306 307 306 306 306 306 307 307 309 316 317 316 315 319 315 316 318 318 316 317 318 319 318 318 318 319
299 299 299 300 300 300 302 301 302 304 305 305 305 304 304 304 304 305 305 306 306 305 305 307 309 313 314 314 315 313 315 314 314 315 316 317 316 316 317 319 318 319 319 319
299 300 300 300 300 301 302 302 303 302 305 305 305 304 304 304 305 304 305 306 305 306 306 307 312 314 315 315 316 313 313 312 312 314 315 321 318 316 316 318 317 316 316 316
298 298 298 298 299 300 300 300 301 303 304 304 304 305 305 304 304 305 305 305 305 307 307 310 312 308 311 312 314 315 313 312 313 315 317 318 318 317 317 316 317 316 316 315
299 299 299 298 298 298 300 301 300 300 303 305 305 304 304 305 304 304 305 306 306 306 306 309 308 308 311 313 314 315 310 311 313 313 314 320 316 317 317 317 316 315 316 316
301 301 301 300 299 299 299 301 300 300 299 303 305 304 305 304 304 304 304 305 306 307 304 307 307 307 310 312 312 313 310 309 313 313 314 316 317 315 317 319 317 316 317 317
300 301 301 300 301 299 299 300 300 300 300 302 304 305 305 305 305 304 305 306 307 307 307 307 305 305 309 310 311 311 311 311 311 313 314 317 315 316 319 316 317 320 319 319
301 301 301 301 300 301 299 301 300 300 300 302 303 304 305 306 305 305 306 306 306 308 308 305 304 305 300 307 308 312 312 312 312 313 313 316 315 314 315 318 319 318 318 319
300 300 301 301 300 301 300 300 300 300 300 300 301 302 305 306 306 306 306 307 307 308 308 306 306 306 303 304 307 308 310 311 314 315 314 313 314 315 315 314 315 317 317 319
301 301 301 301 301 300 301 300 300 301 300 301 301 301 306 305 306 307 306 307 307 308 308 307 307 304 307 303 307 306 311 313 314 314 313 313 314 313 315 312 314 315 316 318
301 300 301 301 300 300 301 299 300 301 300 300 302 304 305 306 307 307 308 308 307 308 308 304 305 307 308 306 308 307 311 312 313 312 311 311 311 312 313 314 314 317 315 317
301 300 300 299 300 301 299 301 300 300 301 305 304 304 305 307 307 307 307 308 308 308 308 305 309 310 308 305 308 309 306 306 309 310 312 315 315 314 316 316 316 315 314 315
301 302 300 300 301 301 300 301 301 300 302 304 304 305 306 306 307 307 308 307 307 308 308 309 307 309 309 300 306 305 304 303 308 309 312 314 313 313 314 314 314 314 316 315
300 300 300 300 300 300 301 303 301 300 300 303 301 303 304 305 306 305 307 308 308 308 307 308 308 309 308 305 300 300 300 301 304 306 308 308 311 311 311 312 312 313 313 313
300 300 301 300 300 300 302 302 302 303 303 299 297 299 305 304 305 307 307 308 303 308 306 306 309 302 299 297 297 297 296 297 299 303 306 306 306 306 308 310 310 310 308 308
300 300 301 300 301 301 302 302 302 302 302 302 298 300 300 304 302 301 301 302 303 306 305 308 302 298 295 294 293 293 293 295 297 299 299 301 301 301 302 301 302 302 300 300
300 301 301 301 302 302 302 301 300 301 300 302 302 301 302 302 300 304 304 299 300 305 304 305 300 296 293 291 291 290 291 292 294 295 295 296 297 297 298 297 297 298 298 297
300 301 300 300 301 301 299 298 298 299 302 300 298 301 302 301 303 304 304 302 303 305 301 299 296 293 291 290 288 288 289 290 291 291 291 291 292 292 293 293 293 292 291 291
302 301 299 299 296 293 294 300 302 301 298 297 299 302 301 301 301 302 303 306 306 302 298 293 292 290 289 288 287 286 287 287 288 287 288 289 289 289 289 288 288 289 290 289
297 294 290 290 290 292 292 294 295 296 296 295 296 299 300 300 301 302 305 300 299 297 293 291 290 288 287 286 285 285 285 285 286 285 285 286 286 286 287 287 288 289 288 287
290 290 289 288 290 290 292 292 294 294 295 295 299 300 300 300 299 296 299 295 293 291 289 288 287 286 286 285 284 284 284 284 284 284 284 284 284 285 284 285 286 286 286 286
288 289 286 288 285 287 291 291 292 293 294 297 298 299 299 295 294 292 293 292 290 288 288 286 285 285 285 285 284 284 283 283 283 283 283 283 283 283 283 284 284 284 284 283
289 286 287 288 289 288 289 290 289 292 295 296 295 292 294 294 293 290 288 287 286 284 284 284 284 283 283 283 283 283 283 283 283 282 282 282 282 282 283 282 282 282 282 281

GFSNW_850_thetae_045.txt.gz
Theta_e
294 296 296 297 299 299 300 301 303 304 304 303 303 302 302 304 305 305 306 306 308 308 308 307 308 309 310 317 317 318 318 313 314 315 315 314 315 315 316 318 318 318 316 319
295 296 296 297 298 299 300 300 301 303 304 304 303 303 302 303 305 305 306 307 307 307 307 307 308 309 316 318 317 317 318 319 317 315 315 314 313 313 314 317 316 318 319 318
295 296 297 298 298 299 299 299 302 302 304 303 303 303 303 303 303 303 305 306 305 306 306 306 306 309 310 317 317 318 318 319 321 322 319 318 318 317 315 316 316 316 318 318
294 296 297 298 298 299 299 299 299 303 304 304 303 303 303 304 304 304 305 304 305 305 305 306 306 307 311 315 316 317 317 317 317 316 315 316 316 319 318 316 316 317 317 317
295 296 297 298 299 299 298 298 301 302 304 304 304 304 304 304 303 304 305 305 306 305 305 305 306 306 307 310 314 316 316 314 315 314 315 314 315 315 316 317 315 315 316 316
296 297 297 298 299 299 299 299 300 303 304 305 305 304 304 304 304 303 304 304 304 304 305 305 305 305 305 308 314 313 314 314 314 313 312 313 313 315 315 316 316 317 318 317
297 298 298 299 299 299 299 299 300 301 304 304 304 305 304 304 304 303 304 303 304 305 305 305 307 313 313 313 313 311 311 311 311 313 312 313 310 312 312 315 316 315 316 316
297 298 298 299 299 300 299 300 301 302 303 304 304 305 305 304 303 304 303 304 305 305 305 307 307 305 311 311 313 311 310 309 311 310 312 312 309 313 315 314 316 315 315 315
299 299 299 299 299 300 299 300 301 302 303 303 304 304 305 304 303 302 303 304 304 304 305 307 309 306 308 312 314 313 311 310 307 312 310 310 307 313 314 316 319 315 318 314
297 296 297 297 297 298 299 300 300 301 299 302 303 304 305 304 304 303 303 304 305 305 303 308 307 307 308 310 311 313 311 310 314 314 314 310 311 313 315 319 316 316 319 317
297 297 299 299 299 298 298 298 300 300 300 301 303 304 304 304 304 303 303 305 305 306 305 307 306 302 306 308 309 309 310 311 310 312 314 314 312 316 316 315 313 316 318 318
300 300 299 300 300 301 299 299 298 300 300 300 301 301 303 305 304 304 304 305 305 305 306 304 303 302 298 306 308 308 309 307 308 310 310 311 316 316 313 314 314 316 317 317
301 300 300 300 300 301 300 300 300 299 300 300 301 302 301 302 305 304 304 305 305 306 307 303 304 304 301 304 304 308 308 309 310 311 311 311 312 312 313 315 315 314 315 316
300 300 300 300 301 300 300 300 300 299 300 300 299 300 302 303 305 306 305 305 306 306 307 305 304 303 305 302 306 305 306 309 310 310 311 312 313 313 313 314 315 314 315 316
300 300 300 301 300 301 301 301 300 300 300 299 299 300 300 300 301 305 306 306 305 306 306 301 303 304 307 305 304 304 308 309 310 309 311 310 312 313 314 314 314 313 315 314
300 301 300 300 300 301 301 300 300 300 300 301 298 301 302 301 302 305 306 306 307 306 307 303 306 307 308 308 308 307 305 304 305 307 306 308 311 311 312 312 313 315 316 315
301 301 301 301 301 301 300 300 300 299 300 300 302 304 305 305 305 307 307 307 307 307 307 305 306 308 308 303 307 302 301 301 304 304 307 310 309 306 309 311 311 311 312 312
300 300 301 300 301 300 301 302 301 300 301 300 302 303 304 305 305 307 307 307 306 305 306 307 306 306 304 301 298 297 297 298 303 304 303 303 303 306 308 308 309 309 309 308
301 300 300 300 300 300 302 301 300 300 301 300 299 303 305 302 303 306 305 305 303 304 303 306 306 299 296 294 294 293 294 295 296 300 302 302 302 302 302 302 302 300 297 300
299 300 301 299 301 300 300 300 299 299 299 301 300 299 303 304 301 300 302 301 303 305 306 302 298 296 292 291 290 290 291 293 294 297 298 296 296 297 296 293 293 294 292 292
300 300 299 300 301 301 300 300 300 300 298 300 300 300 301 302 301 302 301 299 298 303 306 300 297 294 291 289 288 288 289 290 291 292 292 292 292 291 291 291 290 291 289 288
301 300 300 300 299 299 297 296 296 300 302 299 296 300 301 301 303 304 303 301 302 304 298 295 292 291 289 288 286 286 286 287 288 288 289 288 289 288 289 288 287 287 288 287
301 299 297 295 292 290 292 299 300 299 298 296 299 301 301 301 301 301 303 304 304 297 294 291 290 288 287 286 285 284 285 284 284 284 284 285 285 285 285 284 285 286 286 286
295 292 288 288 287 289 290 292 292 294 295 295 296 299 300 299 300 302 302 297 295 293 288 288 288 286 285 284 284 283 283 283 283 283 284 284 284 284 284 284 285 286 285 285
289 289 286 287 288 289 290 291 293 292 293 295 298 299 297 294 296 293 294 292 289 289 286 286 286 285 284 284 283 283 282 282 282 283 283 284 285 285 284 284 284 285 284 284
288 286 286 286 285 287 288 289 290 291 292 296 296 298 295 292 293 288 289 288 286 285 284 284 284 283 283 283 283 282 282 282 283 283 284 284 284 283 283 283 283 283 283 283
288 286 285 285 285 285 285 287 287 290 293 294 293 291 293 292 289 287 285 285 284 283 282 283 283 283 283 283 283 283 283 283 283 283 282 282 282 282 282 281 280 281 281 280

GFSNW_850_thetae_048.txt.gz
Theta_e
295 295 294 294 296 296 298 299 302 302 304 304 300 303 302 302 303 305 305 305 306 307 307 306 306 308 314 317 317 317 317 312 312 313 313 313 313 315 314 316 317 316 313 317
294 294 294 295 296 297 299 300 300 302 304 305 304 303 303 301 304 305 305 306 306 306 305 305 307 310 313 311 317 317 317 318 317 316 314 315 316 314 315 313 313 314 316 316
294 294 294 294 296 296 298 299 300 302 303 303 304 304 303 302 302 302 303 304 305 305 306 306 306 307 308 309 316 316 316 318 316 320 319 317 318 315 315 317 313 314 315 315
293 293 294 294 295 297 298 298 299 302 304 303 304 304 304 303 303 302 303 303 304 304 305 304 305 306 307 308 314 315 314 314 316 318 317 315 315 313 314 314 315 316 316 314
293 293 294 294 295 297 298 298 299 301 303 304 304 304 304 304 303 303 304 304 305 304 304 304 304 304 305 305 307 314 313 312 314 314 316 315 313 313 313 315 315 315 315 314
293 293 294 294 295 297 299 299 299 301 302 304 304 304 304 304 303 303 303 303 303 303 304 304 304 304 304 304 305 308 312 313 313 313 312 312 311 311 313 313 312 314 315 314
293 294 294 295 296 297 298 298 299 300 302 302 304 304 304 304 304 303 303 303 303 304 305 305 305 305 304 304 304 307 311 310 308 310 310 312 308 310 311 310 312 312 312 312
293 293 295 296 297 297 298 298 299 300 301 302 304 304 304 304 304 304 304 303 303 303 304 306 306 304 309 308 309 309 309 307 306 308 311 310 308 308 309 313 309 312 310 313
295 295 296 297 297 298 298 298 298 300 302 302 302 304 305 305 304 303 303 303 303 303 303 304 307 305 307 310 311 310 308 307 309 310 309 307 306 311 314 314 311 314 315 316
296 296 297 297 298 299 299 299 299 300 299 301 302 303 305 304 303 303 302 303 304 304 303 306 306 306 306 308 310 312 311 311 313 311 313 309 308 310 314 313 309 314 313 314
297 297 298 299 299 299 299 299 300 299 300 301 302 303 303 304 303 303 302 303 303 304 305 304 305 303 305 306 308 309 309 308 310 311 313 310 309 315 313 311 313 313 313 314
297 297 297 297 297 298 299 298 299 300 300 300 301 303 303 304 304 304 303 303 304 303 303 302 302 301 297 305 306 307 308 306 307 308 308 308 313 315 315 315 312 313 314 313
300 299 299 297 297 298 298 298 299 298 299 299 300 301 302 303 304 304 304 304 305 305 305 302 302 303 299 302 303 307 307 306 307 308 308 308 310 311 312 312 313 313 313 313
300 301 301 300 299 299 299 299 299 298 299 300 300 300 301 301 301 302 304 304 304 305 306 305 301 301 303 300 304 303 304 306 308 308 307 309 310 311 311 312 314 313 314 313
300 300 300 300 300 300 300 301 300 299 299 299 298 300 300 301 302 302 303 304 304 305 305 304 303 302 304 302 303 303 306 307 307 306 306 307 308 310 309 310 311 311 313 313
300 300 300 300 300 299 301 299 299 300 299 300 298 301 300 300 301 302 304 306 306 305 305 305 306 306 306 302 301 306 304 303 303 306 305 305 306 308 308 306 310 310 306 312
301 300 300 300 300 301 300 300 300 299 299 300 299 297 303 301 300 301 302 304 305 305 305 305 305 306 307 299 302 301 299 299 302 302 303 306 304 302 303 303 310 306 303 304
301 300 300 300 301 301 300 301 300 300 300 300 297 303 304 304 304 304 304 305 306 306 302 305 306 306 302 304 295 294 294 296 300 300 301 300 300 300 301 297 302 301 299 298
301 301 300 300 299 300 301 300 300 300 300 299 300 302 304 304 304 305 305 305 303 304 304 304 305 297 293 292 292 291 291 292 294 296 298 299 298 297 298 297 298 293 289 290
299 300 300 299 301 300 300 300 300 300 300 300 297 299 303 303 301 301 302 301 303 305 303 298 296 293 291 289 289 289 289 289 291 293 294 293 293 291 291 293 289 287 287 287
300 299 301 300 300 300 300 298 299 299 300 299 300 299 303 301 301 302 301 300 299 306 304 299 295 292 290 288 287 286 286 287 289 289 289 289 289 288 288 287 286 287 285 286
301 300 300 300 300 298 299 299 298 300 302 299 300 301 300 301 303 302 303 301 300 303 296 294 290 290 287 286 285 285 285 285 286 286 286 285 286 285 285 284 283 284 285 285
301 299 294 294 289 288 289 300 299 298 297 295 299 300 300 301 303 302 301 304 300 294 292 290 289 287 286 285 284 283 283 283 283 283 283 284 283 284 285 283 282 283 283 284
293 290 285 284 283 287 290 289 290 293 294 294 297 299 299 299 299 299 298 293 292 288 285 287 287 285 284 283 283 282 282 282 283 282 283 283 283 283 283 283 283 284 284 284
288 287 284 285 287 287 288 289 291 290 291 294 298 296 294 293 293 291 292 288 285 287 284 284 284 284 283 282 282 282 282 282 282 282 283 283 283 283 283 283 283 283 283 282
286 284 284 284 285 285 285 286 288 289 292 295 296 295 290 290 291 286 285 287 284 282 281 282 283 282 282 282 282 282 282 282 282 282 282 283 283 282 282 282 282 282 282 281
285 283 283 283 283 284 284 285 286 289 291 292 291 290 290 289 286 285 284 279 279 282 282 282 282 282 282 282 282 282 283 283 282 282 282 281 281 281 282 281 280 280 280 279

GFSNW_850_thetae_051.txt.gz
Theta_e
294 295 295 294 294 295 296 297 299 300 303 302 301 304 303 302 302 304 304 305 306 307 306 306 307 308 313 309 317 318 317 313 315 314 313 313 314 316 317 319 318 318 318 319
295 294 295 294 294 295 296 298 298 299 302 303 303 304 304 302 303 304 305 306 305 306 306 305 306 308 309 308 316 318 317 317 319 317 315 316 318 317 316 316 314 317 319 317
294 293 294 294 294 295 297 298 300 299 300 301 303 304 303 303 301 302 303 304 305 305 306 306 306 307 307 306 312 315 315 318 317 318 317 317 317 315 314 316 319 318 318 318
293 293 296 294 294 295 296 297 298 300 302 301 303 303 304 303 303 302 303 304 304 305 306 305 306 306 306 306 307 314 314 315 316 314 315 316 316 314 313 314 314 316 316 318
293 293 295 294 294 294 296 298 299 299 300 302 302 302 305 304 303 304 303 304 304 304 305 305 305 305 305 306 306 312 309 313 315 315 316 315 314 313 313 313 313 314 316 316
293 294 294 293 293 294 296 296 298 299 300 301 302 303 304 304 304 303 303 304 304 304 304 304 304 304 304 304 305 305 307 313 313 313 312 312 312 313 313 312 313 313 313 313
293 293 292 292 293 294 295 296 298 299 300 301 301 302 303 304 304 304 303 303 303 304 304 304 304 304 303 304 304 304 308 311 310 313 311 312 310 309 310 312 312 312 313 313
292 292 292 293 293 294 294 295 297 299 300 300 301 301 303 304 303 303 303 303 303 302 303 305 306 306 308 308 307 307 307 310 312 313 313 311 309 309 309 310 310 312 315 316
294 294 294 293 294 293 294 295 296 298 301 300 300 302 303 304 304 304 303 303 303 303 304 306 306 308 308 309 309 310 308 309 313 312 311 311 308 312 314 313 312 314 315 314
295 295 295 295 294 293 294 296 297 298 299 299 300 301 302 302 303 304 303 303 303 303 305 305 306 306 306 308 309 309 309 309 312 313 312 311 309 309 311 313 312 312 313 314
296 297 297 297 295 295 296 297 298 298 298 300 300 301 301 302 302 304 303 303 303 304 305 306 306 306 307 307 309 309 309 310 311 312 313 312 308 314 314 312 313 313 313 313
297 297 298 297 296 296 297 298 298 299 298 299 300 301 302 301 301 303 302 304 303 304 305 305 305 306 304 307 309 307 311 310 311 311 312 309 309 312 312 311 312 313 313 313
298 297 298 298 297 298 298 299 299 298 297 299 300 301 301 301 302 303 303 303 303 303 304 305 305 305 304 308 307 309 307 306 309 308 309 309 309 309 310 309 310 310 312 313
298 298 297 298 298 298 298 298 299 298 299 300 300 300 301 301 303 304 303 303 303 304 304 305 305 306 303 306 307 307 307 307 309 309 309 309 309 308 306 309 308 308 310 311
299 299 299 299 298 297 297 298 298 299 299 300 298 300 301 302 303 302 302 304 304 304 305 304 306 303 305 303 304 306 306 308 310 310 305 305 306 306 304 305 303 303 303 308
300 300 299 300 300 299 297 299 299 299 298 300 301 299 299 300 300 301 301 303 304 304 304 305 305 305 306 306 307 305 303 302 303 305 303 304 304 305 305 304 301 299 300 300
300 300 300 300 300 299 298 299 299 298 298 299 299 299 301 300 300 301 303 303 303 304 304 304 305 306 306 305 307 298 297 297 298 300 302 305 303 301 302 301 298 297 298 296
299 299 300 300 300 300 300 300 300 300 299 299 299 299 302 302 301 301 301 302 301 301 302 303 306 305 305 308 294 293 292 293 297 295 297 298 299 300 299 299 296 295 297 296
300 299 300 300 300 300 300 300 299 300 300 299 298 299 302 303 303 302 303 302 305 304 304 305 303 299 303 292 290 290 289 290 291 292 294 297 296 295 295 293 291 289 287 289
300 300 300 299 300 299 299 300 299 299 300 300 300 299 301 301 302 303 302 303 304 305 303 298 296 293 289 288 287 286 287 288 288 291 293 291 291 290 290 289 287 286 285 285
300 300 300 299 300 300 299 298 299 299 299 298 298 298 301 300 303 303 301 302 303 306 302 299 295 293 290 287 286 285 285 286 287 287 288 287 287 287 286 285 284 284 283 283
300 300 299 300 298 298 300 298 299 300 301 299 299 300 300 300 300 301 300 303 301 303 295 294 292 289 286 285 284 284 284 284 284 285 284 284 284 284 283 282 282 281 282 283
300 299 295 293 289 289 291 298 298 297 295 295 298 300 299 300 301 301 303 303 297 293 291 290 288 286 285 284 284 282 282 283 282 282 282 282 282 282 282 281 281 282 283 283
292 290 287 287 285 288 289 290 290 291 292 293 296 299 297 296 296 297 297 292 292 289 289 287 286 284 283 282 282 282 281 281 281 281 281 281 281 281 281 281 282 283 282 282
287 287 286 286 285 286 286 287 289 289 290 294 298 294 293 293 292 290 290 289 288 288 287 285 284 283 282 282 281 281 281 281 281 281 281 281 281 282 281 281 282 282 281 282
284 283 284 283 284 284 284 285 286 288 291 294 294 290 290 290 290 287 285 288 286 284 283 282 282 282 281 281 281 281 281 281 281 281 281 281 281 281 280 281 281 281 281 280
284 283 283 283 282 283 283 284 285 288 290 291 291 289 289 287 286 285 284 282 282 282 282 281 281 281 281 281 282 281 282 281 281 281 281 281 280 281 281 280 279 279 278 278

GFSNW_850_thetae_054.txt.gz
Theta_e
293 293 295 295 297 294 294 298 300 300 300 303 302 303 304 304 304 304 305 306 307 307 308 308 308 307 311 311 314 317 313 316 318 316 316 317 319 319 319 320 321 321 323 322
294 294 295 295 296 294 296 298 298 299 302 303 303 303 304 305 305 305 305 306 307 307 307 307 307 308 310 309 312 317 317 316 314 315 315 316 319 318 319 319 319 321 324 321
293 294 294 295 294 294 295 298 300 299 300 301 304 304 305 305 304 305 305 306 306 307 308 308 307 307 308 307 309 310 315 317 316 314 315 317 319 317 316 319 321 320 320 319
293 293 294 294 294 294 295 297 299 300 302 301 302 303 304 305 304 304 304 305 305 306 308 308 308 307 308 307 307 313 315 316 315 314 314 314 315 316 316 316 317 318 318 317
293 294 294 293 294 294 295 296 297 298 300 301 302 303 303 304 304 305 305 305 306 306 307 308 308 307 307 307 308 310 312 312 313 312 312 314 315 314 314 315 314 315 316 317
293 293 293 293 293 294 295 296 296 298 299 301 302 303 303 303 305 305 304 305 305 307 307 306 306 306 306 307 308 308 310 315 313 311 313 312 312 313 314 315 315 314 314 314
293 292 293 293 294 294 295 295 296 298 299 301 302 301 301 303 303 305 305 304 305 305 305 305 305 306 306 307 308 307 309 314 315 313 314 312 311 312 312 313 313 312 312 312
292 292 292 293 295 295 294 294 296 297 299 299 300 301 302 301 303 304 305 304 304 304 303 307 308 309 309 309 308 308 308 311 314 314 314 312 311 310 310 311 310 312 314 314
292 292 292 292 292 292 292 293 294 296 297 300 299 301 301 303 302 303 303 303 303 303 305 309 308 309 308 310 310 308 308 310 313 313 311 311 311 313 313 313 312 314 314 315
292 292 293 293 293 292 292 294 294 295 296 296 298 301 301 301 303 304 304 302 304 303 307 308 308 308 308 310 310 311 310 311 312 312 314 312 311 310 312 316 316 313 313 313
292 292 293 294 294 294 293 294 295 295 296 297 300 299 300 301 302 303 304 304 303 303 308 308 307 308 307 308 310 310 310 311 312 311 312 313 311 312 313 317 314 312 312 312
293 294 294 295 295 295 295 295 294 295 296 298 298 299 300 301 301 302 302 305 304 305 307 307 307 308 308 307 309 310 312 310 311 311 312 312 312 314 312 312 313 313 313 313
294 295 296 296 297 296 297 295 294 295 295 297 299 300 300 301 302 301 302 303 305 305 305 307 308 308 308 309 309 308 309 310 312 311 311 311 310 311 310 310 310 309 309 310
297 297 297 298 297 298 298 295 296 296 297 300 300 300 301 300 301 302 302 303 304 304 305 306 308 308 307 308 308 309 309 310 310 310 310 309 309 311 309 307 307 306 306 305
297 298 298 298 298 298 297 296 297 298 299 302 301 300 300 301 302 302 302 303 304 305 306 306 307 306 307 308 308 308 308 308 310 310 310 309 309 308 305 306 305 304 303 303
298 298 298 298 298 298 297 296 298 298 299 300 302 301 300 301 302 302 303 302 303 304 304 305 305 306 306 309 309 308 307 306 305 308 305 306 306 306 301 302 301 299 298 297
299 299 299 298 298 298 298 299 299 299 299 299 302 303 302 301 302 303 303 302 303 304 304 304 305 306 306 308 309 302 299 299 300 300 299 304 301 302 300 298 296 296 295 293
300 300 299 299 298 298 298 299 299 298 298 299 302 303 303 301 302 302 302 303 303 301 302 303 306 306 306 308 296 296 296 296 298 295 296 296 297 297 297 297 295 294 292 291
300 300 300 300 298 298 298 299 299 298 299 301 301 303 303 302 302 302 302 302 303 301 303 304 306 306 307 294 293 292 291 291 292 293 295 295 294 293 293 293 291 291 288 288
300 299 299 300 300 300 299 299 299 299 299 301 303 302 303 302 302 303 303 303 304 306 304 299 305 299 290 290 289 288 288 289 290 292 295 292 292 290 287 287 286 286 285 284
300 300 300 300 300 300 300 298 301 299 301 300 301 301 303 301 305 304 303 304 305 305 303 305 302 299 291 288 288 287 287 287 287 287 287 286 287 287 286 284 283 283 282 281
300 299 299 299 299 299 301 301 300 300 301 299 301 301 301 300 302 305 303 305 304 306 300 304 301 291 288 287 286 285 285 284 284 284 284 284 283 283 282 281 281 281 281 281
299 298 294 295 293 297 301 302 302 301 298 298 298 301 300 300 300 301 305 307 303 298 300 298 292 287 286 285 285 284 283 283 282 281 282 281 281 281 281 280 280 281 281 281
293 294 292 293 293 293 293 294 294 293 294 296 297 299 301 297 300 298 300 296 298 299 299 294 289 286 284 284 283 283 281 280 280 280 280 281 281 280 280 280 281 282 281 281
289 290 290 290 288 288 288 288 291 291 290 293 297 297 298 297 296 295 296 297 297 295 294 289 286 284 283 283 281 281 280 280 280 280 281 281 281 281 281 281 281 282 281 281
286 285 289 287 290 289 288 288 290 289 290 294 296 296 297 294 294 294 292 297 295 289 287 285 283 282 281 281 281 280 281 281 281 281 281 281 281 281 280 280 280 280 279 279
285 286 284 285 286 286 286 287 288 288 292 296 295 295 292 291 291 290 288 289 287 285 284 283 282 281 280 281 281 281 281 280 280 280 280 280 280 280 279 278 276 277 276 276

GFSNW_850_thetae_057.txt.gz
Theta_e
293 294 295 294 294 295 296 297 300 301 303 303 303 305 305 305 306 305 306 307 309 309 309 310 310 311 311 312 313 319 315 316 317 319 317 318 319 319 321 323 325 323 326 324
294 295 295 293 294 296 297 297 299 299 302 305 305 304 304 304 305 306 306 306 307 308 309 309 310 310 310 309 311 314 316 316 317 319 318 318 318 319 320 322 322 324 328 324
294 294 294 294 294 295 296 298 302 299 302 302 304 304 305 305 304 306 305 306 307 308 308 308 309 309 309 309 309 309 314 318 316 317 318 318 319 320 320 321 323 323 324 323
293 293 293 293 294 295 296 297 300 301 303 303 304 304 306 305 305 305 305 306 306 307 308 308 309 310 310 309 307 310 315 319 319 316 317 317 318 319 319 319 320 321 321 321
293 293 293 294 293 295 295 296 298 299 300 302 303 304 304 305 306 306 305 306 306 307 307 308 309 309 310 310 309 310 314 316 315 317 315 315 316 317 317 317 317 317 318 318
293 293 294 294 294 294 296 296 297 298 300 302 303 304 303 303 304 305 306 306 307 307 307 307 308 308 308 309 310 311 311 312 315 316 314 314 314 315 316 317 317 317 318 318
292 292 293 293 294 294 294 296 297 298 301 301 302 302 304 304 304 304 305 305 307 306 307 307 306 306 307 307 309 309 311 312 313 316 315 317 314 314 314 315 315 316 314 314
292 293 293 293 293 294 294 295 297 298 300 299 300 302 303 302 303 304 304 305 305 306 306 306 307 309 309 310 309 310 310 312 314 314 315 314 313 312 312 312 312 312 313 315
291 292 293 293 293 293 294 294 296 297 298 300 299 301 301 303 303 304 304 304 304 304 306 309 308 310 310 310 310 310 310 310 313 314 313 313 312 313 314 313 312 315 315 316
292 292 292 292 292 293 294 295 295 296 297 297 298 300 302 302 303 304 304 305 304 303 307 308 310 311 310 311 312 311 311 311 311 312 313 312 311 312 311 315 316 314 314 314
292 292 292 292 292 292 293 295 296 296 296 296 297 298 299 300 303 305 304 304 304 304 308 308 309 310 309 309 311 311 310 311 312 312 313 312 312 312 313 316 314 314 313 314
293 292 292 292 293 293 293 294 295 295 296 296 298 298 298 300 301 301 303 304 305 305 308 308 309 310 310 309 310 312 311 311 312 311 312 313 312 314 314 313 313 313 313 313
294 292 292 292 293 293 294 295 296 296 296 297 297 297 298 300 298 300 302 303 302 306 306 309 310 309 309 310 310 311 311 311 312 313 312 312 311 313 312 311 311 311 310 310
294 292 292 292 293 294 294 295 296 296 296 297 297 298 298 297 301 301 301 302 304 305 306 308 308 309 308 309 310 310 310 310 310 311 311 311 311 312 311 310 309 309 308 308
294 294 294 294 295 295 296 296 295 296 296 299 298 299 301 301 301 302 302 302 303 303 306 307 309 307 308 309 309 310 309 310 311 311 312 312 311 310 308 307 307 306 305 305
295 295 296 297 297 297 297 298 296 296 297 297 301 302 303 302 302 302 303 303 302 303 304 306 306 306 308 310 309 309 309 309 307 310 307 307 307 307 305 304 302 301 300 299
297 297 298 298 298 298 298 299 298 298 296 297 302 304 303 302 303 303 302 303 303 302 302 303 306 307 307 308 309 307 304 303 304 302 302 306 303 303 299 299 299 298 297 296
298 298 298 298 298 299 298 298 299 297 297 299 304 304 304 303 303 304 304 303 303 303 304 304 306 306 307 309 302 301 300 300 302 299 299 300 299 298 296 296 295 295 292 291
299 299 298 297 297 298 299 299 299 298 299 301 302 304 305 302 303 303 304 304 305 303 305 304 305 307 307 296 297 295 293 294 295 295 298 297 296 294 293 292 292 292 288 287
300 298 297 298 298 298 298 299 298 299 300 302 303 303 305 303 303 304 304 303 305 305 304 303 306 297 293 292 291 290 291 291 292 293 297 293 294 292 290 288 287 286 285 283
298 299 299 299 299 298 299 298 301 300 303 302 303 303 304 303 305 305 304 304 305 305 306 307 307 300 292 290 290 289 288 288 288 288 288 288 288 289 288 285 284 283 282 281
300 299 298 299 299 300 303 303 302 302 303 301 303 303 303 302 303 305 305 305 305 305 304 306 306 293 290 288 287 287 286 286 285 286 285 285 285 284 283 282 281 280 280 280
299 300 297 299 296 303 304 302 303 303 301 300 300 303 302 301 302 303 305 305 306 303 305 304 295 290 288 287 287 285 285 284 283 282 282 281 280 281 280 280 280 280 280 280
297 297 294 298 298 296 297 298 298 295 296 299 299 299 301 299 302 302 304 301 302 304 304 299 292 288 286 285 285 284 282 282 281 280 280 279 280 280 280 280 281 281 281 281
292 294 294 293 291 291 291 291 294 293 294 297 299 299 300 300 299 299 299 300 302 300 297 292 287 286 285 284 283 282 281 280 280 279 280 280 280 280 280 280 280 280 280 279
289 289 292 291 294 293 292 293 294 292 294 295 297 299 300 298 298 299 298 303 300 293 290 286 285 284 283 282 282 281 281 280 279 280 280 280 280 280 280 280 280 279 279 279
289 289 288 289 289 290 290 290 291 290 294 299 299 299 295 295 297 294 292 293 290 288 287 285 284 283 282 281 281 281 281 280 280 280 280 279 279 279 278 278 276 276 275 275

GFSNW_850_thetae_060.txt.gz
Theta_e
293 294 294 294 296 295 295 297 300 301 302 304 303 304 305 305 307 306 306 308 308 310 310 310 310 311 312 311 313 316 317 315 316 317 317 316 316 318 318 323 325 323 326 326
294 293 293 295 295 295 297 298 299 299 302 305 304 303 304 304 306 306 306 307 307 307 308 308 309 310 311 310 310 313 313 316 317 317 318 318 317 317 318 319 323 327 329 327
293 293 294 294 295 294 295 297 301 299 301 302 304 305 305 305 304 305 306 306 307 307 308 308 309 309 310 310 310 309 310 317 318 318 320 319 319 319 320 321 324 326 326 326
292 294 294 294 294 295 295 297 299 300 303 303 303 303 306 305 305 305 305 306 307 306 307 307 308 308 309 309 308 311 313 318 318 318 318 317 318 320 319 321 322 325 323 323
293 293 293 292 292 294 295 297 298 298 299 301 303 303 304 304 306 306 306 305 306 307 306 307 307 309 311 310 312 311 313 315 315 317 318 317 316 319 321 320 319 319 321 321
292 292 293 293 294 294 296 296 297 298 300 302 302 304 303 303 304 305 307 307 307 306 308 308 308 309 309 310 311 311 312 313 316 317 316 316 317 316 319 318 317 317 317 318
292 291 292 293 294 294 295 295 297 297 300 299 301 302 303 305 304 304 304 306 307 307 308 308 308 307 307 308 309 309 310 310 313 315 316 318 315 314 315 316 316 317 317 317
292 292 291 293 293 294 295 295 296 298 299 298 300 301 302 303 303 305 305 305 306 305 308 308 307 308 308 309 308 308 310 310 313 317 316 316 316 313 313 313 314 315 313 314
292 292 292 292 293 293 294 294 295 295 298 300 299 300 301 303 304 304 304 305 306 305 306 306 307 307 308 308 309 309 310 312 312 314 315 317 314 314 314 313 314 315 316 316
294 293 292 292 293 293 294 294 294 296 297 298 299 301 301 302 303 304 304 306 305 304 306 307 307 308 308 310 311 312 311 312 313 313 313 313 311 312 312 314 317 315 315 315
296 295 293 292 292 293 293 294 294 296 296 298 298 298 299 300 301 305 305 305 304 305 305 307 307 309 310 311 311 312 311 312 313 312 312 313 311 312 312 317 314 314 314 314
297 296 294 292 292 292 293 293 295 295 297 297 298 298 298 298 299 301 303 304 302 305 306 308 309 311 312 310 311 311 313 311 311 311 311 313 313 315 314 313 313 312 312 311
298 297 295 293 292 292 292 294 295 296 296 296 296 297 298 299 299 300 301 302 304 304 302 307 310 310 310 310 309 311 311 312 311 312 312 311 314 314 312 311 311 310 309 309
298 297 295 293 292 292 292 293 295 296 296 297 297 298 299 299 299 300 301 300 300 301 303 305 309 310 309 311 310 311 311 310 312 313 312 311 311 311 309 309 307 306 306 305
296 297 295 293 292 293 293 294 295 296 296 299 299 298 299 299 300 298 299 302 302 302 304 306 307 308 309 310 309 309 310 310 312 314 311 311 309 307 307 306 304 303 303 302
296 296 294 292 292 293 293 295 294 295 296 297 299 300 300 301 301 302 302 301 302 303 302 304 307 307 308 309 310 308 308 307 306 307 305 307 306 303 302 303 301 301 299 297
296 295 293 292 293 293 295 297 299 296 296 298 299 299 302 303 303 302 303 303 302 302 302 304 305 307 307 309 308 306 303 303 303 301 303 307 302 301 298 298 298 298 294 292
295 294 294 294 295 295 296 297 299 298 297 297 300 302 304 302 303 304 302 302 303 302 303 303 307 306 307 307 303 300 297 301 299 299 300 299 299 297 296 295 295 293 291 289
296 296 297 297 297 297 298 298 298 297 298 298 301 304 305 304 304 303 304 303 304 303 306 306 305 309 305 297 296 294 294 295 295 296 299 298 296 295 293 292 291 291 288 286
297 297 297 297 298 299 298 298 298 298 298 300 303 302 305 304 304 305 304 304 305 304 304 305 306 298 295 294 292 291 291 292 291 293 293 293 293 292 289 288 287 286 285 284
298 298 299 298 298 298 299 297 300 299 302 301 302 303 305 304 306 305 304 305 306 305 306 306 306 299 293 291 290 289 288 288 289 288 288 288 288 288 287 285 283 282 282 281
299 299 298 298 299 299 301 303 302 303 303 303 305 304 304 304 304 305 305 305 306 305 304 306 302 293 291 289 288 287 286 286 286 286 285 285 285 284 283 282 280 280 280 280
299 299 299 300 299 303 304 302 303 304 302 301 302 303 302 302 302 303 304 305 305 305 305 301 295 290 289 288 287 286 285 284 283 282 281 281 281 281 280 279 280 280 280 280
298 298 296 300 299 298 297 298 299 297 298 300 302 300 302 300 301 303 304 302 303 305 306 298 292 288 287 286 285 284 282 282 281 280 280 280 280 280 280 280 280 280 280 280
294 296 296 294 292 293 293 294 295 295 296 299 300 300 301 302 300 300 301 301 305 299 296 292 288 286 285 284 282 282 281 281 280 280 280 280 280 280 279 279 279 279 279 279
290 291 294 294 295 295 294 295 295 293 296 298 300 302 301 300 300 301 299 302 299 294 290 287 285 284 283 283 282 281 281 280 280 279 280 280 280 280 279 279 279 279 278 277
290 290 290 292 292 292 292 292 292 293 296 300 300 300 297 297 299 295 292 294 291 289 287 286 284 283 282 282 282 281 281 281 281 280 280 280 279 279 279 278 277 276 276 275

GFSNW_850_thetae_063.txt.gz
Theta_e
293 294 293 294 295 295 295 296 296 300 301 300 302 301 301 302 302 304 305 306 308 308 308 309 310 310 313 311 311 315 313 316 314 312 312 314 316 318 319 324 325 323 322 326
295 294 293 293 293 295 295 296 296 296 299 303 300 301 302 302 302 304 305 306 307 307 306 307 308 309 311 310 310 311 310 315 317 316 316 317 317 316 317 319 320 325 326 325
293 293 293 293 294 296 295 295 297 299 299 299 302 303 303 303 303 304 304 304 305 306 306 306 307 309 310 310 311 309 309 314 317 319 319 319 320 319 317 317 321 322 325 326
292 292 292 293 294 294 295 295 296 298 300 299 300 301 302 303 306 305 304 303 304 305 307 307 308 308 308 309 309 311 312 314 316 315 315 318 317 318 318 319 319 324 324 324
292 292 293 293 294 294 295 295 295 297 298 299 300 302 302 302 302 305 305 306 305 305 306 307 308 310 310 312 311 312 311 313 314 315 316 316 318 317 318 320 321 321 322 322
291 291 292 293 293 293 294 295 295 295 298 298 298 300 302 303 303 303 304 306 306 307 308 307 308 308 309 309 310 310 312 312 313 315 313 315 316 316 320 319 318 319 321 321
291 292 291 292 293 294 293 294 295 296 296 297 297 298 299 301 303 303 304 304 306 306 306 307 308 308 308 309 309 309 310 309 311 312 312 318 316 315 317 317 317 317 316 317
292 292 292 292 291 293 294 294 295 296 294 297 297 298 299 300 301 302 304 304 305 305 306 306 306 305 306 306 307 307 308 308 308 313 315 314 314 315 313 316 316 315 315 314
292 293 293 293 292 292 293 294 295 295 295 294 297 298 299 300 301 303 303 305 305 305 303 303 306 305 307 307 308 307 307 307 308 310 313 315 314 314 313 313 317 315 314 315
294 294 293 293 292 292 293 294 294 295 295 295 295 297 300 300 299 302 303 304 304 303 303 301 305 305 306 307 309 309 308 308 309 309 310 313 313 312 312 314 317 314 314 313
294 295 295 295 294 292 292 294 294 294 295 296 296 297 297 299 299 302 300 302 303 302 301 301 302 303 306 307 309 311 310 309 309 308 309 311 311 311 314 314 313 312 311 311
295 296 296 296 295 293 292 293 294 294 294 296 297 297 297 298 298 298 299 299 300 304 304 302 304 303 305 309 310 310 311 311 309 308 308 311 314 314 313 312 311 310 310 310
297 297 297 297 296 294 292 293 294 294 294 296 295 295 296 297 298 299 299 301 302 303 301 301 305 306 306 307 308 310 310 309 311 310 311 311 311 310 309 308 308 308 308 307
298 298 298 297 296 294 292 293 293 294 296 295 296 297 296 297 298 298 299 300 301 301 300 300 304 306 308 307 308 308 310 306 309 311 311 309 307 305 305 304 305 305 304 303
299 298 298 297 295 293 292 293 293 294 296 296 298 297 297 298 299 299 298 299 300 302 301 302 305 305 307 306 307 308 308 303 309 310 306 308 306 305 303 302 302 301 300 299
298 297 296 295 294 292 293 294 293 294 295 296 294 298 298 299 300 300 300 299 299 302 301 303 304 306 306 303 306 305 303 302 300 300 304 302 300 299 300 300 298 298 297 295
296 296 296 294 293 292 293 294 296 294 295 297 298 298 300 300 297 300 301 302 301 300 302 302 303 304 306 301 303 298 299 300 298 300 302 300 298 297 297 297 294 294 292 290
296 296 294 293 292 293 294 298 298 297 295 296 298 298 299 302 302 302 302 302 301 301 302 302 304 306 305 304 297 296 295 297 297 298 298 297 295 294 293 293 292 290 287 286
295 294 293 293 293 293 294 294 295 296 296 297 298 298 302 302 302 301 302 302 301 302 302 303 304 299 299 296 294 293 292 292 292 295 294 294 291 290 289 289 288 287 285 284
294 294 294 296 295 296 295 297 297 298 297 299 298 301 300 301 303 303 302 302 303 302 301 305 303 296 294 292 290 290 290 290 290 291 290 290 289 287 286 285 284 284 284 283
295 297 298 298 296 298 298 297 298 297 298 298 300 300 300 302 302 302 303 301 300 302 302 302 302 297 292 289 288 287 287 288 288 287 287 287 287 285 284 282 282 282 282 281
298 299 298 298 298 298 300 299 299 298 300 302 300 302 302 303 303 303 303 303 302 304 301 303 295 292 289 287 286 286 285 285 285 285 284 284 284 283 281 280 280 280 280 280
298 299 298 299 298 301 301 299 298 298 300 301 303 302 301 302 302 301 302 303 302 302 303 296 292 289 287 286 285 284 283 283 282 281 281 281 281 280 280 280 280 280 280 280
298 297 294 298 298 296 295 297 298 297 300 301 300 300 300 300 300 300 301 299 298 303 300 291 288 286 285 284 283 283 281 281 280 280 280 280 280 280 280 280 280 280 280 279
294 295 295 293 293 293 293 295 295 296 298 298 299 299 301 296 298 299 298 298 300 295 289 287 285 284 283 282 282 281 280 280 280 280 280 280 280 280 279 280 280 280 280 279
290 292 294 294 293 293 293 294 294 295 297 299 300 298 299 299 299 297 294 297 291 288 284 285 285 284 283 282 281 281 280 280 280 280 280 280 280 280 280 279 279 279 278 277
290 289 290 292 292 292 291 292 293 295 296 299 297 295 296 294 294 291 290 287 287 286 285 284 283 282 282 281 281 281 281 280 280 280 280 280 279 279 279 278 277 276 276 275

GFSNW_850_thetae_066.txt.gz
Theta_e
294 293 294 294 293 294 294 295 293 296 299 299 300 300 300 300 300 301 302 305 306 306 306 307 307 310 312 310 311 313 311 314 317 314 312 313 316 319 319 322 323 321 323 325
293 293 295 294 293 293 295 296 296 295 295 299 298 299 301 300 301 301 301 305 304 304 305 305 307 309 311 309 310 310 309 312 316 314 314 313 315 316 319 320 319 323 325 325
292 293 293 293 293 294 294 295 294 296 297 297 299 300 301 302 302 302 302 303 304 304 305 306 305 307 310 310 310 309 309 312 316 318 319 317 319 318 317 319 322 321 320 323
291 292 292 292 293 294 294 295 293 295 297 299 299 300 300 300 301 302 302 303 304 303 304 306 306 308 309 310 310 310 309 310 314 314 315 314 316 318 317 319 318 321 321 322
292 293 292 292 293 294 295 295 294 296 296 297 298 298 299 300 302 302 303 304 304 305 306 306 306 309 308 311 310 310 310 310 312 313 313 311 314 318 318 318 320 318 319 322
293 292 291 291 293 294 295 295 295 294 294 295 295 298 299 299 299 302 302 303 303 305 306 307 307 307 308 308 308 309 310 311 309 312 312 312 315 315 317 318 320 320 322 321
291 291 291 292 291 293 294 293 294 294 294 294 295 296 297 298 299 300 301 302 303 304 304 306 306 307 307 308 307 307 308 308 308 310 310 312 314 311 313 319 318 317 318 318
291 292 291 292 292 292 293 294 294 294 293 296 296 297 297 298 299 300 301 302 303 304 305 305 305 303 305 305 307 308 307 307 307 309 311 310 309 314 314 317 316 316 315 317
292 292 293 293 293 293 292 293 294 294 295 294 295 296 297 297 299 300 302 303 304 304 303 305 305 305 306 306 307 306 306 305 305 307 311 311 313 313 312 313 319 315 316 316
292 293 293 293 293 293 293 292 293 294 295 295 295 294 297 297 298 299 301 299 303 303 298 302 303 304 305 305 308 308 305 304 307 306 307 309 311 312 312 314 317 313 312 313
293 293 294 294 294 293 292 293 292 293 295 295 295 296 296 296 297 299 298 300 300 301 298 300 301 300 304 305 305 307 307 307 306 306 308 308 310 313 313 313 312 310 310 309
295 295 295 294 295 295 294 293 292 293 294 294 296 296 296 295 296 298 299 298 299 301 301 302 302 300 298 305 308 309 311 310 309 307 306 308 307 308 310 311 309 308 308 307
296 296 296 296 296 296 295 293 292 294 295 294 294 294 294 295 296 298 299 299 299 299 299 301 303 304 304 306 308 309 310 309 310 310 309 307 305 304 304 304 303 304 304 304
297 298 298 297 297 297 295 294 292 294 294 293 295 296 296 296 296 296 296 298 299 300 300 301 303 302 304 305 308 307 309 307 308 311 308 306 305 304 303 301 302 302 302 300
298 299 298 298 298 297 295 293 292 293 294 295 296 296 296 297 298 298 298 298 300 301 301 300 303 304 304 306 307 306 304 302 305 307 305 303 303 302 303 304 301 300 300 299
299 299 299 298 297 295 294 293 292 293 294 295 292 296 296 298 298 299 299 298 298 299 301 302 302 304 304 305 307 300 300 299 300 299 299 300 299 299 299 298 297 297 298 295
299 298 298 297 295 294 293 293 293 293 294 296 296 294 299 298 299 300 299 300 299 300 300 302 302 302 304 303 303 298 297 297 298 300 300 297 296 295 297 296 294 294 293 292
297 296 296 295 294 292 296 296 295 293 294 295 295 296 297 299 300 301 300 301 301 300 301 301 302 304 304 298 296 293 295 295 296 295 297 295 294 295 292 292 292 291 289 287
296 296 295 293 293 293 293 296 296 294 295 295 296 298 297 297 300 300 301 301 300 301 302 301 302 296 295 295 292 291 291 291 292 293 293 293 292 291 290 290 288 287 284 283
295 294 293 293 293 293 293 295 296 295 296 298 299 298 298 298 300 300 300 300 302 303 302 303 298 294 291 289 289 289 289 289 291 291 291 289 288 287 285 285 285 284 283 282
293 294 296 295 294 295 295 296 296 297 297 297 298 299 299 301 302 302 301 299 301 302 300 303 299 296 290 287 286 286 287 287 287 288 287 288 287 285 284 283 282 282 282 282
295 298 296 295 296 297 298 297 297 297 297 298 297 300 299 302 302 300 302 301 300 304 302 302 293 290 287 286 285 284 284 285 285 284 284 283 283 282 281 281 281 281 281 281
298 298 298 298 298 298 296 298 298 297 299 301 301 301 300 300 302 299 301 303 300 300 298 292 290 287 285 284 284 282 282 282 282 282 282 281 281 281 281 280 280 280 280 280
298 297 293 295 296 293 293 294 298 297 299 300 300 298 298 299 299 298 299 296 298 301 293 288 286 285 283 283 283 282 281 281 280 280 280 280 280 280 280 280 279 280 279 278
294 294 290 288 292 293 294 295 295 297 299 299 299 298 298 295 297 297 297 296 293 291 286 281 284 284 283 282 281 281 280 280 280 280 280 280 280 279 279 279 279 279 279 278
291 291 292 293 291 291 293 294 294 296 298 300 299 292 297 298 296 295 293 294 287 282 279 284 283 283 282 281 281 281 280 280 280 280 280 280 280 280 279 278 278 277 277 276
289 288 290 291 291 290 291 292 293 295 297 295 293 290 295 293 290 288 286 281 280 283 284 284 283 283 282 281 281 281 281 280 280 280 280 280 279 278 277 277 276 276 276 275

GFSNW_850_thetae_069.txt.gz
Theta_e
293 294 293 294 293 293 294 294 290 295 295 297 297 295 298 299 300 300 301 302 304 305 305 305 307 308 312 310 311 314 311 314 316 315 311 314 316 318 319 322 323 322 324 325
292 292 293 293 294 293 293 294 295 295 295 290 298 297 299 299 299 299 300 302 303 304 304 304 306 307 310 309 310 309 308 312 315 313 313 315 317 318 318 318 320 321 324 323
291 292 292 293 293 293 294 294 291 294 296 296 296 296 299 298 300 301 302 302 302 302 304 304 305 307 309 308 309 308 308 311 313 313 316 316 317 316 318 320 321 320 320 325
291 291 291 292 292 293 294 294 294 294 287 296 296 297 298 300 300 301 300 301 302 304 305 304 304 307 308 310 310 309 307 309 313 312 311 312 314 315 317 320 319 321 318 319
291 291 292 293 292 293 294 295 293 295 295 296 296 297 298 298 298 298 302 302 302 303 305 306 306 307 307 309 309 310 309 309 311 310 312 310 310 311 316 318 318 319 319 318
292 292 293 292 291 293 294 295 294 294 293 294 294 295 296 297 297 298 299 300 301 302 303 304 306 306 306 307 308 309 310 309 309 310 309 308 311 314 313 318 316 316 321 319
291 292 292 291 291 292 293 294 294 294 291 294 295 295 296 296 298 298 299 300 302 303 303 304 305 305 306 306 307 307 308 307 306 308 308 308 308 308 313 314 317 318 318 318
291 291 291 291 291 292 292 293 294 293 291 294 295 296 296 296 296 298 299 301 301 303 303 304 305 303 305 305 306 306 306 305 305 306 308 307 308 313 313 313 315 315 316 317
292 292 292 292 292 292 293 292 293 294 293 292 294 294 295 296 297 297 299 300 301 303 301 302 304 304 304 306 306 305 306 304 305 306 308 307 307 310 312 312 316 313 314 317
291 290 291 292 292 293 293 293 292 292 294 295 295 294 294 296 296 296 299 298 300 300 300 303 303 305 304 304 306 306 305 304 307 306 306 306 307 310 311 314 315 311 312 317
292 293 293 293 293 293 293 293 293 292 294 294 294 295 295 295 296 295 298 297 297 299 300 302 303 301 304 304 304 305 306 306 305 306 307 306 306 311 312 312 310 308 307 305
293 294 294 293 293 294 294 293 293 293 293 293 294 295 295 295 295 296 297 298 298 298 302 302 301 301 297 303 304 308 303 307 307 306 306 305 304 305 309 310 309 308 305 303
294 295 295 295 295 294 294 295 293 293 293 294 293 294 294 294 295 296 297 298 298 298 297 300 301 302 304 301 303 307 309 308 308 309 308 306 303 302 302 302 301 302 304 303
293 294 295 295 296 296 295 296 295 293 294 292 293 295 295 295 295 295 295 296 298 298 300 299 301 301 303 304 305 306 307 306 305 309 307 305 304 302 300 299 299 299 298 297
296 296 298 297 297 298 296 295 295 294 293 294 295 295 296 295 297 296 296 296 296 297 300 300 300 302 303 301 305 304 301 301 303 306 302 303 300 300 299 300 298 296 295 294
297 298 298 298 299 298 297 293 294 293 293 294 293 294 295 296 297 297 297 298 297 299 300 301 302 302 302 304 303 300 298 298 300 298 298 298 297 296 295 297 295 294 295 292
299 299 299 298 298 297 295 293 293 292 293 293 295 293 297 297 298 298 298 298 297 298 299 300 301 301 303 302 301 297 296 297 298 299 299 297 296 292 294 295 293 293 291 290
298 298 298 297 295 294 294 294 293 292 293 294 292 293 296 299 299 299 300 299 299 299 300 300 301 302 303 298 294 293 294 294 294 294 296 295 293 293 292 291 290 290 289 287
296 296 296 294 293 294 296 295 293 293 294 292 293 292 290 297 299 300 300 300 299 300 300 301 301 299 295 293 291 290 290 290 291 292 291 292 292 290 290 289 288 287 284 283
296 295 293 292 293 294 295 293 293 293 293 296 298 297 297 297 298 299 300 299 300 302 301 302 297 290 289 288 288 289 289 289 292 292 290 289 289 288 285 284 285 284 282 282
294 293 294 292 293 293 293 294 294 295 297 296 297 298 299 299 300 301 300 300 301 302 300 303 298 293 289 287 287 287 287 287 288 288 288 288 287 285 283 282 282 283 282 282
294 295 293 294 295 295 295 296 296 297 296 297 297 298 298 300 301 300 301 300 299 303 300 299 292 288 286 285 284 285 285 285 285 285 285 284 284 283 283 282 282 282 282 281
295 294 295 296 295 297 297 297 298 298 296 299 301 300 300 301 301 299 300 302 297 301 294 291 289 287 285 284 283 282 283 283 283 283 283 283 282 282 281 281 281 281 281 280
297 296 296 295 293 290 288 287 292 297 299 300 300 297 298 299 298 298 299 295 297 296 290 289 285 285 284 282 282 282 281 281 281 281 281 281 281 281 281 281 281 281 281 280
293 293 287 286 291 293 294 295 296 297 298 299 299 296 296 297 297 294 297 295 290 288 286 280 284 284 283 282 281 281 280 280 280 280 280 280 280 280 280 280 280 280 279 279
291 290 291 292 291 289 292 294 294 296 299 299 298 290 291 296 291 294 288 291 287 280 276 283 283 282 281 281 280 280 280 280 280 280 280 280 280 279 279 278 278 277 276 276
289 288 289 290 290 289 290 291 294 296 298 292 294 288 296 291 287 287 283 279 276 281 283 283 283 282 281 281 280 280 280 280 280 280 279 279 279 278 277 276 276 276 275 275

GFSNW_850_thetae_072.txt.gz
Theta_e
293 293 293 294 294 293 293 294 288 295 295 296 294 291 297 298 298 297 298 300 301 302 303 305 305 308 307 310 311 314 312 314 314 313 312 312 315 317 317 321 323 322 324 324
293 292 292 292 294 293 293 293 294 295 295 285 291 297 298 298 298 298 299 300 300 300 302 303 306 307 306 307 310 311 309 313 315 312 312 314 316 317 317 316 316 322 322 322
292 291 291 292 293 293 293 293 290 293 295 295 292 293 296 298 299 298 300 300 301 301 301 302 305 305 306 307 309 308 308 310 310 310 311 314 314 313 314 315 320 319 319 323
291 291 291 291 292 292 293 293 292 293 287 293 295 296 297 297 299 299 298 300 301 302 303 303 303 304 306 307 308 308 306 308 311 310 310 311 312 312 312 315 316 319 319 320
291 291 291 292 292 292 293 294 293 294 295 294 294 295 296 297 297 297 297 299 299 300 302 302 305 305 306 307 308 309 308 310 309 309 310 308 308 306 307 311 316 317 317 317
292 291 292 292 292 292 294 294 294 294 293 294 293 294 295 295 296 297 298 299 299 299 301 302 302 304 305 305 307 307 308 308 308 309 307 306 306 309 307 310 317 317 317 316
292 292 292 293 292 292 292 293 294 293 291 294 294 294 294 295 296 296 296 297 300 301 301 301 303 303 304 305 306 305 307 307 306 308 307 306 304 305 310 315 315 316 317 318
291 291 291 291 291 292 292 292 293 293 289 293 293 294 295 294 295 296 297 299 299 298 300 305 304 303 305 304 304 305 305 305 305 305 306 305 305 311 311 313 312 313 316 316
291 291 291 291 291 292 292 292 293 293 292 291 293 294 294 294 294 295 297 297 297 300 302 304 304 304 304 304 305 305 303 303 304 306 307 304 305 309 308 310 311 311 311 313
293 293 293 293 293 293 292 293 292 292 292 293 294 294 294 295 294 293 296 297 298 297 302 304 303 303 304 304 305 306 305 305 307 306 305 305 305 306 309 311 309 306 307 313
289 289 290 289 291 292 293 292 293 292 292 292 294 295 295 295 294 290 295 294 296 297 301 302 303 300 302 304 303 304 305 305 305 307 307 306 304 308 309 308 306 304 303 304
290 292 292 292 293 293 294 293 293 293 293 292 293 294 293 293 294 296 295 296 297 297 299 300 302 303 300 302 304 305 302 304 306 306 305 304 302 302 301 308 307 303 302 299
290 291 293 294 294 293 293 294 294 293 294 293 292 293 293 293 293 294 295 296 297 297 296 298 301 302 302 304 302 305 306 306 307 307 306 304 302 300 298 298 298 300 300 300
291 292 293 294 294 294 295 294 293 294 293 292 292 294 294 295 295 294 294 295 297 298 298 298 301 300 302 302 304 304 304 304 303 307 305 303 301 299 297 295 297 297 297 296
292 293 293 294 294 295 296 297 295 294 294 293 294 294 294 295 295 296 295 294 295 296 297 299 300 300 301 302 302 303 299 301 301 305 299 300 296 295 296 294 292 292 295 295
293 294 295 296 297 297 297 293 294 295 294 293 293 293 295 295 297 296 296 295 295 295 299 299 300 302 302 303 300 298 297 297 299 297 296 295 293 292 293 293 292 291 291 290
294 296 298 297 299 299 296 294 295 294 294 293 290 294 296 296 297 297 296 296 297 297 298 298 298 300 302 302 301 297 295 294 294 296 297 295 293 289 291 291 289 289 289 287
297 298 298 298 296 295 294 293 294 294 293 293 293 293 293 297 298 298 298 297 297 298 298 299 300 301 302 299 293 292 292 293 292 292 294 293 291 291 290 289 288 288 285 285
298 298 296 294 294 294 295 293 293 293 293 292 292 292 290 297 298 298 299 298 298 298 298 298 300 298 296 292 291 290 289 290 291 291 291 291 291 289 288 287 286 285 281 281
297 295 294 293 295 293 293 293 293 293 293 295 295 294 292 296 296 298 297 297 293 299 299 300 297 287 289 288 288 288 288 288 291 291 290 289 286 286 284 285 283 282 280 281
295 293 292 295 294 293 293 294 292 292 295 294 295 297 297 297 297 300 298 299 298 300 300 302 294 291 288 287 285 286 286 286 287 287 287 287 286 284 282 281 282 282 282 282
294 293 293 295 295 294 293 294 294 296 296 296 296 297 297 298 299 299 299 300 300 304 299 299 290 286 286 285 284 284 284 284 284 284 284 284 284 283 283 282 282 282 281 280
293 293 294 294 294 295 294 292 296 297 295 297 299 300 299 300 299 299 300 300 299 299 296 291 286 286 285 284 283 283 282 282 282 282 282 282 282 281 281 281 280 280 281 280
295 296 296 296 294 293 293 288 288 296 298 299 299 298 298 298 297 297 298 297 297 294 292 290 285 285 284 282 283 282 282 281 281 281 280 280 281 280 280 280 280 280 280 280
293 293 289 290 290 292 293 295 296 297 298 299 298 296 296 297 296 293 296 295 290 290 287 279 284 284 283 282 282 281 281 281 281 281 281 281 281 281 280 280 280 280 279 278
291 290 287 290 289 289 292 294 295 296 297 298 296 289 290 293 290 291 286 290 288 281 275 281 283 283 282 281 281 281 281 281 281 281 281 281 281 281 281 280 278 277 276 276
289 286 288 289 289 288 290 291 293 296 297 288 289 288 291 290 286 286 281 280 275 280 282 283 283 282 281 281 280 280 280 280 280 280 280 280 280 278 277 277 277 277 276 276

GFSNW_850_thetae_075.txt.gz
Theta_e
294 293 293 293 294 293 293 293 291 295 295 294 293 296 296 297 297 296 297 299 299 300 300 304 305 306 307 306 308 313 313 314 313 312 312 313 315 316 317 318 320 321 322 322
293 292 292 292 293 293 293 293 293 294 294 292 294 296 297 297 298 298 298 299 300 300 300 301 302 306 306 306 306 310 311 314 316 314 315 314 314 315 317 316 315 319 322 323
293 292 291 292 292 293 293 293 290 294 295 295 294 293 295 296 298 299 298 299 300 300 301 301 301 305 305 305 305 307 309 310 312 312 310 312 313 312 312 315 315 315 320 321
291 291 291 291 292 292 292 293 291 293 293 296 295 295 296 297 297 297 298 301 299 299 302 302 302 302 304 306 305 307 308 309 310 310 310 311 310 310 309 310 314 316 316 316
291 291 291 291 291 292 293 293 292 293 294 294 295 294 294 296 296 296 296 298 298 297 300 301 302 302 303 306 306 307 309 310 310 309 310 307 307 306 308 310 310 313 316 317
291 291 291 292 292 292 292 293 293 293 293 294 294 294 294 295 295 296 297 297 296 297 300 301 301 301 302 304 306 307 308 309 309 308 308 307 306 307 306 309 312 315 317 316
291 291 291 293 293 292 292 292 293 293 293 294 294 294 294 294 295 296 295 296 297 299 298 298 301 301 302 304 305 305 308 308 308 309 307 305 304 306 308 313 314 313 314 316
291 291 291 291 293 292 292 292 292 293 291 293 293 293 294 294 294 295 296 297 297 297 299 301 302 304 304 305 305 306 306 307 308 307 307 305 305 309 309 312 312 312 313 314
292 291 290 290 291 291 292 291 292 292 292 292 293 293 293 294 295 295 295 295 295 298 301 303 304 303 302 305 306 305 305 305 307 306 307 305 305 308 307 309 308 309 308 311
291 292 291 292 292 292 292 292 292 292 292 292 293 294 294 294 294 294 293 295 296 296 299 303 305 304 304 304 305 308 307 307 308 307 307 306 305 306 307 305 308 305 304 308
293 292 292 293 293 293 293 292 292 292 291 292 292 294 294 294 294 294 294 294 296 297 299 302 304 304 304 304 304 306 306 307 307 306 307 306 304 307 307 306 305 302 301 299
291 290 289 290 290 290 292 292 292 292 292 292 292 292 293 293 294 294 294 295 294 297 299 299 300 304 304 303 305 305 306 306 307 306 307 304 302 302 299 305 304 301 299 297
290 290 290 292 292 292 293 294 293 292 293 293 293 293 293 292 292 293 294 295 296 297 297 298 301 302 302 304 305 306 305 304 307 307 306 303 301 298 297 298 297 297 296 295
291 290 290 291 293 294 294 293 293 293 293 292 292 293 293 294 294 293 293 293 297 297 296 297 300 300 301 301 302 303 303 303 302 305 303 300 296 295 294 294 295 295 295 294
290 289 291 292 293 294 294 295 295 294 293 293 293 294 294 294 294 295 295 294 294 295 296 297 300 300 302 301 303 301 298 300 302 302 297 297 294 292 293 293 291 291 291 290
289 292 292 293 294 294 294 295 295 295 294 294 295 294 294 295 296 296 295 295 294 295 297 298 299 300 301 302 302 297 295 294 296 296 293 292 291 290 291 292 291 291 291 290
291 292 293 295 296 297 297 295 295 295 294 294 293 294 295 297 295 295 295 295 295 296 297 298 298 297 299 303 302 294 294 293 292 294 294 291 291 288 289 289 289 290 289 288
292 294 295 296 297 297 295 295 294 293 294 293 293 293 293 297 297 297 296 296 296 297 297 298 299 300 301 300 293 291 292 292 291 292 293 291 288 287 286 286 286 285 283 283
295 296 296 296 295 295 293 294 293 293 293 292 292 292 293 296 297 297 298 297 298 297 299 297 299 299 300 292 291 289 288 289 290 290 289 288 287 286 285 285 283 282 281 280
295 295 294 295 294 293 293 294 293 293 293 294 293 292 294 296 295 297 297 296 297 297 298 298 301 293 289 288 287 286 286 288 291 291 290 287 286 284 283 282 282 281 280 280
295 293 293 293 293 293 293 292 291 290 292 292 293 294 296 296 297 299 297 298 297 298 300 300 296 294 289 286 285 285 285 286 286 287 286 286 285 283 281 280 280 281 281 281
294 294 293 293 294 293 292 294 294 293 295 294 294 295 296 297 296 298 298 300 299 303 299 300 296 288 285 284 283 283 283 284 283 283 283 283 283 282 282 281 281 281 281 280
294 294 293 293 293 289 292 292 295 296 295 295 296 299 297 297 298 299 301 301 301 298 299 296 288 286 284 283 282 281 282 282 282 282 282 282 282 281 282 281 281 280 280 279
295 294 293 293 290 292 290 291 290 295 296 298 299 298 299 298 298 298 299 298 299 298 297 293 286 285 283 283 282 281 281 281 281 281 281 281 281 281 280 280 280 280 280 279
294 294 291 291 290 291 292 293 295 295 296 298 297 296 296 297 297 296 297 297 297 294 294 285 284 283 283 282 281 281 280 280 280 280 281 280 280 280 279 279 279 278 277 276
291 289 289 289 291 290 292 293 294 295 297 297 296 293 293 294 292 294 292 295 294 289 282 281 283 283 282 282 281 280 280 280 280 280 280 280 280 280 279 277 276 276 276 275
289 285 287 288 287 287 289 290 293 295 296 293 291 292 292 292 290 290 285 289 284 280 281 282 282 282 281 281 281 281 280 280 280 280 280 279 278 277 277 277 276 276 276 275

GFSNW_850_thetae_078.txt.gz
Theta_e
294 294 293 294 293 293 293 293 299 295 293 299 299 299 298 297 298 298 298 298 299 299 299 298 300 301 305 308 310 313 311 313 313 313 313 314 314 316 317 319 320 322 323 323
293 292 293 293 293 293 293 296 295 294 295 300 299 298 298 298 299 300 299 300 300 300 300 300 300 301 302 307 309 310 310 314 314 313 315 315 315 316 316 314 317 320 322 325
294 293 291 292 293 293 293 296 298 297 297 297 298 298 298 298 299 300 299 300 301 301 301 302 300 301 303 305 305 306 306 312 314 312 314 314 316 315 315 315 317 317 315 317
293 292 291 292 292 292 293 295 296 296 298 298 297 298 297 298 298 298 298 301 300 299 300 302 302 301 301 302 306 307 306 314 312 312 310 312 311 311 311 313 313 314 311 312
290 291 291 291 291 292 294 295 296 296 296 296 297 296 296 296 297 297 297 299 299 298 299 300 303 303 303 303 306 307 305 313 311 311 309 311 310 309 308 310 312 312 313 314
292 291 291 292 293 292 295 293 294 296 295 296 296 296 296 296 296 297 297 297 298 300 300 300 300 300 301 302 303 306 306 310 312 311 310 308 308 308 309 309 311 314 316 315
293 291 291 292 292 292 293 293 293 296 296 296 295 295 295 295 296 297 297 296 299 299 297 299 301 301 302 303 304 305 307 308 309 308 307 306 309 308 310 311 312 314 314 317
292 291 292 292 293 292 292 292 294 295 296 295 295 295 295 295 296 297 296 297 298 297 299 302 302 303 304 305 305 306 307 310 310 307 307 306 306 310 310 311 312 313 313 314
293 291 292 291 291 293 292 293 293 294 295 295 294 295 295 296 297 297 297 296 297 299 301 302 303 304 302 302 304 306 305 307 310 308 306 305 311 309 308 309 311 310 309 311
293 292 291 290 291 291 292 293 292 293 294 294 295 296 296 295 296 297 297 296 298 298 301 302 305 305 304 302 304 307 308 308 309 308 307 307 308 308 308 307 311 307 305 303
291 291 292 292 292 292 293 294 292 294 293 294 293 294 295 295 296 298 296 298 298 299 301 301 302 306 305 305 305 306 306 308 309 308 307 307 306 309 310 307 306 304 301 298
292 293 292 292 293 294 293 294 293 292 293 294 293 293 293 294 295 295 295 296 296 297 300 300 300 305 305 305 305 306 307 308 309 308 310 305 303 303 300 302 302 301 299 296
293 292 291 290 290 291 291 294 293 292 292 293 294 295 295 293 293 294 295 297 297 297 296 298 300 303 304 305 306 306 306 304 307 308 302 301 300 298 295 295 295 294 294 293
292 290 290 290 291 291 292 293 293 293 293 295 296 294 294 294 293 293 294 295 295 296 297 297 300 302 302 304 304 305 302 304 303 304 300 298 296 295 295 294 293 293 292 292
291 290 291 290 291 292 294 294 294 293 294 297 296 295 294 294 294 294 294 294 295 296 296 299 300 301 302 304 303 302 299 299 302 304 297 297 294 292 293 292 291 291 291 290
291 290 289 290 292 292 293 295 294 295 294 294 297 296 294 294 296 296 295 296 296 296 297 298 300 301 301 302 304 297 296 295 295 296 293 292 291 290 290 290 289 290 289 288
289 288 290 292 293 294 295 296 296 295 295 294 296 296 295 294 296 296 296 296 297 297 298 299 299 299 300 303 304 296 294 293 293 293 293 293 292 290 288 288 288 287 287 286
288 290 292 293 294 295 295 296 296 295 293 294 297 296 296 297 298 298 297 298 297 298 299 299 300 300 301 302 294 293 293 292 291 291 293 291 289 289 288 287 287 287 286 285
290 293 294 295 295 294 294 294 294 293 294 296 295 298 299 296 298 298 298 298 299 299 300 300 299 300 301 294 292 290 289 290 291 290 290 290 289 288 287 287 286 286 284 283
294 294 295 295 294 294 293 293 293 294 295 295 296 295 298 297 297 297 298 298 300 300 300 299 301 300 291 289 288 288 288 289 290 291 290 290 288 287 286 285 285 284 283 281
295 294 294 294 293 294 295 294 295 294 295 295 295 296 298 297 300 300 298 299 300 299 301 301 302 300 291 288 286 286 286 286 286 287 286 287 287 285 284 283 282 281 280 279
295 294 294 293 294 294 295 295 295 295 295 297 296 295 296 298 299 300 299 300 300 301 301 302 302 291 288 286 285 284 284 284 283 284 283 283 283 282 281 280 279 280 281 281
293 293 294 294 294 295 295 295 296 297 296 297 297 297 297 298 298 299 301 301 304 301 304 303 295 288 286 285 284 283 282 281 281 281 280 280 279 280 280 280 280 280 280 280
295 295 294 296 295 296 297 298 298 297 297 298 297 298 299 297 299 301 302 301 301 304 303 301 292 287 285 284 282 282 280 280 280 281 281 281 281 281 281 280 280 280 280 279
295 295 296 295 295 293 293 294 295 295 296 297 298 298 298 300 300 300 300 301 303 301 301 294 288 285 282 281 281 281 281 281 281 280 280 280 280 280 279 279 279 278 277 276
292 291 293 291 294 294 294 294 295 295 296 297 298 299 300 299 298 299 299 300 301 297 290 286 283 282 282 282 281 281 281 280 280 280 280 280 280 280 279 277 277 276 276 276
290 290 287 290 291 294 292 292 293 294 295 300 298 299 298 296 297 297 294 298 293 286 285 284 282 281 281 281 280 280 280 280 280 280 280 279 278 277 277 277 276 276 275 275

GFSNW_850_thetae_081.txt.gz
Theta_e
295 295 293 293 293 293 295 298 303 297 298 302 302 303 301 298 300 300 300 301 301 301 301 302 302 302 302 305 308 311 313 317 313 311 313 314 314 316 317 320 318 320 322 323
295 294 294 294 293 294 297 299 299 296 300 304 302 300 300 300 301 301 301 301 301 302 302 302 302 302 302 302 304 309 308 313 314 313 313 314 314 314 316 318 318 319 322 323
294 293 293 292 293 293 298 299 302 299 299 300 301 301 300 300 300 301 300 301 302 302 302 303 303 303 303 302 304 306 306 307 312 313 313 315 317 314 316 318 319 318 319 317
295 293 291 292 292 293 297 299 301 301 301 301 300 300 300 300 300 300 300 302 302 301 301 301 302 303 304 304 302 304 308 308 308 311 311 313 314 316 316 317 316 315 314 313
292 292 291 292 292 293 298 297 299 298 300 299 300 297 299 298 299 299 300 300 300 300 301 301 302 303 304 303 304 306 307 307 308 309 313 312 312 314 312 312 310 311 312 313
290 291 292 291 291 296 297 296 297 300 298 299 300 300 299 298 298 298 298 299 300 300 301 301 300 300 301 303 304 304 305 307 308 308 314 312 312 312 311 310 311 312 315 316
292 291 292 292 293 295 296 296 297 298 300 299 298 297 297 298 298 299 298 298 299 299 299 299 300 301 302 303 304 304 306 306 307 309 313 313 310 309 310 310 311 314 314 315
293 291 292 293 293 293 296 295 297 297 299 298 297 297 297 297 297 299 298 298 298 298 299 302 303 303 304 305 305 305 305 306 307 313 311 309 308 310 311 312 315 313 312 312
293 292 292 292 293 293 295 295 296 296 298 298 296 296 297 298 299 299 298 298 298 299 301 303 303 303 303 304 304 304 305 307 307 310 310 309 312 310 310 310 313 310 310 310
293 291 291 292 291 292 295 296 295 296 297 297 296 298 299 297 298 299 299 299 299 300 302 303 305 304 305 305 304 306 307 308 309 311 309 310 310 309 309 309 313 308 306 303
295 293 292 291 290 291 294 296 295 295 295 297 296 296 296 297 297 299 299 299 300 300 302 303 303 302 306 306 305 306 307 307 308 309 309 310 307 310 312 307 306 305 302 298
294 291 291 291 292 293 293 296 295 295 295 297 296 296 296 296 296 297 297 298 298 299 301 301 301 304 306 307 307 307 308 308 311 310 310 304 302 302 300 302 302 301 299 295
291 291 293 293 293 294 294 296 295 294 295 296 297 297 297 297 296 296 297 298 298 299 298 300 301 304 305 306 307 308 307 305 308 309 301 300 299 298 297 296 296 295 294 294
292 293 292 291 291 291 292 295 295 295 296 297 299 297 297 296 296 296 296 297 297 296 297 298 301 302 303 305 305 306 304 305 304 303 300 300 297 296 296 295 293 293 293 292
293 292 291 290 290 292 292 294 295 295 296 298 298 298 297 297 297 297 296 296 296 297 298 299 301 302 304 304 305 303 300 299 302 304 299 298 295 294 294 294 294 293 292 291
293 291 290 291 290 291 293 295 295 294 295 296 298 298 297 297 297 297 297 297 297 297 297 298 300 301 302 303 305 299 297 296 295 297 295 294 292 292 292 292 291 290 290 290
292 291 290 290 290 292 295 296 296 295 295 294 298 298 298 297 298 298 298 297 297 297 298 299 300 300 301 303 305 298 295 294 295 294 295 295 294 292 291 291 290 290 289 289
290 289 288 290 292 293 294 294 294 295 295 294 298 299 298 297 298 298 298 298 297 298 299 300 301 301 301 303 296 295 294 293 293 293 293 293 292 292 291 291 290 290 288 287
288 288 291 292 293 295 295 295 295 295 295 297 297 299 300 298 298 299 298 298 300 299 301 301 301 302 302 297 295 293 291 292 293 292 293 292 292 291 290 290 290 289 287 286
290 292 294 294 294 295 294 294 293 294 295 296 298 298 300 298 298 298 299 299 300 301 302 300 301 301 293 292 291 291 291 291 292 294 293 292 291 290 289 288 287 287 285 284
292 294 295 295 294 295 296 296 297 296 297 297 297 298 300 298 300 300 299 301 301 301 302 302 303 302 293 290 290 289 289 289 290 290 289 289 289 288 287 285 284 284 283 281
294 294 294 294 295 296 296 297 296 297 297 298 298 298 298 299 299 301 301 301 301 301 302 302 304 294 290 289 288 287 287 287 286 286 286 286 285 285 284 282 281 279 279 280
294 294 294 296 295 297 296 296 297 299 298 299 298 298 298 299 299 300 301 301 303 303 304 304 297 291 289 288 287 286 285 284 283 283 282 282 281 281 280 278 279 280 281 281
296 296 296 297 297 297 299 300 301 299 299 299 298 298 299 300 300 300 304 304 304 304 305 303 295 290 288 287 285 285 282 282 281 280 279 278 280 281 281 281 281 281 281 280
297 296 298 298 297 296 296 296 297 297 297 298 298 300 299 301 302 301 302 303 305 304 303 296 290 287 285 284 282 280 279 279 279 279 278 279 280 280 280 280 280 279 278 277
295 295 295 294 295 295 295 296 297 296 296 298 298 302 302 302 302 301 302 303 304 299 293 289 286 285 283 282 280 280 280 280 279 279 279 280 280 279 280 278 277 277 276 276
293 293 291 293 295 296 295 295 295 295 297 302 302 302 303 300 301 301 299 301 296 290 288 287 285 283 281 279 279 279 279 280 279 279 279 279 279 278 277 277 277 276 276 276

GFSNW_850_thetae_084.txt.gz
Theta_e
295 294 293 293 293 293 298 301 306 299 299 306 305 305 303 299 301 301 302 302 302 302 302 302 303 303 303 303 304 303 308 312 315 314 313 314 314 314 317 319 317 319 320 321
295 295 293 294 293 297 299 301 301 295 303 308 305 302 301 301 302 302 302 302 302 303 302 302 303 303 303 303 303 304 307 309 311 311 312 312 313 314 317 319 319 319 320 320
295 294 294 293 293 295 299 301 304 301 301 302 304 302 301 301 301 302 301 302 302 303 303 303 302 302 303 303 304 304 305 306 307 312 312 311 314 316 316 316 320 318 318 317
295 294 292 292 292 295 299 301 304 303 304 302 302 302 301 301 301 301 301 302 302 303 302 302 302 303 303 303 303 304 305 304 305 307 309 308 311 314 314 315 318 318 316 314
293 294 291 292 292 297 300 297 303 301 302 301 302 299 300 301 301 300 302 301 301 301 301 301 302 302 302 303 303 304 305 306 305 305 306 308 311 312 313 314 316 316 316 314
291 292 291 292 292 298 299 298 299 302 300 301 301 302 301 300 299 299 299 300 300 300 300 300 301 301 301 301 302 304 304 305 306 306 306 308 313 312 311 312 314 313 315 317
291 291 291 292 295 297 298 298 299 301 302 301 300 300 299 299 299 299 299 299 300 300 300 299 300 300 301 302 303 303 305 305 306 307 308 308 310 311 311 311 315 314 313 314
292 292 292 293 294 296 298 296 299 299 302 300 299 298 298 298 298 299 299 299 299 299 299 301 302 303 303 304 304 304 305 305 307 308 308 309 311 311 311 312 313 310 311 311
293 292 292 293 293 295 297 297 297 298 302 299 298 298 298 299 300 300 300 299 299 299 302 302 303 303 303 304 306 305 304 306 306 306 308 313 314 310 310 310 315 308 308 306
293 291 292 292 293 294 296 297 296 298 299 298 297 300 301 299 299 300 300 300 299 301 302 303 304 304 303 304 306 304 305 306 306 307 308 312 305 308 309 310 311 305 303 300
293 292 292 292 292 292 295 297 296 297 298 298 297 297 298 299 299 300 300 300 300 301 302 303 302 302 303 308 306 305 305 307 308 308 312 311 303 306 308 305 303 302 299 296
293 294 292 291 290 291 295 297 295 295 296 298 298 298 298 298 298 298 298 299 299 300 301 301 301 302 306 306 308 307 309 308 309 305 306 302 300 300 299 299 299 299 297 295
294 294 291 291 292 294 294 296 296 296 296 298 299 299 299 298 298 297 298 299 300 299 299 300 301 302 304 305 306 306 305 305 307 306 301 299 298 298 296 295 296 295 294 293
293 291 291 293 293 293 294 296 296 296 297 298 300 299 298 298 298 298 298 298 298 298 298 299 300 301 303 304 305 305 301 302 302 302 301 299 296 295 296 295 294 293 293 292
292 292 293 292 292 292 292 295 295 296 297 299 298 299 298 298 298 298 298 298 298 298 298 299 300 300 304 304 305 301 298 298 299 301 298 297 295 294 293 293 294 294 292 290
292 293 292 291 289 290 294 294 295 295 296 297 298 300 299 299 298 299 299 298 298 297 298 298 299 300 303 303 304 298 296 296 295 296 294 293 293 293 293 292 291 291 290 290
293 292 291 291 290 292 294 296 296 296 296 295 298 299 299 299 298 299 299 299 298 297 298 299 300 300 302 304 304 297 295 294 295 295 295 295 293 292 292 291 291 290 290 289
293 292 291 290 290 291 294 294 295 295 295 295 298 299 300 299 299 299 300 299 297 298 298 300 302 301 302 303 297 295 295 294 293 294 294 293 293 293 292 292 291 290 289 287
292 291 288 290 291 294 293 294 294 295 295 297 298 299 300 299 299 299 299 299 300 299 301 301 301 303 303 298 296 294 293 293 293 293 294 293 293 292 292 291 291 289 287 285
288 289 292 293 293 293 294 294 294 294 295 295 299 298 300 299 299 300 300 299 300 301 302 301 303 302 295 294 293 293 292 292 293 295 294 293 292 290 289 288 287 286 285 284
290 292 294 295 294 295 295 296 296 296 298 298 298 298 300 299 300 300 299 301 302 302 303 303 303 301 294 292 291 291 290 290 290 290 289 289 289 288 287 285 283 283 282 281
291 294 294 294 294 296 298 298 298 299 298 299 299 299 299 300 300 301 301 301 302 301 303 303 303 294 291 290 289 289 288 287 287 287 286 286 286 285 283 282 281 281 281 281
292 295 295 296 297 298 297 297 297 298 298 300 299 302 299 300 300 301 301 301 302 303 304 304 297 292 290 289 288 287 286 285 284 284 283 283 282 282 280 279 279 280 281 280
295 296 297 298 297 297 299 300 302 300 300 300 299 299 299 300 301 300 300 303 303 305 304 303 295 291 289 288 287 285 283 282 282 281 280 279 281 281 281 280 280 280 280 279
296 298 299 298 298 297 297 298 298 298 299 300 299 300 300 300 300 301 302 303 304 304 302 296 291 288 286 285 284 282 281 281 280 279 279 279 279 279 280 280 280 279 278 277
296 296 296 296 297 297 295 296 298 297 297 298 298 301 301 302 302 302 302 303 304 298 293 289 287 286 285 283 282 281 281 281 279 279 279 279 278 279 279 278 278 277 277 277
295 295 293 295 297 297 296 296 297 296 298 301 301 304 304 301 302 302 302 301 295 291 289 288 286 284 282 281 281 281 280 280 280 280 279 279 279 279 279 279 278 277 277 277

GFSNW_850_thetae_087.txt.gz
Theta_e
297 295 294 294 293 293 298 301 303 299 299 304 307 305 303 300 301 301 302 302 302 301 303 302 302 302 303 304 303 303 307 309 307 307 307 308 311 315 314 315 316 317 319 321
295 295 293 293 293 296 299 301 300 297 304 304 303 302 301 302 302 302 302 302 303 303 302 302 303 303 303 303 304 305 305 306 307 305 307 310 312 312 312 315 317 319 319 319
295 294 293 293 293 297 299 302 301 300 301 302 303 301 301 301 301 301 301 302 303 302 302 302 302 302 303 303 303 304 304 305 305 306 306 307 310 310 310 313 317 319 318 316
294 293 293 292 293 299 300 300 302 302 301 300 301 302 301 303 302 301 301 302 302 302 302 301 300 302 302 303 303 303 303 303 303 304 304 304 305 308 309 311 313 316 318 317
294 293 291 292 293 299 299 300 301 301 301 301 301 300 300 301 301 300 301 301 301 300 300 300 300 301 301 302 302 302 302 302 303 303 303 305 305 305 308 310 314 316 315 315
292 292 291 292 296 299 299 299 300 301 301 300 300 299 301 300 300 300 299 300 299 300 300 300 299 299 299 300 300 300 300 299 304 302 304 306 307 308 308 312 314 313 315 314
290 291 291 292 298 297 298 297 299 301 300 298 300 301 300 299 299 299 298 298 299 300 299 298 299 300 300 300 300 300 300 301 303 303 304 306 305 308 310 313 311 311 312 308
291 291 292 295 297 297 297 297 299 299 298 301 299 299 298 298 298 298 298 299 299 299 299 299 300 300 301 302 302 303 302 302 304 305 304 306 308 309 308 312 311 307 307 305
293 291 292 293 295 297 297 297 298 299 301 297 298 298 298 297 298 298 300 300 300 299 297 297 302 302 302 304 305 305 303 302 302 306 306 306 309 306 303 305 312 304 302 301
293 291 292 293 293 295 295 295 297 298 299 297 299 298 299 299 298 297 300 299 299 300 294 293 301 302 302 304 307 304 303 304 305 305 304 307 304 301 303 310 307 300 298 295
293 292 292 293 293 294 296 295 296 297 298 298 298 298 298 298 299 295 299 297 297 297 296 301 295 295 300 302 307 306 305 306 307 306 306 307 299 302 304 303 300 298 295 293
294 292 292 291 291 292 296 296 294 295 296 298 297 297 297 298 298 298 298 298 300 299 294 296 297 301 302 304 306 304 308 306 305 304 303 300 298 297 297 297 298 296 295 293
293 294 292 291 290 292 296 296 296 297 297 298 299 299 299 297 297 296 298 300 299 299 298 298 297 299 301 304 305 304 302 301 304 303 299 297 296 296 295 295 294 293 293 291
292 294 291 292 293 294 295 296 296 296 297 297 300 299 298 298 298 298 297 297 298 298 298 299 295 297 301 303 303 301 299 299 300 301 299 296 295 295 295 294 293 292 291 290
294 292 292 293 293 293 293 295 296 296 296 297 297 298 299 298 298 298 298 298 298 298 298 295 296 298 301 301 301 298 297 297 297 298 296 296 294 293 293 293 293 291 290 289
293 292 293 292 292 291 292 294 294 295 296 296 292 298 299 299 299 298 299 298 297 297 297 297 298 299 301 297 298 296 295 295 295 295 294 293 293 292 292 291 290 290 289 288
292 293 292 291 290 292 294 295 296 296 296 295 295 297 299 299 299 299 299 299 298 297 297 297 298 299 301 297 299 296 294 294 294 294 294 293 293 292 291 291 290 289 288 288
293 293 291 290 290 292 294 294 294 295 294 294 295 295 299 299 298 298 299 299 298 297 297 298 299 301 301 299 296 295 294 294 293 293 294 293 293 293 292 291 289 288 287 286
293 292 291 290 290 292 293 294 294 294 294 295 295 293 292 299 299 299 299 298 293 297 295 299 300 294 297 297 295 293 293 294 294 294 293 293 292 291 290 290 288 287 285 284
291 290 289 293 292 293 294 294 294 293 295 295 295 298 294 299 299 298 298 299 295 297 298 301 294 295 294 294 293 292 293 293 293 294 292 292 290 289 288 287 286 285 284 283
289 290 292 294 293 294 295 294 294 294 296 295 297 297 296 299 293 295 299 298 298 300 301 298 296 297 293 292 291 290 290 290 290 290 290 290 288 287 286 285 284 284 283 283
289 293 294 294 295 295 296 296 295 296 297 298 298 298 298 299 299 299 300 299 297 300 300 298 295 294 291 290 289 288 288 288 287 287 287 286 286 286 285 284 283 282 282 282
291 295 294 294 295 297 293 292 294 292 298 298 299 294 299 299 299 299 300 300 298 302 301 298 294 291 290 288 287 286 285 285 284 284 284 284 283 283 282 282 281 281 282 281
293 295 293 294 293 291 291 294 294 299 299 299 299 299 299 299 297 295 299 295 300 303 300 298 292 290 289 287 286 286 284 283 282 282 282 282 282 281 281 282 281 281 281 279
294 296 295 291 297 297 297 297 298 298 298 299 297 298 299 298 297 298 297 298 299 301 297 292 288 288 288 286 285 284 282 281 281 281 281 281 281 282 281 281 279 278 277 277
294 296 296 296 297 296 295 295 296 297 297 298 298 298 299 297 296 299 300 302 300 295 291 288 287 286 285 284 283 282 281 281 281 281 281 282 281 280 279 278 278 277 277 277
295 295 294 294 296 296 295 295 297 296 296 297 298 299 299 300 299 298 295 297 293 290 289 287 286 285 284 282 282 281 281 281 281 281 281 279 279 280 280 280 279 279 278 278

GFSNW_850_thetae_090.txt.gz
Theta_e
297 296 296 293 293 297 299 301 301 300 301 303 304 302 302 301 302 302 302 302 303 303 303 303 302 303 304 303 303 303 305 306 307 304 305 305 307 311 315 316 315 314 314 315
295 295 294 293 293 295 299 301 298 295 301 301 300 301 302 302 302 302 303 302 303 302 302 302 303 302 302 303 303 303 303 303 303 300 302 306 307 307 308 310 312 314 317 315
295 294 293 293 293 298 300 301 297 299 300 302 301 301 301 301 301 301 302 303 303 302 302 301 301 302 303 301 303 304 303 302 303 302 302 304 303 303 304 308 311 313 313 316
295 294 293 293 294 299 300 301 300 301 299 300 300 301 302 302 301 301 301 301 302 301 302 300 300 301 301 301 302 302 302 302 303 303 303 303 304 304 303 305 306 311 314 315
294 292 292 292 296 299 299 301 300 301 300 301 300 300 300 302 300 301 301 300 301 299 299 299 299 299 300 300 301 300 299 301 300 299 300 302 302 304 304 305 305 308 310 315
294 291 291 292 297 299 298 299 300 301 299 298 299 298 300 300 299 300 298 299 298 298 299 299 298 298 299 298 299 298 298 297 300 299 302 303 303 305 305 305 309 312 314 313
293 291 292 294 298 298 298 298 300 300 297 297 299 300 300 299 299 298 297 297 298 299 298 298 298 298 298 298 298 298 297 298 300 302 302 304 305 307 308 310 309 309 308 308
291 291 292 297 297 297 298 299 299 299 296 299 299 299 298 297 298 297 298 300 299 299 299 299 300 300 300 301 300 300 299 300 302 302 304 304 304 308 305 304 307 303 304 305
291 292 294 296 297 296 298 298 298 300 296 296 298 297 297 296 296 297 299 299 300 300 295 296 301 300 301 303 302 302 302 300 301 304 305 303 304 301 302 303 307 301 299 298
292 292 292 294 296 296 296 297 298 298 297 297 299 298 297 298 296 295 298 299 298 299 290 291 298 300 301 304 302 305 302 303 303 303 304 304 300 300 300 308 304 297 295 294
292 292 293 293 295 295 295 296 297 298 298 298 298 298 298 298 298 293 297 295 296 295 295 297 292 293 298 302 303 305 305 306 305 305 305 305 297 299 301 300 297 295 293 292
292 292 292 293 293 295 294 294 296 297 297 297 297 297 297 298 298 297 297 297 298 297 292 293 294 297 298 302 305 303 303 301 303 302 300 298 296 296 296 296 296 294 292 291
293 292 291 291 292 296 295 295 294 295 298 298 299 299 297 295 295 295 298 299 299 298 298 295 293 295 298 301 303 302 300 299 302 300 298 297 296 295 294 293 292 291 291 290
294 293 291 290 291 296 296 295 295 296 297 296 299 298 298 298 298 297 296 297 298 297 298 297 291 295 298 299 302 298 298 298 298 298 297 295 294 294 293 292 291 291 290 289
294 292 292 293 293 294 295 295 296 296 296 295 297 299 299 298 297 297 298 297 297 297 297 292 293 296 297 298 297 297 296 296 297 294 294 294 293 292 292 292 290 289 288 287
294 291 293 292 292 293 293 293 294 295 295 295 291 297 298 298 298 298 298 298 297 297 297 296 297 298 299 296 295 296 296 295 295 294 293 293 292 291 291 290 289 288 288 287
293 292 292 292 291 291 294 294 295 295 295 295 290 294 298 299 298 298 298 298 298 297 296 296 296 297 300 296 298 295 294 294 294 294 293 293 292 291 290 290 289 288 287 286
293 293 291 290 290 293 294 294 295 295 294 294 289 293 298 298 298 298 298 298 298 297 296 297 297 299 300 297 295 294 294 293 293 293 294 293 292 291 290 289 288 287 286 286
293 291 290 290 290 291 293 294 294 294 294 294 294 290 289 299 298 298 299 298 291 296 292 295 298 294 297 295 295 294 294 294 293 294 293 291 290 291 290 288 287 287 285 284
292 291 289 290 291 292 293 294 294 294 293 293 294 295 293 298 298 296 297 297 293 294 295 299 293 295 294 294 293 293 293 293 294 293 292 290 290 289 288 287 286 285 284 283
291 289 292 294 293 294 294 293 292 292 294 293 294 295 294 299 291 292 298 298 298 300 298 299 296 296 293 291 291 291 291 291 291 291 291 290 289 288 286 285 284 284 283 283
289 292 294 293 293 293 294 293 293 293 295 296 296 297 296 298 299 297 298 299 298 301 298 297 293 291 290 290 289 289 289 289 288 288 288 287 287 286 285 284 283 283 283 282
293 294 295 293 294 295 292 289 292 289 296 298 298 297 298 299 299 298 298 300 298 299 295 296 290 289 288 288 288 287 286 286 286 285 285 285 285 284 284 284 283 283 283 282
291 294 293 293 289 287 288 289 288 297 299 298 298 298 298 299 294 290 298 294 300 297 296 295 288 289 287 287 286 286 285 284 284 284 283 284 284 283 283 283 282 282 281 280
293 294 291 288 294 296 296 297 297 297 297 298 297 296 298 292 294 297 296 299 299 299 296 288 288 288 288 287 285 285 284 283 283 283 283 283 283 283 283 282 280 278 278 278
292 295 295 295 295 294 295 295 296 296 297 297 297 296 297 298 295 299 298 301 300 289 286 288 288 287 287 286 285 284 283 283 283 282 282 282 282 280 279 279 278 278 278 278
294 294 293 294 295 295 295 294 295 295 296 295 297 298 297 298 295 297 295 296 284 288 287 288 288 287 286 285 283 283 283 282 282 282 281 280 280 281 280 280 279 279 279 278

GFSNW_850_thetae_093.txt.gz
Theta_e
298 297 297 293 292 294 298 301 299 299 297 303 303 304 303 302 302 302 302 303 304 303 303 302 303 302 303 303 303 303 303 304 305 302 303 303 303 310 311 312 312 310 314 312
296 297 295 293 295 298 299 300 298 299 300 302 301 300 301 302 302 302 302 302 303 302 302 302 302 302 302 301 303 302 302 301 301 298 301 303 304 303 304 305 308 310 313 312
295 294 293 293 294 297 299 300 295 298 298 302 301 301 301 301 301 301 302 303 302 301 302 301 301 302 302 301 303 304 302 302 301 301 300 302 303 302 303 304 303 306 307 308
294 294 293 293 294 298 299 301 298 300 299 299 300 300 302 302 301 301 301 301 301 301 302 300 300 300 300 300 302 302 300 301 302 302 301 300 299 300 301 302 303 304 304 307
294 293 293 293 295 299 299 300 299 300 300 300 299 299 301 302 301 302 301 301 300 299 299 299 299 299 299 299 299 299 298 300 299 300 298 297 300 301 302 302 302 303 303 304
294 292 292 292 298 299 298 299 300 300 298 298 298 299 300 300 299 299 298 299 298 298 298 298 298 298 298 298 299 298 298 296 298 299 300 301 301 303 306 303 302 305 305 308
292 291 292 294 298 298 298 299 300 299 297 297 299 300 299 299 298 298 297 298 297 298 298 298 298 298 296 297 297 297 296 297 296 299 300 301 303 304 304 307 306 307 309 305
291 292 295 297 297 298 299 300 299 300 296 298 298 298 298 297 297 297 299 299 299 299 299 298 299 299 300 300 299 298 297 298 296 297 300 302 303 304 303 304 305 302 304 302
291 292 296 297 297 297 298 299 299 298 296 296 297 296 296 296 296 297 298 298 299 299 293 295 300 299 300 302 302 301 298 299 300 303 298 301 300 300 300 302 305 299 298 298
291 293 295 296 296 296 297 298 299 298 297 297 298 297 297 297 295 295 296 298 298 297 289 290 292 299 300 303 299 304 302 301 301 301 302 302 298 298 298 305 302 295 294 293
291 292 294 295 295 295 295 297 297 297 297 297 298 297 297 298 297 293 296 294 294 293 294 294 290 290 299 299 298 303 304 302 304 303 304 304 296 298 299 298 295 293 292 291
291 292 293 293 294 295 295 297 298 297 297 297 297 297 297 297 298 297 296 295 296 295 292 292 292 295 295 297 301 301 302 300 301 299 299 297 295 295 294 295 294 293 291 290
292 292 292 293 294 296 294 296 296 296 297 298 298 296 295 295 295 296 298 298 298 297 297 292 291 295 296 296 298 298 299 298 300 299 297 295 295 293 292 292 291 291 290 290
292 292 291 291 295 295 295 295 296 297 298 296 298 298 298 297 296 295 297 298 297 297 297 295 289 294 296 297 299 295 296 297 298 297 296 294 293 293 291 290 290 289 288 288
293 291 290 290 296 295 295 295 296 296 296 295 298 298 298 298 297 297 297 296 296 297 295 291 292 295 295 298 294 294 296 296 297 295 294 294 293 292 292 290 289 288 287 287
293 292 293 293 294 295 294 294 295 295 295 295 292 297 298 297 298 298 298 297 297 296 296 294 295 297 297 294 292 295 296 294 295 293 292 292 291 291 290 289 288 288 287 286
292 292 292 292 293 293 293 294 294 295 295 294 290 295 297 297 298 298 298 297 298 297 296 295 295 296 298 292 294 295 294 294 294 294 292 292 292 291 290 289 288 286 285 285
292 292 292 291 292 294 294 294 294 294 294 294 288 292 297 298 298 298 298 298 298 297 296 295 295 297 299 296 294 294 293 293 293 293 293 292 291 290 289 288 287 286 285 284
292 291 290 289 293 294 294 294 294 294 294 294 292 291 290 298 297 298 298 298 292 295 290 294 295 292 298 295 294 294 294 293 293 293 293 292 292 290 288 288 287 286 285 284
291 290 289 290 290 293 294 294 293 293 293 293 292 294 291 298 296 294 295 296 293 293 294 296 291 294 293 294 294 294 293 293 293 291 290 290 290 289 288 287 286 285 284 283
291 290 292 292 292 293 293 292 292 292 294 293 293 294 293 298 291 291 296 296 295 298 295 295 296 295 292 292 293 292 292 292 293 293 292 291 290 289 288 286 286 285 284 283
290 293 292 292 292 293 293 293 292 293 294 294 293 296 295 297 298 295 296 299 298 300 298 299 294 288 290 290 291 290 290 290 290 290 291 290 288 287 286 285 284 283 283 283
293 293 293 293 293 293 291 291 293 289 294 296 296 291 296 297 298 296 293 300 298 297 298 293 288 289 288 289 289 288 288 288 288 288 287 287 286 285 284 284 283 283 283 282
292 293 293 291 290 289 287 288 287 295 298 297 298 297 298 298 293 291 296 290 296 295 295 294 286 288 288 288 287 287 286 285 285 285 285 285 284 284 283 283 283 282 282 281
293 294 290 290 292 294 295 296 296 297 297 297 296 295 296 289 289 296 295 298 298 299 296 286 288 288 288 288 287 286 285 284 284 284 284 283 283 283 283 282 280 279 278 278
292 293 294 294 294 294 295 295 295 296 297 296 297 292 290 294 295 297 297 299 297 293 284 289 289 289 288 287 286 285 284 283 283 283 283 283 282 281 280 279 279 279 278 278
293 293 293 294 294 295 294 294 295 295 296 295 296 297 294 295 297 296 295 295 283 289 289 290 290 289 288 286 285 284 283 283 283 282 282 280 280 280 280 279 279 279 279 279

GFSNW_850_thetae_096.txt.gz
Theta_e
299 298 298 297 297 298 294 300 298 298 299 301 302 302 304 302 302 302 303 303 304 303 303 303 303 303 303 302 302 302 302 304 303 301 301 303 303 309 308 308 311 308 311 310
298 298 296 293 293 297 299 299 299 299 299 302 302 302 302 302 303 302 303 303 303 302 302 302 303 302 301 303 302 301 300 301 299 298 301 301 303 302 304 304 304 304 307 308
297 297 295 293 295 297 299 298 294 298 299 300 300 300 302 302 301 302 302 302 302 302 302 301 301 302 301 300 304 303 302 301 299 297 299 301 302 302 301 301 294 298 301 302
296 294 294 293 295 297 298 300 295 298 296 298 299 300 302 302 301 301 301 301 301 301 300 300 300 299 299 300 301 300 300 301 301 301 301 299 300 298 297 299 300 299 298 300
295 294 293 293 294 297 299 299 299 300 299 300 300 300 301 302 301 301 300 300 299 299 299 299 299 299 298 298 298 298 297 300 299 299 299 297 298 298 298 299 300 301 301 301
294 293 293 292 294 298 298 299 299 299 297 298 298 299 301 299 299 298 299 299 298 298 298 298 298 298 298 297 298 298 297 296 297 297 299 298 297 300 305 304 304 305 303 301
294 292 292 292 296 298 298 299 299 298 297 298 299 300 299 299 298 297 297 298 298 298 298 298 298 297 296 296 296 297 296 296 295 298 298 295 301 303 303 303 304 301 304 306
293 291 293 297 298 298 297 299 299 299 295 298 298 298 297 297 298 298 299 299 298 298 299 298 299 299 299 299 297 296 296 297 295 294 298 299 301 301 300 302 302 299 300 300
291 292 297 297 297 298 298 299 299 298 296 296 297 296 296 295 297 297 298 298 298 298 293 295 299 299 301 301 301 298 296 298 298 300 297 297 298 298 299 300 303 296 295 297
291 295 297 297 296 297 298 299 298 298 297 297 297 296 297 296 296 296 295 297 297 297 289 291 291 298 299 301 298 303 300 300 299 299 299 298 296 297 297 303 299 294 293 293
291 294 296 296 295 295 297 298 297 298 297 297 297 297 297 297 297 294 295 293 293 292 293 294 289 290 296 297 291 302 301 301 302 301 301 300 295 297 297 296 294 293 291 290
292 293 294 295 295 294 297 297 297 298 297 297 297 297 297 297 297 296 296 294 295 294 291 292 292 295 290 293 299 298 297 296 299 299 297 296 294 294 292 292 292 291 289 289
292 292 293 293 294 294 296 297 297 297 296 296 296 295 296 296 296 296 297 298 297 296 296 291 291 294 295 294 297 297 297 297 298 298 296 295 294 292 291 290 289 289 289 289
292 292 292 293 295 294 296 296 296 297 297 296 297 297 297 295 294 296 297 297 297 297 296 294 289 294 295 295 298 295 296 296 297 297 295 294 293 292 291 289 289 289 288 288
292 291 291 295 295 295 295 296 297 297 296 296 297 297 297 297 296 296 296 296 296 296 295 290 292 294 294 298 293 294 295 295 295 293 294 293 292 292 290 289 288 287 287 287
291 291 291 295 295 295 295 295 295 297 297 298 293 296 297 297 297 297 297 297 297 296 295 293 294 295 295 292 293 295 294 294 294 292 293 292 291 290 290 289 288 287 287 286
292 293 293 294 294 294 294 294 294 295 295 296 292 295 297 297 297 297 297 297 297 297 295 294 294 295 297 292 295 294 295 294 293 292 292 291 291 289 289 288 286 286 286 285
292 292 292 292 293 294 294 294 294 294 294 294 289 291 296 297 297 297 297 297 297 297 295 294 295 296 297 298 293 294 293 293 293 293 293 292 291 290 288 287 287 286 285 284
292 291 291 292 293 294 294 294 294 294 294 293 291 292 290 297 296 297 297 297 293 295 290 293 294 289 296 293 294 293 293 293 293 292 291 291 290 289 288 287 286 285 284 284
291 290 289 289 293 293 294 294 293 293 293 293 290 293 292 296 294 293 295 295 292 292 293 295 294 290 293 294 294 294 294 294 293 292 290 291 289 289 287 287 286 285 284 283
290 291 291 291 292 293 292 292 291 292 291 292 293 294 293 297 290 290 295 292 293 296 293 294 295 294 292 292 293 293 293 293 292 292 292 291 290 289 288 286 285 284 284 283
290 292 292 292 292 292 293 292 292 292 294 293 292 294 295 297 297 293 294 298 298 299 294 297 297 288 290 291 291 290 291 291 292 291 292 290 289 288 287 286 285 284 283 283
292 292 292 293 293 292 292 291 293 288 293 294 295 290 295 297 297 294 293 295 299 296 298 295 289 288 288 289 289 289 289 289 289 289 289 288 287 286 285 285 284 284 283 283
293 292 292 289 291 289 286 287 286 293 295 295 296 295 297 295 292 290 295 288 295 295 296 292 284 287 288 289 288 288 288 287 287 286 286 286 285 285 284 284 283 282 282 279
293 293 288 291 291 292 294 295 295 296 296 297 296 294 295 288 287 293 293 295 295 296 290 285 288 288 289 289 288 287 286 285 285 285 285 284 284 283 283 283 281 279 278 278
293 293 292 293 294 294 295 295 295 295 296 296 296 290 287 289 292 296 295 297 293 292 285 289 288 289 289 288 287 286 285 284 284 284 283 283 282 282 281 279 279 279 278 278
293 293 293 293 294 293 294 294 295 295 296 293 295 295 292 293 296 297 296 295 288 289 289 290 290 290 288 287 286 286 284 284 284 283 283 283 281 280 279 279 279 279 279 279

GFSNW_850_thetae_102.txt.gz
Theta_e
300 299 299 300 300 300 299 300 302 300 299 302 302 305 303 302 303 303 305 307 306 306 305 309 308 306 306 304 305 306 305 306 305 305 306 304 304 308 309 310 310 312 315 313
299 300 299 298 299 299 298 300 298 299 299 304 304 303 303 303 303 304 306 305 305 304 305 305 307 306 303 304 304 304 304 305 306 305 305 305 305 306 305 306 306 308 309 310
299 299 299 297 298 298 299 300 301 298 299 300 303 303 303 303 302 304 305 306 305 304 304 304 305 303 302 304 304 303 303 303 303 304 305 305 304 304 303 304 307 305 306 305
299 299 297 296 298 297 298 299 301 300 302 302 303 303 303 304 303 304 303 304 305 306 304 303 303 302 303 302 302 303 303 302 301 302 302 302 302 302 302 301 301 301 301 301
298 298 298 293 297 296 298 300 300 299 300 301 302 302 303 303 303 304 303 305 303 304 305 303 302 302 302 302 301 302 302 303 302 300 301 301 301 301 301 301 301 300 301 302
299 298 297 293 296 296 298 300 299 300 300 301 302 303 303 303 303 302 303 303 302 302 300 300 300 300 300 301 301 300 300 302 300 298 299 299 299 301 301 301 301 304 306 306
298 297 296 293 295 295 299 299 300 302 303 301 303 302 303 303 303 302 300 300 301 299 299 299 299 299 299 299 300 299 299 300 299 299 299 302 304 303 304 303 304 303 302 301
297 296 296 293 293 295 297 298 299 301 303 301 302 302 302 301 300 301 300 300 299 299 299 301 301 302 302 302 301 299 300 301 302 304 304 302 303 302 301 302 303 298 298 298
296 294 295 292 293 294 297 298 298 298 302 301 300 301 301 302 301 301 300 298 298 299 301 302 301 301 302 303 303 302 300 301 303 303 304 304 304 300 299 299 303 296 295 296
293 293 293 293 295 298 298 298 298 298 300 298 299 301 301 300 300 301 300 299 299 300 302 303 303 303 302 304 304 303 302 301 303 303 304 304 298 299 298 303 301 294 292 292
291 293 296 297 297 297 298 298 299 298 299 298 298 298 299 299 300 301 299 299 299 300 301 302 302 304 303 303 302 304 304 304 303 303 304 305 297 299 301 296 294 292 291 290
294 296 296 296 296 297 297 297 297 297 299 297 296 297 297 298 297 298 298 299 299 299 300 300 302 303 303 303 304 301 304 302 304 302 301 296 294 293 292 292 293 291 289 288
296 296 295 295 295 296 297 297 297 298 297 297 298 297 296 296 296 297 299 298 297 298 297 301 302 303 303 305 303 301 300 300 301 301 298 296 294 292 291 290 289 288 288 287
295 295 295 295 294 295 297 297 297 297 298 299 297 296 296 296 296 296 296 296 297 297 298 300 302 303 301 303 302 303 301 301 300 298 296 295 293 292 290 288 288 287 287 286
294 293 293 294 294 296 296 297 297 297 299 299 297 297 296 296 295 295 296 297 297 297 298 300 300 300 302 301 301 301 298 299 301 302 297 296 293 291 289 288 287 286 286 285
293 295 295 296 296 296 297 297 296 296 297 298 299 297 297 297 298 298 298 298 298 298 298 298 297 298 301 302 302 296 295 296 296 295 295 293 291 289 288 287 286 286 286 285
294 295 295 295 295 296 295 297 296 297 297 297 299 298 297 297 298 298 298 298 298 298 298 298 297 298 300 302 302 296 295 295 294 294 292 291 291 289 288 287 287 286 285 285
293 295 294 294 294 295 295 295 295 296 297 298 300 299 298 297 298 299 298 298 298 298 298 298 298 299 300 300 297 296 295 294 294 294 294 293 290 289 287 286 286 286 285 284
293 294 294 293 293 294 294 294 294 294 295 299 299 300 300 297 298 299 299 299 299 297 300 299 299 300 300 300 297 295 295 294 293 292 292 291 290 289 288 287 287 286 285 284
293 292 291 294 293 294 294 294 294 294 294 296 299 298 299 299 299 299 299 298 299 299 299 298 299 299 297 297 297 296 295 294 293 292 291 291 290 289 288 287 287 286 284 283
290 290 293 293 293 293 293 295 297 296 297 296 297 299 300 297 300 300 298 299 299 299 300 299 299 299 296 295 296 295 295 294 293 293 292 292 291 289 287 286 285 284 283 282
290 293 293 293 294 294 295 295 295 297 297 296 299 298 299 298 298 299 298 299 299 300 299 299 300 297 294 294 293 293 293 293 292 292 292 291 289 288 287 286 285 284 284 284
292 293 293 294 293 295 295 295 297 298 297 296 297 299 299 298 299 298 298 298 301 298 300 301 300 293 292 290 290 290 290 291 291 290 290 289 288 287 286 286 285 284 283 282
293 293 293 294 294 295 295 297 298 295 295 297 298 296 300 297 299 298 298 298 297 300 301 302 297 292 291 289 289 289 289 290 290 290 289 289 288 286 285 284 284 284 283 280
293 294 294 295 294 294 294 294 296 294 294 297 298 298 299 298 298 297 296 297 299 301 302 300 294 291 289 287 288 289 289 288 289 288 288 287 286 285 284 284 284 280 279 279
293 293 295 294 297 296 296 296 296 296 296 296 298 298 299 298 298 297 298 300 301 302 299 293 290 288 287 288 288 288 287 287 287 286 285 285 284 284 284 281 280 279 279 279
294 294 292 294 295 296 295 296 296 296 297 298 297 297 298 298 297 298 298 301 300 295 290 289 289 288 289 288 287 286 286 285 285 284 283 283 283 281 280 280 280 279 279 278

GFSNW_850_thetae_105.txt.gz
Theta_e
303 302 302 302 301 300 300 302 306 300 300 302 302 308 308 305 307 305 307 308 309 309 310 310 313 312 310 307 308 310 310 311 312 310 309 308 308 310 312 315 314 316 314 315
299 301 300 301 300 299 302 302 300 299 300 306 305 306 306 305 306 306 307 308 308 308 309 309 312 310 307 307 309 310 308 309 310 309 308 308 308 308 309 309 310 309 311 313
300 300 300 300 300 300 300 302 304 298 298 300 306 305 306 305 305 306 307 308 307 308 308 308 310 309 307 305 306 304 304 307 309 309 308 309 307 307 307 307 310 308 308 307
299 299 300 299 299 300 299 303 305 303 304 303 305 306 306 306 306 305 305 308 307 308 308 307 308 307 306 305 303 304 306 306 305 304 304 304 305 306 306 305 305 304 304 303
298 299 300 299 298 298 298 301 303 303 304 303 304 305 307 306 306 306 306 307 307 308 308 306 306 306 306 304 304 304 304 305 304 304 303 303 302 303 303 303 303 303 303 302
298 300 300 298 297 298 298 301 302 302 303 304 305 306 305 306 306 305 306 306 306 307 306 304 305 304 304 304 305 304 304 305 303 302 301 301 301 303 303 303 303 303 304 307
297 299 298 297 296 298 299 301 302 303 305 304 304 304 305 305 306 305 304 304 305 302 301 301 301 302 302 302 302 303 302 302 301 302 301 301 306 305 304 305 305 306 305 304
299 299 298 297 295 298 299 300 301 303 306 303 304 304 304 304 304 305 303 302 302 301 301 303 302 302 301 301 301 300 301 302 304 305 304 305 305 304 303 303 305 300 301 301
299 299 298 296 296 297 297 299 300 302 305 303 303 304 304 305 304 303 302 301 301 301 302 303 302 303 303 303 303 303 302 303 305 305 306 305 306 302 301 301 305 298 297 297
298 297 297 295 296 296 296 298 299 301 303 301 303 304 304 303 303 304 302 301 301 301 303 305 304 304 304 305 304 304 304 304 305 305 306 305 301 301 301 304 302 295 294 293
297 296 295 293 293 293 296 297 298 301 302 300 301 301 302 302 303 304 302 301 301 301 303 304 304 306 304 306 306 305 304 305 305 305 306 308 299 301 302 297 295 294 292 292
293 294 293 293 294 297 297 299 298 298 301 300 299 299 299 300 300 302 300 302 301 303 304 303 304 305 305 306 306 304 306 305 308 304 304 297 296 295 294 294 294 292 291 290
294 295 296 297 297 297 297 300 298 299 300 300 300 299 298 297 297 300 300 300 300 300 303 305 305 306 305 306 306 304 303 302 303 303 299 296 294 293 293 293 292 291 290 288
295 295 296 296 296 297 296 299 299 300 300 301 298 298 298 298 298 299 301 300 300 300 302 304 306 305 305 306 305 306 304 303 302 299 297 296 294 293 292 291 289 288 288 288
296 295 295 295 294 295 298 298 298 300 301 301 298 298 298 298 299 299 299 299 299 299 301 304 304 304 304 304 304 304 302 303 303 305 299 299 295 292 291 290 289 289 288 288
295 295 294 294 294 296 297 297 296 298 299 298 301 298 299 299 299 300 300 300 300 300 301 301 301 302 303 305 304 299 299 299 299 298 297 295 293 292 291 290 289 289 288 288
294 295 295 296 296 297 298 299 298 298 300 300 299 299 299 299 300 300 300 300 300 301 300 300 300 301 302 304 304 298 298 296 296 295 294 293 292 291 291 290 289 288 287 287
295 295 295 295 295 295 297 296 296 297 300 301 301 300 300 299 300 301 300 301 301 300 301 300 301 300 301 303 300 297 296 295 295 295 296 294 292 291 290 289 288 288 287 287
294 294 294 296 297 298 296 295 296 295 300 301 301 301 301 299 300 300 300 301 302 300 302 301 300 302 302 302 298 297 296 295 295 295 294 293 292 290 289 289 289 288 287 286
294 294 296 297 296 294 294 295 299 299 298 300 302 301 300 300 301 301 301 300 301 301 301 300 301 301 300 299 298 297 295 296 295 294 293 292 291 291 290 290 289 288 287 286
294 295 296 295 294 297 297 298 299 298 299 300 300 300 301 300 302 302 300 301 301 301 302 301 301 300 299 297 297 297 296 295 294 295 294 293 292 291 290 289 288 287 286 285
294 295 295 294 296 297 298 298 298 299 299 299 301 301 300 300 300 301 299 300 301 302 301 300 300 300 297 296 296 295 294 294 294 294 293 293 292 290 289 287 286 284 284 284
294 296 295 297 296 298 299 298 299 300 299 299 300 302 300 300 300 300 300 300 302 301 301 302 301 296 295 295 295 293 293 293 293 293 292 291 289 288 287 285 285 285 285 284
296 296 295 298 298 298 298 300 301 297 298 300 300 299 301 300 301 300 299 300 300 301 302 303 300 295 293 294 294 292 291 291 291 290 289 288 288 287 286 286 285 285 284 282
295 296 297 297 295 296 296 296 296 296 299 299 300 300 300 300 298 298 298 299 300 302 304 301 297 293 291 291 290 289 289 289 288 289 289 289 288 287 286 285 284 283 281 281
295 295 297 297 298 297 297 297 296 297 299 300 300 300 301 300 300 299 299 301 302 303 298 294 293 291 290 289 288 289 289 288 288 288 288 287 286 285 285 284 282 279 280 279
295 296 294 297 297 297 296 298 298 299 299 300 299 299 299 299 300 300 300 302 300 295 293 292 291 290 288 288 289 288 288 287 287 287 286 285 284 284 283 280 279 279 279 278

GFSNW_850_thetae_108.txt.gz
Theta_e
297 298 300 302 302 303 302 302 304 302 301 301 301 307 311 310 312 309 308 309 311 312 312 312 312 314 313 313 314 315 313 312 313 312 311 310 311 311 314 319 318 317 317 318
295 297 298 301 303 302 301 302 299 300 300 304 305 306 309 309 308 309 308 308 309 310 311 311 312 313 309 309 309 309 311 312 311 313 311 309 309 311 311 311 311 310 311 311
296 296 297 299 300 301 301 300 303 298 298 300 306 306 308 310 306 308 308 308 309 309 310 309 311 312 309 308 309 305 307 309 311 313 311 310 310 309 309 309 311 310 309 311
294 296 298 299 300 301 300 300 303 302 301 301 304 308 307 308 308 306 307 308 309 309 309 309 310 311 309 307 304 306 307 308 309 308 306 306 307 307 307 306 306 308 306 305
294 296 297 299 299 300 298 301 304 304 305 302 304 307 309 308 307 307 306 309 309 308 309 309 309 310 308 307 305 306 306 308 308 307 306 305 304 304 304 305 305 304 303 304
295 296 297 298 299 300 298 300 303 304 305 306 306 307 307 308 307 307 306 308 308 308 308 307 307 307 307 306 305 306 305 307 305 305 305 302 302 304 303 304 304 305 304 306
296 297 297 299 299 299 299 301 303 304 306 305 306 305 306 306 307 308 307 307 308 306 305 303 304 305 304 305 305 305 305 305 304 304 303 301 307 305 305 305 306 305 305 303
296 297 298 300 300 299 298 300 301 303 307 305 305 305 306 306 307 306 306 305 305 303 302 303 302 302 302 302 302 302 303 304 303 304 303 307 305 304 303 304 304 300 301 301
296 297 298 299 299 298 298 299 300 301 302 306 304 306 305 308 306 305 304 303 302 302 305 305 304 304 303 303 303 301 302 303 306 306 306 305 306 303 303 302 304 298 297 297
296 298 299 298 297 296 297 298 300 301 300 303 304 305 306 305 305 305 303 303 303 302 306 306 305 305 304 305 304 303 303 305 305 306 306 305 303 302 302 305 301 295 293 294
298 299 299 298 296 297 298 298 299 300 300 302 302 304 303 305 304 305 303 303 303 303 304 304 306 307 305 307 307 304 304 304 305 306 307 307 300 302 303 298 296 293 292 292
299 298 297 297 296 297 297 298 298 299 300 301 300 300 300 301 303 304 302 303 303 303 304 304 304 306 307 307 307 306 308 305 307 303 303 297 296 296 295 296 295 293 291 290
297 295 296 295 296 297 298 299 299 300 300 300 301 300 299 299 300 302 302 302 302 303 305 309 307 306 306 307 307 306 304 304 303 302 298 296 295 294 294 293 292 291 290 289
294 294 293 294 296 298 298 299 299 301 301 301 299 299 299 299 297 301 303 302 301 301 304 306 307 307 306 307 306 306 304 304 302 300 298 296 295 293 292 291 291 290 289 288
296 296 296 296 297 297 297 299 300 300 301 301 299 299 299 300 300 300 300 301 301 302 303 306 306 305 305 306 306 305 304 304 304 306 299 299 295 293 292 291 290 290 289 289
295 296 296 296 297 296 298 298 299 300 300 299 301 299 300 300 300 301 301 301 301 301 302 303 303 305 304 306 306 302 301 301 301 300 298 296 293 292 292 291 291 290 289 289
295 295 295 294 295 298 298 300 299 300 301 299 301 300 300 300 301 301 301 301 302 302 301 301 302 302 303 305 305 301 299 298 298 296 295 293 293 292 291 291 290 289 289 288
295 295 295 296 298 298 297 298 298 299 300 302 302 301 300 300 301 301 302 301 302 302 302 301 302 301 302 304 301 299 297 296 296 295 296 294 293 292 291 290 289 289 288 288
295 295 295 296 298 299 296 297 297 298 301 302 301 301 301 301 302 301 301 302 304 301 303 302 301 304 303 303 300 298 296 296 295 296 295 294 293 292 291 290 290 289 288 288
295 296 297 298 298 296 295 296 299 300 299 301 303 302 302 301 302 302 302 301 303 302 302 301 302 303 301 301 299 297 296 296 295 295 294 293 292 291 291 290 290 289 288 287
296 297 296 296 295 298 299 299 300 300 300 301 302 301 302 301 303 303 302 302 302 301 303 301 302 301 301 299 298 297 296 295 295 295 294 293 292 291 291 290 289 288 287 286
296 297 296 297 298 298 299 299 299 300 300 300 303 301 301 301 301 302 300 301 301 302 302 302 301 300 298 298 297 297 296 295 295 295 294 293 292 291 290 289 287 287 286 285
297 297 297 298 297 299 299 298 299 301 300 302 302 303 301 301 301 301 301 301 302 301 301 302 301 298 297 296 296 295 295 294 295 294 293 292 291 290 288 287 287 286 285 285
297 297 297 299 299 299 301 302 301 300 300 301 302 301 302 301 301 301 301 301 301 301 302 303 299 296 296 295 294 294 293 294 294 293 292 291 290 289 288 287 286 285 285 283
297 297 298 298 297 297 297 297 298 299 301 300 301 301 300 300 298 300 299 299 300 301 304 300 297 295 294 294 293 293 293 292 292 291 291 290 289 288 287 286 285 285 283 280
296 296 297 297 298 298 297 297 298 299 301 300 300 301 301 300 300 299 300 302 303 301 297 295 294 293 292 291 291 290 290 290 290 290 289 289 288 287 286 285 284 283 281 280
297 297 296 298 297 297 297 297 298 299 301 303 300 300 300 300 300 301 301 302 299 295 293 292 292 291 290 290 289 289 288 288 288 288 288 287 286 285 285 284 281 280 280 279

GFSNW_850_thetae_111.txt.gz
Theta_e
296 298 298 299 300 301 301 303 303 304 304 303 300 306 308 310 311 311 313 311 312 312 312 312 312 315 314 310 312 315 314 313 312 312 312 312 311 312 313 315 316 315 316 318
295 297 296 297 299 301 302 302 300 301 302 304 304 304 307 309 311 312 311 309 309 309 310 311 311 312 311 309 310 315 313 312 313 311 311 311 310 310 313 313 313 313 312 314
295 295 296 296 296 298 301 300 300 298 299 299 304 305 306 309 309 309 310 308 308 309 310 310 310 312 309 308 309 306 309 311 310 310 312 310 309 309 310 311 308 309 308 313
294 295 295 296 296 298 300 300 301 299 299 300 302 305 307 307 310 308 308 309 308 309 309 309 308 310 310 308 305 306 308 308 309 309 310 307 306 307 308 309 307 307 307 309
293 293 294 294 297 300 300 299 302 302 302 301 301 303 309 308 308 308 307 308 309 308 308 308 309 311 309 307 305 307 307 308 307 308 308 305 304 304 303 304 304 304 306 306
293 293 294 295 297 298 298 299 302 302 301 303 302 301 304 307 307 308 307 306 308 309 308 308 306 308 308 307 304 305 305 305 306 307 307 305 302 305 306 307 305 307 306 305
294 294 294 296 298 299 298 299 300 302 303 303 303 304 303 306 307 308 308 307 307 307 306 305 306 307 306 305 305 305 305 304 305 306 302 303 305 304 305 305 302 303 303 301
293 294 295 297 297 298 298 300 300 302 302 304 304 305 305 305 305 307 307 307 307 305 303 302 302 301 302 303 304 305 304 304 303 304 305 306 305 304 302 301 301 298 299 299
294 296 296 297 297 298 299 299 299 300 302 301 304 304 305 305 305 305 303 305 304 303 300 301 305 304 303 302 302 303 302 303 303 304 305 304 302 303 302 302 299 296 295 295
296 297 297 297 297 299 299 299 299 300 300 301 303 305 305 305 304 304 303 303 302 302 299 302 304 306 304 304 304 302 302 302 304 304 304 304 303 303 302 299 297 294 294 292
296 297 297 297 300 300 299 298 299 300 300 300 302 303 303 305 304 303 302 300 301 301 302 305 305 307 305 306 303 303 303 303 303 303 303 304 298 300 301 295 294 293 292 290
297 297 297 298 299 298 298 297 298 299 300 300 300 300 301 302 304 303 302 302 301 302 302 302 304 306 303 305 306 305 302 300 302 301 300 296 296 295 296 295 293 292 291 290
297 296 299 299 298 297 297 298 299 299 300 300 300 299 299 299 303 303 302 303 302 303 304 303 304 305 303 303 302 303 304 304 298 299 297 295 294 294 294 293 292 290 290 289
298 299 299 298 297 297 298 298 299 300 300 300 299 299 300 297 301 302 302 302 301 302 304 303 303 303 305 303 303 302 302 302 300 299 297 295 294 293 292 291 290 289 288 288
297 297 297 296 296 297 298 299 299 300 300 299 300 299 300 300 299 300 300 299 300 301 301 301 302 303 302 303 302 302 303 299 298 300 296 296 294 292 291 290 289 289 288 288
294 294 293 295 297 298 298 299 300 300 300 299 299 300 300 301 301 301 301 301 301 302 302 301 304 304 303 300 301 301 301 301 301 298 297 295 293 291 290 290 289 289 288 287
296 296 296 297 297 298 298 299 300 300 301 299 298 298 300 301 301 301 301 301 302 302 300 300 301 303 303 298 300 299 298 298 297 297 295 293 292 291 291 290 290 289 288 287
296 295 295 295 296 298 298 299 299 301 301 301 299 298 298 300 301 300 302 301 301 301 301 300 300 300 301 299 297 298 297 296 296 296 296 293 292 291 291 290 289 288 288 287
294 295 296 296 298 298 297 299 299 300 301 300 300 298 297 300 301 301 301 302 299 300 300 300 300 297 299 299 297 296 296 296 295 295 294 293 292 291 290 289 289 288 288 287
296 296 297 298 299 296 297 296 297 299 299 301 299 301 298 301 302 301 301 301 299 299 299 301 296 296 301 300 298 297 296 295 295 294 293 293 291 290 290 289 289 288 287 287
296 296 297 297 296 298 298 298 299 300 299 301 301 300 299 301 298 298 301 298 298 299 298 297 297 297 297 298 297 296 296 295 295 294 293 292 291 290 290 290 289 288 287 286
297 296 295 297 299 298 298 298 297 299 299 300 299 300 301 301 302 298 299 299 297 301 299 296 295 298 298 297 296 296 296 295 295 294 293 292 291 291 290 289 288 288 286 286
297 297 297 297 297 294 295 295 298 298 300 301 301 298 300 301 300 298 295 293 295 299 293 296 297 298 298 297 296 296 295 295 295 293 293 292 291 291 290 289 288 287 286 285
297 296 291 294 294 296 298 300 297 300 301 301 301 300 299 300 294 294 293 294 296 293 295 299 296 297 296 296 296 295 294 295 294 293 292 292 291 290 289 288 287 287 286 285
297 297 295 294 297 297 297 298 299 301 301 300 299 299 299 293 290 294 295 293 294 294 300 297 296 296 295 295 294 294 294 294 293 293 292 291 290 289 288 287 286 286 285 284
295 296 296 297 295 296 297 298 299 301 300 300 299 296 293 294 295 296 294 298 298 297 295 295 295 295 294 294 294 294 293 293 293 291 291 290 289 288 288 286 285 284 284 281
296 295 297 297 296 296 297 297 298 300 300 296 296 294 298 295 297 298 296 296 296 294 294 293 293 293 293 293 293 292 292 292 291 290 289 289 288 287 286 285 284 282 280 280

GFSNW_850_thetae_114.txt.gz
Theta_e
297 298 300 300 299 300 301 303 303 303 304 304 301 307 308 308 310 310 310 312 312 312 311 311 312 315 314 310 309 314 313 313 314 312 313 311 312 313 314 311 311 312 311 315
295 296 297 298 299 300 302 301 301 302 303 305 304 304 307 307 309 310 311 311 311 309 309 311 311 312 311 309 310 314 312 313 315 313 311 310 311 310 312 312 312 313 310 312
294 294 295 297 297 299 300 300 299 299 300 301 303 303 306 307 307 309 310 310 310 308 309 310 310 311 310 308 308 310 312 312 313 313 311 309 309 309 312 312 311 309 307 311
294 294 294 295 296 296 299 299 300 299 300 299 302 304 305 305 308 308 307 310 308 307 308 309 310 311 309 307 307 307 307 308 309 310 311 309 309 305 308 311 309 308 308 310
294 293 294 294 295 297 298 298 300 299 299 300 301 303 307 305 306 307 308 308 307 307 307 307 307 309 309 307 303 306 306 307 307 309 309 306 304 304 303 303 306 308 308 307
294 294 293 293 294 296 299 298 298 302 302 299 301 301 303 304 305 306 307 306 307 308 307 307 306 308 307 306 304 304 305 306 308 311 308 308 306 303 307 306 304 306 305 304
293 293 292 292 293 295 297 298 300 301 302 302 302 302 301 302 303 306 306 307 307 306 306 306 306 306 306 304 304 303 303 305 305 307 307 309 305 306 306 303 301 303 302 300
293 293 293 292 293 296 297 298 298 300 299 302 303 303 302 302 301 304 306 307 307 307 305 303 304 303 304 305 305 305 304 305 306 305 305 305 305 304 303 303 300 298 300 297
293 294 293 293 294 296 298 298 300 300 301 300 302 304 302 302 301 304 306 305 306 304 299 302 305 303 302 303 303 305 305 303 303 304 304 304 301 303 301 299 298 295 296 297
292 292 293 294 295 297 297 298 298 299 300 300 300 303 302 304 304 301 302 304 300 303 299 298 302 304 303 303 303 303 302 302 302 305 303 303 302 303 301 299 298 294 294 293
293 293 294 295 296 297 297 298 299 298 300 299 299 300 304 304 303 301 301 302 301 299 300 302 301 302 303 302 301 302 302 303 304 303 302 303 297 300 301 294 293 293 292 291
295 296 295 297 297 297 297 298 299 299 299 299 299 299 301 304 303 303 301 301 300 301 300 300 302 304 305 304 305 304 301 299 300 300 297 295 295 295 295 295 292 291 290 289
296 296 297 297 297 299 298 299 299 299 300 299 299 298 301 303 303 303 302 301 302 303 304 301 303 305 303 305 301 303 303 300 296 297 296 295 295 295 295 294 292 291 290 288
295 296 297 297 299 299 299 297 299 300 299 298 299 299 299 301 302 302 302 301 302 304 304 300 303 304 303 303 302 301 301 300 298 297 296 294 294 293 293 292 291 290 289 288
297 297 297 298 298 298 297 298 299 300 300 298 299 300 299 300 301 302 302 301 301 302 300 299 302 302 302 301 300 300 301 297 297 296 296 295 294 292 292 291 290 289 288 287
297 298 299 297 297 297 297 298 298 300 299 299 297 300 300 301 300 300 300 300 301 301 301 300 303 304 302 300 300 300 300 300 300 295 295 295 293 292 291 290 289 288 287 287
298 297 296 296 297 297 298 299 299 300 300 299 296 297 300 300 301 301 301 301 301 301 299 299 301 302 302 297 298 298 297 299 297 296 295 292 292 291 290 289 289 288 288 287
295 295 296 298 298 298 299 299 300 300 300 300 297 297 298 300 300 300 301 301 301 301 299 300 298 299 300 299 297 296 296 296 295 295 296 293 292 291 290 289 289 288 287 286
296 297 297 297 298 298 299 299 300 301 301 298 297 296 295 301 301 300 301 301 297 300 298 298 299 296 298 298 297 296 295 295 295 295 293 292 291 291 290 289 288 288 287 286
296 297 297 298 298 298 299 297 298 299 299 301 297 299 297 300 300 298 299 299 297 298 298 299 297 296 299 298 298 297 296 296 295 292 292 291 291 290 289 289 288 288 287 287
296 296 297 296 297 298 297 298 297 298 297 301 300 299 298 301 297 296 299 297 296 300 298 297 296 297 295 297 297 296 295 295 295 294 292 292 291 290 289 289 288 288 287 287
296 296 296 297 299 298 296 295 296 298 299 299 298 299 300 301 301 296 298 298 296 301 296 295 293 296 296 297 296 295 295 295 294 293 292 291 291 290 289 289 288 288 287 287
296 297 298 296 296 292 293 293 296 295 297 300 300 297 300 300 299 295 295 292 293 295 288 294 297 297 296 296 296 295 295 295 294 293 292 291 290 290 290 289 288 288 287 286
296 295 290 290 289 295 298 299 295 299 300 300 300 299 297 298 293 291 291 292 293 289 292 296 296 297 296 296 296 295 295 295 294 293 292 291 291 290 290 290 289 287 286 285
296 296 294 292 296 295 296 298 300 300 300 299 299 297 297 291 289 290 292 290 290 291 290 295 295 296 296 296 295 295 295 295 294 293 292 292 291 291 289 288 288 286 286 285
295 295 295 294 295 295 297 297 299 300 299 299 299 294 291 292 292 294 291 295 292 290 294 295 296 295 295 295 295 295 294 294 294 293 292 291 291 290 289 287 286 286 285 284
295 295 296 296 295 296 296 298 299 300 299 292 294 293 295 292 294 296 295 295 295 294 294 294 294 294 295 295 294 294 294 293 293 292 291 290 289 288 288 287 285 284 283 280

GFSNW_850_thetae_117.txt.gz
Theta_e
298 297 297 299 299 300 300 302 304 302 305 305 303 307 307 307 308 308 308 310 311 310 311 311 310 313 312 311 311 312 312 313 315 313 311 311 311 312 311 307 309 312 304 306
296 295 296 298 300 300 301 301 301 302 305 305 303 304 306 307 307 307 309 309 309 310 310 311 310 310 310 309 311 311 311 312 312 313 311 310 313 312 312 311 310 312 310 309
294 294 296 298 300 300 300 300 300 299 302 301 302 304 306 307 307 307 309 309 309 309 309 308 310 310 310 309 309 312 312 311 311 311 311 310 312 312 312 312 312 311 310 311
294 294 295 296 298 299 300 300 299 300 299 300 303 303 304 304 307 307 308 308 309 308 309 308 309 310 308 306 311 309 308 310 309 310 310 310 310 311 311 312 311 310 308 309
294 295 295 294 296 298 299 297 299 299 299 300 302 302 304 304 304 306 308 308 308 308 308 308 307 309 308 307 306 306 305 307 307 308 309 310 309 307 303 308 310 310 308 309
293 294 294 294 294 297 298 298 298 300 300 298 301 301 302 303 303 304 304 306 306 307 307 306 306 307 308 307 305 304 305 306 308 310 309 311 311 306 305 305 304 306 307 305
294 294 294 293 294 295 297 297 297 298 299 300 300 301 300 301 302 304 305 305 305 306 306 305 303 305 304 305 303 304 304 306 306 308 308 311 306 304 306 304 302 303 302 302
293 294 294 293 293 294 295 296 297 298 300 299 301 301 301 301 300 301 302 303 305 306 306 304 306 304 305 305 305 304 303 303 306 305 307 305 304 303 302 303 302 299 300 296
293 293 293 293 292 292 294 295 296 298 299 300 301 301 301 301 302 301 301 303 306 304 301 304 306 305 305 306 305 304 304 304 305 305 304 306 299 302 301 298 298 296 296 294
293 293 293 293 293 293 294 295 295 298 299 300 301 302 301 302 302 302 303 304 304 303 302 302 302 303 302 304 305 305 305 304 304 304 304 302 301 302 301 297 298 295 296 294
291 292 292 293 293 293 294 295 296 297 299 299 300 300 301 303 303 300 301 302 301 300 303 305 302 300 301 301 296 303 303 304 303 303 302 301 298 301 301 294 294 294 294 294
290 290 291 293 293 294 295 297 296 297 298 299 299 300 299 301 302 302 302 302 300 301 302 301 302 303 299 301 302 302 299 298 299 301 299 295 295 296 295 295 294 292 292 292
294 293 292 292 293 295 296 298 298 298 299 299 299 299 299 300 302 302 301 300 302 301 301 301 301 303 299 301 299 303 301 299 297 298 296 295 295 294 294 294 293 291 291 289
295 295 294 294 295 296 297 297 297 298 299 297 299 299 299 302 303 302 302 301 303 303 304 297 297 302 302 302 302 302 301 299 298 297 296 295 294 294 293 292 291 290 289 289
296 295 296 296 297 297 297 297 298 299 299 297 299 299 299 301 301 302 302 302 303 303 299 298 300 301 302 299 300 300 300 298 297 298 296 295 294 293 292 292 290 289 289 287
296 296 296 297 298 298 297 297 298 299 300 298 298 299 299 300 301 301 301 301 301 301 301 300 302 303 303 301 300 299 299 299 298 297 295 295 293 293 292 291 290 289 288 287
296 296 296 297 298 298 298 298 299 299 299 299 294 297 300 301 301 301 301 301 301 300 299 299 301 301 301 298 300 298 297 297 298 296 295 291 292 291 292 290 289 288 288 287
297 297 298 298 297 297 298 299 299 299 300 299 294 296 298 300 300 300 301 301 300 300 298 299 298 298 299 299 297 295 295 295 294 295 296 293 292 291 290 289 288 287 287 286
298 297 297 297 298 298 299 299 300 300 300 297 296 295 294 300 300 300 300 300 296 299 298 298 298 296 298 297 297 294 294 295 294 295 295 292 292 290 290 288 288 287 286 286
297 297 297 298 298 299 299 299 299 300 300 300 296 297 297 299 299 297 298 298 296 298 297 298 296 295 297 298 297 297 296 296 295 293 291 291 291 290 289 288 288 287 287 286
297 296 296 298 298 297 297 298 296 297 297 299 299 299 298 300 296 296 297 296 296 299 298 297 296 296 294 297 297 296 296 296 295 295 293 292 291 290 289 289 288 287 287 286
296 297 297 297 298 298 295 293 295 297 299 297 296 298 300 300 299 297 297 298 296 301 294 296 294 291 296 296 296 295 295 295 294 294 292 291 291 291 290 289 288 288 287 287
297 297 297 296 294 290 291 292 295 294 296 299 299 296 300 298 299 294 295 293 293 294 288 293 293 296 296 296 296 295 295 294 294 293 292 291 291 290 289 289 288 288 287 287
296 295 291 291 290 296 297 297 294 298 298 300 300 296 295 295 293 290 293 292 292 288 291 294 295 296 296 296 296 295 295 294 294 293 292 291 290 290 289 289 289 288 287 286
296 295 292 293 295 296 296 296 297 298 299 299 297 295 296 290 289 290 291 291 289 290 288 293 296 296 296 296 295 295 294 294 293 292 292 291 290 290 290 289 289 287 287 285
296 295 294 294 293 296 298 297 298 299 299 299 299 293 291 292 292 292 290 292 289 287 293 294 296 296 296 295 295 295 294 294 294 292 291 291 291 290 290 289 288 287 286 285
295 294 294 294 295 295 296 297 299 299 299 293 293 292 295 292 293 295 295 292 292 293 294 295 295 295 295 295 295 295 294 294 293 293 292 291 291 290 289 288 287 286 285 284

GFSNW_850_thetae_120.txt.gz
Theta_e
301 301 300 300 299 299 298 300 302 302 304 305 304 305 305 305 306 307 307 309 309 309 310 311 311 311 310 310 309 310 309 310 312 312 311 310 311 312 311 313 310 309 303 306
300 300 300 299 298 299 299 300 301 302 305 305 305 304 306 305 306 306 307 307 309 309 310 310 309 309 310 310 310 311 312 311 313 309 309 309 312 311 311 311 310 312 308 308
300 298 298 298 297 300 299 300 300 300 301 303 303 305 305 307 306 306 307 308 308 308 308 308 309 309 309 308 309 311 310 310 311 311 309 309 311 311 312 313 314 312 310 309
298 297 296 295 296 300 300 300 300 300 300 302 303 304 304 305 306 307 307 308 308 307 308 308 307 307 308 306 308 310 308 311 310 310 310 310 310 310 311 314 313 313 310 309
297 296 295 294 297 299 300 298 299 298 298 301 303 302 303 303 304 305 307 307 306 307 308 307 307 307 307 307 308 307 305 307 307 308 309 310 310 309 309 310 312 311 309 308
296 295 294 294 296 298 298 298 299 299 298 298 302 302 302 302 303 303 304 305 306 307 306 306 306 306 306 307 307 304 306 306 307 310 307 307 311 309 307 305 304 307 310 307
294 293 294 295 295 296 297 298 299 298 298 298 300 300 301 301 301 302 303 303 303 304 305 305 305 304 304 305 305 305 305 305 307 309 308 310 306 302 305 304 304 303 303 302
293 293 293 294 295 295 296 297 297 298 297 298 300 300 300 300 301 302 301 302 304 303 305 306 307 305 304 306 304 305 303 304 307 307 307 306 304 303 301 302 302 299 301 299
293 293 294 295 295 294 295 296 297 297 295 296 299 299 300 299 298 299 300 301 301 303 303 305 306 305 308 307 306 304 303 304 307 304 303 303 299 302 302 300 301 297 298 295
293 293 293 294 294 294 294 295 295 295 297 297 300 301 301 300 299 296 300 302 303 303 302 303 305 305 304 307 307 306 306 305 306 304 304 302 299 301 299 299 300 297 297 294
293 293 293 294 294 293 294 294 293 295 296 297 299 299 300 301 301 299 301 303 302 301 303 304 303 301 302 303 299 304 305 304 304 304 303 301 300 300 300 296 293 295 294 293
291 292 293 293 294 293 294 294 293 294 295 297 299 299 300 301 302 301 302 301 299 300 301 302 303 305 299 300 301 300 303 297 297 300 298 294 296 297 297 296 295 294 294 292
293 291 291 293 293 293 294 293 293 295 296 296 297 298 299 299 300 301 301 301 302 301 302 298 299 304 300 303 299 301 300 298 294 296 295 294 295 295 295 295 295 295 295 294
294 292 291 291 291 293 293 293 294 295 298 298 298 299 298 299 298 299 301 301 301 302 302 300 302 304 301 300 299 298 299 298 298 296 295 295 294 294 294 294 293 292 291 292
294 293 292 290 291 292 293 294 296 297 297 297 298 298 299 299 300 301 302 301 301 302 300 299 300 300 298 297 297 298 299 298 299 299 297 296 295 294 293 293 291 291 291 289
294 294 293 292 291 293 295 296 296 296 297 298 299 299 299 299 300 301 300 300 301 301 300 299 301 302 300 297 300 299 299 298 298 297 296 295 294 293 292 292 290 289 289 289
296 295 295 294 295 295 295 297 298 297 298 298 298 299 299 300 300 300 300 300 301 299 299 298 299 301 302 301 302 297 296 297 297 296 295 291 292 290 291 291 289 289 288 288
296 296 296 296 296 296 297 298 298 299 299 299 297 298 298 299 299 299 300 300 299 299 297 298 297 299 299 302 297 294 294 294 294 295 296 294 292 291 291 290 289 288 287 287
296 296 296 296 297 297 298 299 299 299 299 297 295 295 295 300 299 299 300 299 296 298 297 297 297 295 297 297 296 293 294 295 294 294 294 292 292 291 291 289 288 288 286 286
297 297 297 297 297 298 299 299 299 299 300 299 293 296 295 298 298 296 297 297 296 298 297 297 295 295 296 298 297 296 295 295 295 292 290 290 290 290 289 288 288 288 287 286
297 296 296 298 297 297 297 296 295 296 296 298 297 298 297 299 296 296 297 296 295 298 297 296 296 296 295 297 297 296 296 295 295 295 294 292 291 290 289 288 288 287 287 287
297 298 297 297 297 297 296 293 295 296 299 296 296 298 299 299 298 297 297 297 295 300 293 295 294 292 295 296 296 296 295 295 294 294 293 292 291 291 289 288 288 287 287 287
297 297 296 296 293 291 292 292 295 294 295 297 298 295 298 297 298 293 294 293 293 293 289 294 292 295 295 296 296 295 294 294 294 293 292 291 291 290 290 289 288 288 287 286
295 295 292 291 289 295 295 296 294 296 297 299 299 294 293 295 292 289 293 291 292 290 291 292 289 295 295 295 295 295 294 294 294 293 292 291 291 290 290 289 288 288 287 286
295 294 293 294 295 296 296 296 297 297 297 298 296 295 295 290 289 290 292 292 289 289 287 289 295 295 296 295 295 295 294 294 294 292 292 291 290 290 289 289 289 288 287 286
295 295 294 294 294 297 297 296 297 298 298 298 297 292 291 292 292 292 289 291 287 286 292 294 295 296 296 296 296 295 294 294 293 292 292 291 291 290 289 289 288 288 287 286
294 292 294 293 294 295 296 297 298 298 298 291 294 293 296 292 292 295 294 292 291 293 294 295 295 296 296 296 295 294 294 294 293 292 291 291 291 290 290 289 288 287 286 286